GFSSE_925_thetae_000.txt.gz
Theta_e
344 340 341 342 341 340 340 339 339 338 337 335 335 333 332 332 332 329 328 328 327 327 326 326 325 324 325 325 334 329 329 331 330 329 324 321 321 325 326 330 336 336 333
343 340 339 341 340 340 338 338 338 338 338 337 336 336 335 334 332 330 329 328 328 327 327 327 327 327 329 335 330 331 330 328 330 329 324 322 330 323 325 325 331 335 330
342 341 340 340 340 339 338 338 338 338 339 339 338 337 335 333 332 331 330 328 326 323 330 335 336 330 329 334 335 335 333 329 327 327 325 323 332 332 325 326 327 331 332
344 344 342 339 339 340 340 339 337 336 335 335 335 335 334 333 332 331 329 322 320 323 329 328 329 331 330 329 330 329 331 331 329 328 327 330 332 332 328 326 327 327 329
346 343 339 339 340 340 342 340 338 335 333 333 334 335 335 335 333 328 322 321 322 323 324 325 325 325 325 326 326 328 328 329 330 329 329 332 332 325 325 326 324 327 326
342 338 340 341 342 342 342 342 341 339 337 334 332 332 331 329 325 323 322 319 316 314 316 319 321 322 323 323 324 324 324 326 326 325 328 331 329 326 326 326 331 333 333
337 334 336 337 337 337 337 336 336 335 332 328 326 324 323 323 322 321 320 315 311 312 313 314 316 315 315 316 317 321 324 325 324 326 330 330 328 323 328 327 326 329 331
334 332 328 327 326 325 326 327 327 326 325 324 323 323 323 323 322 321 319 316 312 311 312 312 311 311 310 311 312 314 316 318 321 328 331 331 328 326 327 329 327 325 327
331 330 331 324 321 321 322 323 323 323 322 322 321 321 321 321 322 320 317 313 312 312 313 313 311 310 309 307 308 309 312 315 320 326 328 328 328 328 327 327 328 328 325
331 331 332 331 333 333 324 322 322 320 320 320 323 324 327 329 328 325 323 320 318 312 315 316 316 313 312 312 317 317 315 315 326 324 326 325 326 325 324 325 326 326 328
329 331 331 331 331 333 330 322 326 320 325 329 330 329 330 330 330 328 325 325 324 323 322 321 320 320 319 319 319 318 318 321 324 322 326 325 324 323 322 325 325 325 326
330 330 333 332 331 327 327 328 329 328 331 331 331 330 331 329 328 327 328 327 326 326 323 324 322 321 322 321 318 317 319 320 319 317 321 321 319 318 320 322 323 323 325
330 331 335 334 332 330 326 328 328 329 327 330 331 330 329 327 328 328 326 326 324 324 324 322 323 321 322 320 316 315 316 317 317 317 318 318 317 311 314 319 321 321 322
329 330 336 335 332 330 330 328 328 327 326 327 327 329 327 327 325 324 322 320 319 318 319 320 320 320 319 318 313 311 312 313 313 311 313 315 314 307 313 317 319 321 321
330 330 333 334 331 331 325 329 329 327 328 324 326 326 325 325 324 322 320 318 318 318 318 318 318 318 318 315 312 310 310 311 311 310 312 313 312 309 306 310 313 314 319
329 331 334 335 331 327 327 329 330 328 325 324 323 321 323 323 322 321 319 320 319 318 318 317 318 319 319 318 315 312 311 311 311 311 312 313 312 310 306 305 312 314 314
327 328 336 337 331 325 325 327 327 322 320 321 321 321 321 321 321 321 321 320 320 319 318 318 319 318 318 319 317 315 313 311 311 311 311 312 311 309 308 303 305 315 314
328 328 331 334 328 324 325 324 323 323 322 322 321 320 321 321 320 319 319 319 319 319 319 319 319 319 319 318 318 317 316 313 312 311 311 311 311 310 308 306 302 304 305
326 327 332 330 325 323 324 323 323 322 322 319 318 318 317 317 317 317 317 317 317 317 318 319 319 319 320 319 319 318 316 316 314 312 312 311 310 310 309 309 306 303 303
326 326 329 330 323 321 323 324 320 320 319 318 316 316 316 316 316 315 315 315 315 316 316 316 317 316 315 316 318 318 318 317 316 315 313 312 311 310 309 309 308 304 302
326 325 327 325 323 322 323 319 317 316 315 316 315 314 312 313 313 312 312 312 311 312 312 312 311 312 312 314 316 317 316 316 318 318 316 314 312 311 310 309 309 308 304
326 325 324 321 318 317 317 316 315 315 315 314 314 312 312 311 310 310 309 309 310 309 309 310 311 310 309 309 313 314 313 312 314 314 315 316 314 313 311 309 309 309 308
321 320 318 317 315 314 314 314 313 313 312 312 313 313 312 312 311 308 307 307 307 307 307 307 308 308 310 308 309 310 310 310 311 311 312 312 313 313 314 312 309 309 309
318 317 316 315 313 313 312 313 312 313 313 314 314 312 311 309 308 306 306 306 305 306 305 307 306 306 307 308 308 308 306 304 307 308 309 309 309 311 312 312 311 310 309
318 317 316 315 314 313 312 311 312 313 313 311 309 309 307 307 305 304 304 303 304 303 304 305 305 304 306 305 304 303 302 301 301 301 304 301 302 303 305 308 307 308 305
317 316 315 314 313 313 312 312 311 308 308 308 308 307 304 303 303 303 302 302 303 303 303 304 304 304 302 302 301 301 300 300 299 298 299 298 299 299 302 301 305 304 304

GFSSE_925_thetae_003.txt.gz
Theta_e
341 341 341 341 340 340 339 339 338 336 335 334 332 331 333 333 331 329 329 328 328 327 326 325 325 326 326 332 334 331 329 330 331 331 327 325 324 327 329 331 335 330 332
340 341 341 340 339 339 339 338 338 337 336 335 335 335 335 334 332 331 330 329 326 322 319 319 322 324 326 331 334 335 334 329 329 330 328 322 331 326 328 328 331 332 331
339 340 340 340 339 338 338 338 338 339 338 338 337 336 335 334 333 331 328 322 320 319 320 322 325 330 328 328 328 329 329 333 330 328 326 325 328 331 328 326 327 329 330
341 339 340 339 339 339 338 337 337 337 336 336 335 335 334 335 333 328 322 321 317 315 316 318 322 324 325 326 326 327 328 329 332 330 329 328 331 331 326 328 327 326 330
340 339 339 339 341 341 339 337 334 333 333 334 336 335 334 332 327 323 320 315 311 312 314 315 318 320 320 320 321 322 323 326 328 328 328 330 329 329 326 325 330 326 329
340 339 340 341 342 342 341 339 338 337 335 332 331 328 326 324 322 321 319 312 310 311 312 312 313 313 313 312 312 314 320 325 325 327 329 330 328 325 322 325 324 326 330
341 340 341 342 342 341 339 340 337 334 329 326 323 322 322 322 322 321 319 314 310 310 310 310 310 309 309 309 308 308 310 313 320 326 330 330 328 325 321 324 324 327 329
331 335 335 335 333 332 330 328 326 324 323 322 321 320 319 319 319 318 316 310 310 309 310 309 309 308 308 307 306 307 307 310 313 322 329 329 328 327 324 326 328 326 326
325 324 325 323 322 322 323 322 322 320 319 319 319 318 319 325 321 319 317 318 317 309 314 314 314 311 310 309 314 316 317 312 323 326 328 327 328 327 326 326 327 327 327
330 330 328 331 328 322 320 321 319 319 318 319 322 323 328 328 327 324 323 324 322 322 321 319 319 319 317 317 318 317 318 318 321 326 327 326 325 325 324 325 325 325 326
332 331 333 334 334 328 322 323 317 322 326 328 327 330 329 328 327 325 326 326 324 324 322 322 320 321 320 320 318 316 317 318 321 322 324 326 324 323 323 323 324 325 325
331 333 333 331 333 332 327 326 325 330 329 330 329 331 329 327 326 327 327 326 323 323 323 322 321 321 320 320 319 312 314 316 317 318 319 321 320 319 316 318 323 324 324
329 332 331 331 327 330 328 328 328 330 331 330 330 328 328 327 329 325 324 321 319 320 320 320 321 320 320 319 318 313 309 310 313 315 313 319 318 317 315 308 319 323 324
329 333 333 330 330 329 325 328 329 329 330 330 329 329 328 326 324 321 320 317 318 317 318 319 321 319 319 319 316 313 310 309 310 310 311 312 315 315 312 306 313 319 322
330 334 333 328 324 327 329 329 329 329 327 326 327 327 322 324 322 321 320 319 319 319 318 318 317 317 318 318 318 316 311 311 310 309 309 310 312 313 312 310 307 312 319
329 335 334 332 332 328 327 329 329 328 325 324 325 322 319 320 322 321 320 319 319 320 320 319 318 318 319 319 319 318 316 313 312 311 310 310 312 313 312 311 308 308 317
328 335 333 332 331 326 327 327 330 324 321 322 321 321 321 321 321 321 320 320 318 318 319 318 318 318 319 318 319 319 318 317 314 312 311 310 310 312 311 310 309 307 306
327 334 334 328 325 327 326 325 324 322 321 322 320 321 320 317 318 317 316 314 317 317 317 317 316 318 319 319 319 319 319 318 316 315 312 311 310 310 311 310 309 308 305
325 330 334 329 327 324 324 324 323 322 321 319 317 316 315 315 315 314 313 313 313 314 313 314 315 313 312 311 311 313 316 317 318 318 317 314 312 310 310 310 309 308 307
325 327 328 327 324 323 323 322 320 317 315 315 314 313 312 313 313 313 311 312 312 311 311 311 310 311 311 311 311 310 315 314 317 315 317 317 316 314 311 310 309 309 308
326 326 324 322 319 322 319 317 315 314 314 314 312 312 312 312 312 312 311 311 310 310 308 308 308 306 307 308 308 310 310 309 311 311 313 315 316 315 313 311 310 309 308
318 317 316 316 315 315 315 313 313 313 313 312 312 312 312 312 312 310 309 308 307 307 306 306 305 308 307 307 308 309 308 310 310 311 311 311 309 310 311 313 310 309 309
316 315 315 314 314 313 313 313 312 312 312 313 313 313 310 309 308 307 306 305 305 307 306 304 305 305 306 306 308 308 306 306 305 308 307 306 305 304 303 306 310 309 309
316 315 314 313 313 312 311 311 311 312 313 312 309 308 308 305 305 304 304 303 303 304 304 304 303 305 306 306 306 306 303 302 302 301 302 300 301 299 299 300 302 306 307
316 315 314 313 313 312 311 310 311 311 308 307 308 306 304 303 301 302 302 302 302 303 303 302 302 302 303 303 302 302 302 301 300 300 299 298 298 298 298 298 298 300 305
315 315 314 313 312 312 311 311 310 308 307 307 304 304 303 301 301 301 301 302 301 301 301 301 299 301 301 301 300 299 299 299 298 298 296 297 297 297 296 295 297 299 300

GFSSE_925_thetae_006.txt.gz
Theta_e
342 340 341 341 341 340 338 337 335 334 333 331 332 334 333 332 331 330 329 326 324 326 335 333 326 324 330 331 331 331 329 330 335 332 327 323 325 324 325 326 333 330 332
342 340 340 340 339 339 338 337 336 334 333 334 335 334 333 333 332 331 327 320 318 317 319 322 329 325 327 328 328 328 329 330 329 330 329 324 328 328 325 326 326 326 331
341 340 339 339 338 338 337 337 337 337 337 336 335 334 334 333 331 325 320 317 311 311 314 316 320 323 325 326 327 327 328 329 330 328 326 326 329 331 328 326 325 325 328
340 340 339 338 337 337 338 338 338 338 337 335 334 334 333 328 324 320 318 311 308 311 313 314 316 318 319 319 320 322 324 327 329 329 327 327 329 331 327 327 325 324 327
340 339 339 339 338 337 336 335 334 333 333 333 332 328 326 323 321 319 317 310 309 310 311 311 312 312 311 311 312 316 321 323 326 328 327 328 328 327 328 326 325 323 327
340 339 339 340 339 338 335 333 333 334 332 329 325 322 322 321 320 319 317 310 308 309 309 309 309 309 309 309 308 308 310 314 324 326 328 329 328 327 320 322 324 324 328
340 339 340 341 340 339 339 338 335 330 327 323 320 321 321 319 317 317 315 309 308 309 309 309 308 308 308 307 307 307 307 311 314 322 328 330 328 327 326 321 325 324 328
342 341 341 340 339 336 333 330 326 323 321 320 319 319 317 317 314 313 311 313 312 308 312 314 314 311 310 309 311 315 316 313 316 321 328 328 328 327 327 323 326 326 325
339 338 337 333 330 326 324 322 320 319 318 318 318 316 321 321 318 318 319 322 321 321 320 318 318 318 316 315 316 316 317 318 319 324 326 328 328 327 327 325 326 327 327
327 325 325 322 319 319 320 320 318 317 318 319 319 325 324 324 323 324 324 324 322 323 321 321 319 320 319 318 318 315 315 317 320 324 323 325 326 325 324 325 325 325 326
325 324 328 327 323 316 317 317 317 320 323 325 328 328 327 324 325 326 326 325 323 323 322 321 320 319 319 319 318 316 310 314 317 319 318 320 325 324 322 320 321 325 325
332 330 332 330 327 324 322 319 326 325 327 326 329 328 328 326 327 327 326 323 321 321 319 320 320 320 319 318 318 316 312 309 310 314 316 314 318 321 319 317 315 320 324
332 333 332 330 330 327 326 326 328 328 328 327 328 327 328 328 328 324 322 318 317 317 317 318 320 319 318 318 318 317 315 312 310 309 311 314 312 319 318 315 311 311 322
332 332 330 328 330 330 328 328 328 329 330 330 329 328 327 326 323 320 318 318 318 318 318 318 317 317 317 318 318 318 318 316 314 311 309 309 311 311 312 313 311 309 312
332 331 331 328 330 328 326 328 329 329 329 330 329 327 322 323 321 320 320 320 319 320 320 319 318 318 318 318 319 319 319 318 316 315 312 310 309 309 309 309 312 311 308
332 332 331 324 327 328 329 328 328 327 325 327 325 324 319 319 322 321 320 320 317 318 318 318 318 317 316 318 319 319 319 319 318 315 313 311 310 310 310 309 310 310 310
332 333 330 330 330 326 328 329 328 323 324 324 324 322 321 321 321 320 316 313 313 314 315 315 315 317 316 313 311 311 312 313 316 317 315 313 311 310 310 310 310 310 309
333 334 332 324 323 327 327 327 329 321 321 321 321 320 317 317 316 315 314 313 312 312 312 313 312 312 311 310 310 310 309 311 314 314 314 317 316 311 310 310 310 310 310
334 334 331 326 328 325 325 324 322 321 321 318 316 315 314 314 313 313 312 312 312 312 311 310 310 308 307 307 307 306 306 306 306 307 310 312 314 313 312 311 310 310 310
333 331 330 325 325 325 323 323 320 318 315 313 313 313 312 312 311 311 311 310 311 311 309 308 307 307 306 306 305 305 304 304 306 310 310 310 310 312 311 310 310 310 310
328 327 326 327 325 319 316 316 315 314 313 312 312 312 312 312 312 311 309 309 308 307 306 305 306 306 305 304 304 305 305 304 305 305 308 307 304 305 306 307 309 309 308
315 315 315 316 317 315 316 314 313 312 312 312 313 312 311 309 307 307 305 304 304 305 305 304 304 304 305 305 306 306 303 304 304 305 305 304 301 300 298 298 301 305 308
314 314 313 313 314 314 312 312 311 312 312 313 312 310 309 307 305 303 303 302 302 302 303 303 302 302 304 305 306 306 303 303 302 304 302 302 300 299 297 297 297 298 299
313 313 313 313 313 312 312 312 312 312 312 309 307 307 306 304 302 301 301 301 301 302 301 301 301 301 301 302 303 303 302 301 301 301 300 299 299 297 296 296 295 296 299
314 314 313 313 312 312 311 311 311 311 308 307 307 305 303 302 301 300 300 301 301 300 300 299 300 301 300 301 300 300 300 299 299 298 297 296 296 296 295 295 295 297 298
315 314 313 314 313 312 311 311 311 309 307 306 303 302 302 301 300 300 300 300 299 299 298 298 297 297 297 296 297 297 297 298 297 297 296 295 295 295 295 295 295 294 296

GFSSE_925_thetae_009.txt.gz
Theta_e
341 341 341 341 339 337 335 333 333 332 331 333 334 333 332 332 330 327 323 320 321 325 330 333 329 324 326 326 326 329 329 330 334 331 326 321 322 326 327 328 331 331 332
340 341 341 340 339 338 336 334 333 332 333 334 334 333 333 331 327 321 318 315 313 320 322 319 326 324 325 325 326 326 327 330 328 329 329 325 327 329 327 326 327 329 331
340 340 339 339 339 337 336 335 333 334 336 335 334 333 331 326 321 318 313 308 310 315 313 314 317 320 320 322 323 325 326 327 330 329 327 327 327 330 330 329 326 324 328
340 339 339 338 337 337 336 336 336 337 336 334 333 330 325 321 319 317 312 309 310 310 311 311 311 312 312 313 316 320 322 325 327 329 328 328 327 327 327 328 326 324 326
339 338 338 337 337 337 337 337 337 336 333 332 330 324 321 319 318 316 312 308 309 310 310 309 309 309 309 309 310 312 315 321 324 326 327 327 328 328 328 327 325 324 324
339 338 338 337 337 336 336 334 332 332 332 327 322 320 319 319 317 316 312 308 309 309 309 308 308 308 308 307 307 307 308 311 316 324 327 329 328 328 326 322 324 325 326
339 339 339 338 336 334 332 333 333 330 325 320 318 318 318 317 316 313 308 308 308 308 313 313 314 312 311 309 313 315 316 315 313 316 322 328 328 328 326 326 322 325 325
340 341 340 338 337 336 336 332 327 323 320 317 317 316 317 315 313 313 319 319 317 320 318 318 318 317 316 315 316 315 316 317 318 321 324 327 327 328 327 326 325 325 325
344 340 339 339 337 333 329 325 322 319 317 316 316 319 320 318 319 321 323 321 321 321 319 319 317 317 317 317 316 313 310 315 319 321 322 323 325 326 326 325 324 324 325
342 340 337 332 329 325 323 320 318 316 316 318 320 324 324 322 324 324 324 323 322 322 320 319 318 317 316 316 316 315 312 308 313 318 319 318 319 325 324 323 320 320 321
336 330 324 323 321 321 320 318 316 317 319 322 326 326 324 324 325 325 325 324 322 320 319 320 319 318 317 317 317 316 316 313 310 308 310 315 316 320 324 327 320 316 316
331 327 323 322 317 318 316 316 319 323 324 327 328 326 325 326 326 326 324 322 321 319 318 318 319 319 318 317 317 317 317 316 316 314 312 309 313 313 317 322 321 316 308
326 327 327 325 321 320 318 323 325 326 327 326 327 326 327 327 326 323 320 317 318 318 318 318 318 319 319 318 318 318 318 318 317 316 315 314 311 310 311 312 314 315 313
329 330 330 329 325 325 323 326 327 327 327 327 326 325 325 325 323 319 318 318 319 319 319 320 318 318 318 317 318 318 318 318 318 317 316 314 313 311 309 310 314 317 314
331 331 331 330 328 327 327 326 328 328 328 329 328 325 321 322 320 319 320 320 319 317 317 317 317 317 316 315 316 315 315 316 317 318 318 316 314 313 312 311 310 313 317
331 332 331 330 330 329 327 328 328 329 328 329 328 327 325 323 323 321 320 316 313 312 312 312 313 314 315 313 313 312 311 311 313 315 316 316 315 313 311 311 311 310 310
331 332 331 329 329 328 328 328 328 328 325 327 328 328 323 321 321 319 315 314 313 312 312 312 312 312 311 310 309 309 308 308 307 306 308 309 312 314 314 312 310 310 310
331 331 330 329 328 327 328 328 327 324 324 325 325 320 318 317 315 315 313 311 311 311 311 311 310 309 308 307 306 306 305 304 304 304 309 310 310 311 312 313 312 310 310
330 331 330 328 326 326 324 324 321 319 318 318 316 314 314 313 312 311 311 311 310 311 310 307 306 306 306 306 305 304 303 302 302 303 306 307 308 309 308 308 308 311 311
331 330 325 327 326 324 323 320 317 316 314 313 312 312 311 311 311 311 310 309 308 307 306 305 305 304 304 304 303 302 302 301 301 305 305 306 305 304 303 302 302 302 306
329 329 326 324 318 319 315 316 316 313 312 312 312 311 310 310 308 307 306 305 304 303 303 302 302 302 302 303 303 304 302 302 302 304 304 304 302 300 300 300 299 299 299
322 321 319 318 316 318 318 314 313 312 312 312 310 310 309 307 305 305 304 302 301 301 300 301 301 301 301 301 304 304 301 302 303 302 302 301 299 299 299 298 297 297 297
318 315 314 314 315 315 316 312 312 311 312 312 309 308 306 304 303 302 301 300 301 301 300 300 300 301 301 301 301 302 301 300 299 301 299 300 297 297 296 295 295 295 295
311 312 312 312 312 312 312 311 311 311 311 309 307 304 303 302 300 300 300 300 300 299 299 298 298 299 299 299 299 299 299 300 297 297 298 296 297 295 294 295 295 294 296
313 313 313 313 312 312 311 311 311 311 308 306 303 302 303 301 300 300 301 301 300 299 298 298 297 297 297 296 295 295 296 296 298 296 296 295 295 295 294 294 294 294 293
312 311 310 310 311 311 311 310 309 309 306 302 304 305 305 303 304 304 303 299 299 298 297 297 296 294 292 292 292 293 294 295 295 295 295 294 294 294 294 294 294 294 293

GFSSE_925_thetae_012.txt.gz
Theta_e
342 341 339 338 336 334 332 331 330 331 333 334 333 332 331 329 324 319 317 315 315 329 330 320 320 321 322 324 324 326 327 329 333 332 328 323 325 331 327 326 327 328 331
342 341 340 338 336 334 333 332 331 332 334 334 332 332 329 323 319 315 310 310 313 327 327 324 323 323 323 324 325 325 326 328 329 328 328 326 324 326 328 326 326 325 328
341 341 340 338 336 335 333 333 332 334 335 333 332 330 323 319 316 311 309 311 319 326 325 323 316 314 315 316 318 321 324 326 327 329 328 326 326 328 329 329 327 325 325
341 341 339 338 337 335 334 333 334 336 334 332 330 324 319 318 315 311 309 310 310 310 311 311 309 310 310 310 310 312 317 322 324 326 327 327 327 328 330 328 327 327 326
340 339 338 337 336 336 335 336 336 335 332 330 325 320 318 317 315 311 308 309 309 309 308 308 308 307 307 307 307 307 309 310 314 323 326 327 328 328 328 329 323 324 326
339 338 337 337 336 336 336 336 335 331 330 326 320 318 318 316 315 310 307 308 308 312 314 315 314 314 311 310 314 315 316 316 313 314 320 327 328 328 327 328 325 323 326
338 337 337 337 336 336 335 332 331 330 325 319 317 318 316 315 311 309 313 312 317 317 317 317 317 316 315 315 312 312 314 315 317 321 323 327 327 326 326 326 325 323 324
338 338 337 336 335 333 331 332 330 326 320 318 317 315 314 313 314 320 319 319 319 318 317 316 316 316 315 314 315 312 309 312 317 321 323 322 324 326 326 325 324 324 325
339 338 337 336 334 333 333 330 325 322 318 317 315 319 317 315 321 322 320 320 319 318 317 316 316 316 316 316 316 315 314 309 309 311 316 317 319 320 325 325 321 320 318
340 342 341 337 336 334 331 325 321 319 317 317 320 322 321 322 323 323 323 321 320 319 318 318 317 316 316 316 316 316 316 315 314 312 310 309 313 316 321 325 321 318 315
337 341 337 336 333 328 325 321 319 317 317 320 323 324 323 324 324 324 323 321 320 319 318 318 319 318 317 317 317 317 317 317 316 315 314 313 310 311 313 317 320 316 312
337 341 334 330 326 324 321 318 316 317 321 325 325 324 324 325 325 322 321 319 318 318 318 318 318 318 318 318 317 317 318 318 317 317 316 314 312 311 311 313 315 316 312
327 330 326 323 320 318 317 316 320 322 324 327 326 325 326 326 324 319 318 317 318 318 319 319 318 318 318 317 315 315 316 317 318 318 318 317 314 313 312 311 313 316 318
327 326 324 322 319 318 317 320 323 326 325 326 326 325 324 324 322 319 318 318 319 319 318 317 317 317 315 315 314 313 313 314 315 316 317 318 317 315 312 312 317 319 320
327 327 326 325 322 322 320 324 326 326 327 327 327 326 324 325 322 319 320 319 318 315 314 314 313 313 313 313 313 312 310 309 309 310 312 313 314 315 315 315 314 313 316
328 328 329 328 325 324 326 324 326 328 328 328 328 328 327 325 323 320 320 316 312 312 312 311 311 311 311 310 310 308 307 305 304 304 306 307 309 310 313 315 315 314 313
329 330 330 330 330 327 328 327 327 327 328 329 329 329 327 322 321 318 313 311 311 311 311 311 310 309 307 306 306 305 305 304 303 302 303 306 308 309 309 310 312 313 314
328 330 330 330 329 327 326 327 327 327 324 325 324 320 317 316 313 312 311 311 310 310 310 308 306 306 306 304 304 303 303 302 302 301 305 305 305 306 307 307 307 309 311
328 330 329 328 326 323 324 324 320 318 317 315 315 314 312 312 311 311 311 310 309 308 306 305 303 303 302 302 301 301 301 300 300 304 304 304 304 303 303 302 302 302 302
329 329 327 326 325 324 320 318 313 313 313 313 313 312 311 311 311 310 307 306 305 304 303 302 301 300 300 300 299 299 297 300 302 303 303 302 302 301 301 300 299 299 299
326 326 326 326 325 318 315 317 315 313 312 312 311 311 310 308 307 306 304 303 301 301 300 300 299 299 299 300 300 298 298 302 300 300 298 301 300 299 298 297 296 295 296
323 324 324 319 315 317 317 317 315 312 312 311 309 308 305 304 303 302 301 300 300 300 299 298 297 297 298 300 301 301 299 299 301 297 299 297 298 296 296 295 294 294 295
315 316 315 316 315 316 315 311 311 311 311 311 308 304 302 301 301 300 301 303 301 299 299 298 297 297 298 298 300 299 298 297 298 298 297 297 296 295 295 294 293 294 294
312 311 311 311 311 311 311 311 311 310 310 308 305 302 302 302 302 302 303 304 302 300 298 298 297 297 297 297 297 298 296 297 297 296 296 296 295 295 294 293 294 294 293
310 311 311 311 311 311 310 310 310 309 307 304 302 304 305 305 303 302 302 302 300 298 297 297 296 295 294 292 293 293 293 294 295 296 294 293 293 293 293 292 292 294 294
311 311 311 311 311 310 309 308 308 307 306 304 304 304 305 304 303 302 302 300 298 296 295 293 292 291 290 289 289 290 291 292 292 292 292 291 292 291 290 291 292 292 293

GFSSE_925_thetae_015.txt.gz
Theta_e
342 341 337 334 331 330 330 331 332 333 332 331 331 330 328 323 319 317 315 313 316 327 329 329 329 328 324 323 324 325 326 328 328 329 328 327 325 329 328 326 327 331 328
341 341 338 335 332 331 330 330 332 334 334 332 332 328 322 317 314 310 313 318 325 329 329 326 320 318 319 321 322 324 325 325 327 328 327 326 326 328 331 329 327 328 327
341 340 338 335 333 332 331 331 333 335 333 332 328 322 318 315 311 311 312 318 325 325 320 314 310 309 309 309 310 313 317 321 324 326 327 329 329 328 330 329 327 327 326
341 341 338 336 334 333 332 332 335 334 332 329 324 319 317 314 311 310 311 312 312 314 311 308 307 307 307 307 307 308 308 309 314 322 326 328 330 328 329 329 324 324 326
341 340 338 336 335 333 333 334 335 333 330 326 320 318 317 314 310 309 309 309 310 313 314 313 312 309 309 313 314 314 315 314 313 315 322 326 329 329 327 327 327 327 326
340 339 338 337 335 334 334 336 334 330 328 322 319 319 316 314 309 308 308 313 316 316 315 315 314 313 313 311 310 310 313 315 318 321 323 326 327 326 330 327 325 324 325
339 338 337 336 335 335 336 334 330 329 326 320 318 318 316 312 309 312 314 318 316 315 315 315 314 314 314 315 314 309 308 311 318 322 323 321 323 324 327 328 323 323 324
338 338 337 336 336 336 333 331 330 327 320 317 318 316 314 312 319 318 319 319 317 317 316 316 316 315 315 316 316 315 314 312 310 313 315 317 318 318 322 326 322 319 317
338 338 338 337 336 333 331 331 329 323 318 317 317 315 313 320 321 320 320 319 318 318 317 316 316 316 316 316 316 316 315 315 315 314 312 313 312 315 318 321 323 320 315
338 337 336 335 334 332 333 331 325 320 317 317 320 317 318 321 322 321 320 319 318 317 317 317 317 317 316 316 317 317 316 315 316 316 315 312 311 311 318 314 315 317 316
337 336 338 335 334 334 331 327 322 318 317 318 322 321 322 323 323 322 320 319 318 317 317 317 318 318 317 317 317 316 317 317 315 317 317 317 314 312 315 315 314 314 313
337 336 337 340 336 333 329 323 320 318 318 322 323 322 324 324 324 322 321 319 317 317 317 318 318 318 318 317 315 314 314 315 316 317 317 317 317 316 314 317 317 318 318
336 336 337 337 331 328 324 321 319 319 321 325 325 324 325 325 325 321 319 317 318 318 318 318 318 317 316 315 313 312 312 313 315 315 316 316 317 317 316 315 314 315 317
333 332 331 329 327 325 322 320 320 321 324 326 327 326 326 327 323 319 318 319 318 317 315 314 313 313 313 312 311 311 311 310 309 309 310 311 313 314 315 315 315 316 316
331 329 330 328 325 322 322 321 322 325 326 327 327 327 326 325 323 319 319 318 315 312 312 311 311 311 311 310 310 309 307 306 305 307 307 306 307 308 309 311 313 315 316
328 328 328 326 323 323 323 324 324 326 327 327 327 326 327 325 323 320 318 313 311 311 311 311 311 310 309 308 307 306 304 304 304 304 306 304 303 304 306 308 309 310 311
327 328 328 327 326 324 327 326 326 327 327 327 327 326 326 321 320 317 312 312 312 311 310 310 309 307 306 306 305 305 304 304 304 301 303 304 304 303 304 304 305 306 306
327 329 328 328 327 326 323 322 323 324 323 322 322 318 318 315 314 313 311 311 309 308 307 307 306 306 306 305 304 304 304 303 303 304 304 303 303 303 303 304 304 303 303
327 329 328 327 324 324 324 322 323 319 318 317 316 314 312 311 311 310 309 307 306 306 305 304 302 302 304 302 301 302 300 301 303 305 304 303 302 301 301 301 300 300 300
326 327 327 325 324 324 324 322 317 314 313 312 311 311 310 309 308 307 305 304 304 303 302 300 300 301 301 301 299 300 299 300 304 304 302 301 301 300 299 299 299 298 297
326 326 325 325 324 324 318 314 315 315 313 311 310 309 309 307 305 304 303 302 301 301 301 301 300 300 300 300 300 299 299 302 303 301 300 300 299 298 298 297 297 296 296
326 326 325 325 321 317 318 317 315 313 312 310 308 307 305 303 302 301 301 303 303 302 300 299 299 300 300 300 298 298 299 298 299 300 298 299 298 297 297 296 296 295 295
323 323 316 315 315 316 315 313 312 311 310 308 305 304 303 303 304 304 303 303 303 302 301 299 299 299 299 299 299 297 298 298 298 297 297 296 297 296 295 294 294 294 295
313 314 314 312 311 310 310 309 309 310 310 307 304 303 304 304 303 302 302 301 302 299 298 298 297 296 295 294 294 296 295 295 295 295 294 295 294 293 293 293 293 293 294
310 309 309 309 309 309 309 309 309 308 307 305 304 304 304 304 303 302 301 301 301 298 296 294 294 293 292 292 292 292 292 292 292 294 292 292 291 291 291 290 291 292 291
308 309 309 309 307 307 306 305 304 304 304 304 304 304 304 303 303 302 301 300 298 296 294 293 291 292 292 291 290 290 290 290 290 290 291 290 289 289 288 289 289 289 289

GFSSE_925_thetae_018.txt.gz
Theta_e
342 340 332 329 329 329 330 330 330 329 330 330 330 328 323 319 317 314 314 318 325 329 330 327 324 324 323 323 323 324 325 326 327 327 327 326 326 334 331 329 330 332 327
342 340 333 330 330 330 331 332 332 332 332 331 329 323 318 315 312 312 316 321 325 327 323 319 313 310 310 311 313 315 318 321 325 326 326 329 329 332 332 328 327 330 326
343 341 337 331 330 330 331 333 334 333 332 330 324 319 315 312 311 312 315 317 321 323 320 311 308 307 307 307 307 308 308 309 314 323 327 328 330 328 330 328 324 324 325
343 341 339 332 331 330 331 333 334 333 332 327 320 317 314 311 310 313 314 314 313 313 310 308 307 309 312 313 313 313 314 313 311 319 324 330 330 328 326 326 327 325 326
342 342 340 333 331 331 332 334 334 332 328 323 319 317 314 310 310 310 310 313 316 315 315 313 313 313 311 309 309 310 312 315 320 320 322 327 329 328 325 324 327 327 325
341 341 338 334 333 332 333 334 334 331 326 320 319 318 314 309 309 309 316 316 315 315 314 314 313 313 314 312 310 309 309 312 320 321 323 325 328 330 331 324 322 324 325
339 341 338 335 334 333 334 336 333 329 324 320 320 317 314 308 310 315 317 315 315 315 314 314 315 315 316 315 315 314 314 313 315 315 317 320 322 326 331 326 321 318 317
341 341 339 336 334 334 336 335 330 328 322 319 318 317 311 316 316 318 317 317 316 316 316 316 316 316 316 316 316 315 315 315 316 315 314 315 312 322 328 330 324 319 315
341 340 338 337 336 335 336 333 330 324 319 319 318 315 315 320 319 319 318 318 318 317 317 316 316 316 316 316 316 316 316 316 318 317 315 315 312 316 322 323 327 321 315
340 340 339 338 338 337 335 332 328 322 319 318 318 314 319 321 321 320 320 319 319 318 318 317 317 317 317 316 316 316 315 318 318 317 317 316 316 313 319 318 317 319 321
339 339 338 336 336 336 334 333 327 321 319 320 320 318 323 325 326 325 322 318 318 317 317 317 317 318 317 319 317 314 316 316 317 317 317 317 317 317 316 316 315 316 317
338 338 337 337 337 336 332 330 328 325 324 327 327 327 327 328 328 326 322 317 317 317 318 318 318 318 319 317 317 316 316 316 316 316 317 316 316 317 317 317 317 316 317
336 336 336 335 335 333 330 327 324 325 327 329 330 330 330 329 329 326 324 322 323 320 321 320 320 318 318 317 315 316 315 314 314 314 314 310 312 313 316 317 319 319 319
334 334 335 333 335 331 327 325 325 326 329 330 330 331 331 329 328 325 322 323 323 321 319 318 318 318 317 315 315 314 313 312 312 312 314 307 307 309 311 314 314 318 319
330 332 333 332 331 329 327 327 328 330 329 331 331 331 330 329 328 324 324 322 320 318 317 317 317 315 314 313 313 312 311 311 311 311 311 310 305 304 304 306 308 309 312
328 332 332 329 328 327 328 329 329 329 328 327 328 328 326 325 323 325 322 319 318 317 316 315 314 312 312 311 311 311 310 309 309 310 310 310 307 304 303 303 303 304 305
328 331 331 330 328 329 327 324 321 321 325 326 326 326 325 322 321 319 318 317 316 315 314 313 312 311 311 310 310 309 309 309 308 308 309 308 307 306 304 303 303 303 303
329 331 332 330 329 326 325 322 320 320 322 322 322 321 320 317 315 314 316 315 313 312 311 311 310 309 309 308 307 307 307 306 305 307 308 307 306 306 305 303 301 300 300
330 332 332 331 329 326 323 323 323 321 320 317 316 315 314 313 313 314 313 311 310 309 309 308 308 307 307 306 306 305 305 305 305 306 307 306 305 304 303 302 300 299 298
331 332 332 330 328 324 323 324 322 319 316 315 314 313 312 311 310 310 310 309 308 307 307 307 307 307 306 306 305 304 304 303 303 304 306 304 302 302 301 300 299 299 298
331 331 330 327 326 325 324 321 319 319 317 314 312 310 310 309 308 308 307 307 307 307 307 306 306 305 304 304 303 302 301 301 303 303 302 301 302 301 299 299 299 298 297
330 330 329 328 325 323 322 321 321 319 315 312 310 308 308 307 306 306 307 307 306 306 305 306 304 303 302 303 302 302 303 301 300 301 300 299 299 299 299 298 297 296 296
329 329 327 324 322 321 320 318 316 315 313 312 310 309 306 307 306 306 306 305 304 303 302 304 303 302 302 301 299 299 302 301 298 297 298 297 297 297 296 295 295 294 294
325 321 320 319 318 315 314 314 315 315 315 311 308 307 307 307 306 305 304 303 303 302 302 302 300 299 298 298 297 297 297 297 298 298 296 296 294 294 293 293 293 292 293
318 317 315 314 312 313 313 313 313 311 309 308 308 307 307 306 305 304 303 302 302 302 302 301 299 297 297 297 297 295 294 294 293 294 295 294 293 292 291 291 291 291 291
314 314 313 312 312 311 311 310 309 308 307 306 305 303 301 300 300 300 301 302 302 302 301 299 297 297 297 295 293 292 292 292 292 292 293 292 292 291 291 291 290 290 290

GFSSE_925_thetae_021.txt.gz
Theta_e
341 336 328 328 329 329 328 326 326 327 329 330 329 325 321 319 316 318 323 326 330 332 331 329 324 318 315 315 316 318 321 323 324 325 325 329 331 335 331 327 328 332 327
340 336 329 329 328 328 328 329 330 330 331 329 324 320 317 314 314 316 316 317 319 324 320 315 309 307 307 307 308 308 308 311 319 324 325 331 329 330 332 327 323 328 326
341 336 334 330 330 330 331 332 332 332 331 326 320 316 313 312 312 312 312 312 314 317 315 311 308 311 312 313 313 313 313 310 314 324 327 331 331 327 328 327 325 324 328
341 337 336 331 331 331 332 333 333 332 329 322 318 314 311 311 311 311 311 313 317 321 321 315 313 310 309 309 310 311 313 319 320 321 325 325 332 326 324 327 326 325 328
340 339 336 331 331 332 333 334 333 331 325 320 318 314 311 311 311 310 315 318 319 322 318 313 312 312 310 309 309 309 311 320 321 324 325 325 327 329 330 322 327 327 324
340 339 334 331 331 332 334 334 333 329 323 320 318 314 312 312 310 317 317 317 316 316 315 314 315 315 315 314 314 313 313 315 316 317 321 325 326 331 331 324 320 318 318
339 339 333 332 331 332 334 334 332 328 321 320 319 316 310 309 314 317 315 315 315 315 315 316 316 316 315 315 315 314 313 316 318 316 316 320 323 328 331 329 322 319 314
331 337 335 333 333 333 334 334 331 327 321 321 319 314 310 314 318 317 316 316 316 316 316 316 316 316 316 316 315 315 314 316 320 318 317 318 313 322 324 326 326 319 314
331 337 337 335 334 333 335 333 330 324 320 319 317 312 318 318 319 318 317 317 317 317 317 317 317 316 316 315 315 313 315 318 319 318 318 318 314 318 322 322 316 314 314
331 337 337 337 337 338 335 332 327 321 319 318 316 315 320 319 319 319 319 319 319 318 318 318 317 317 316 318 317 315 317 317 318 318 320 318 316 317 319 318 317 316 315
339 339 337 336 335 335 335 331 324 319 318 319 317 319 323 326 326 324 323 318 318 317 317 317 317 317 319 321 318 316 317 317 317 316 319 316 316 317 322 320 317 317 321
338 337 337 336 335 333 330 330 327 323 323 327 327 325 327 328 328 326 322 316 317 317 318 317 317 319 320 319 318 316 317 316 315 315 316 314 313 321 323 322 320 318 317
337 336 335 334 335 330 329 326 324 325 328 330 330 330 329 328 328 327 325 324 324 322 323 321 321 320 320 319 317 317 316 315 313 313 315 313 309 318 320 320 320 320 317
334 336 336 334 334 330 326 325 325 327 329 329 329 331 330 329 328 325 324 324 324 323 322 321 321 320 318 317 316 316 314 313 313 313 314 312 311 305 314 316 315 315 314
331 332 333 332 330 329 326 328 329 329 332 330 331 331 331 330 330 324 325 324 323 322 321 320 319 318 315 315 314 314 313 312 312 311 312 311 310 309 304 306 310 311 311
329 331 330 329 328 327 330 331 332 330 330 329 331 329 326 326 320 320 319 324 322 321 319 318 316 315 315 314 313 312 312 311 311 311 310 311 310 308 306 304 303 304 307
328 331 330 329 328 331 331 326 321 320 320 322 325 326 325 323 322 324 322 321 319 317 316 315 314 313 312 312 311 310 309 309 309 308 308 309 310 308 306 305 303 302 302
329 332 332 330 331 330 325 320 321 321 320 322 323 322 322 322 320 319 319 318 316 314 313 313 312 311 310 310 309 309 308 307 307 307 306 307 309 309 306 305 302 300 301
330 333 334 332 331 328 324 322 321 321 321 321 319 319 319 318 317 317 316 315 313 312 312 311 311 310 310 310 308 307 306 305 306 305 305 306 309 307 305 303 302 300 300
330 333 334 333 330 329 324 324 324 324 323 320 319 317 316 315 314 314 313 312 311 311 311 311 310 310 309 307 305 305 304 304 303 303 305 307 305 303 304 302 301 301 299
333 334 333 331 330 327 328 327 326 321 320 319 316 314 314 312 311 311 311 311 311 310 310 309 309 308 304 303 304 304 303 303 303 303 302 303 303 302 302 301 301 300 299
333 333 332 330 330 329 327 325 322 322 318 316 314 313 312 311 311 310 310 310 309 308 307 305 305 305 303 302 303 303 302 301 301 301 300 300 300 300 299 299 298 297 297
332 332 331 330 328 325 324 322 321 318 316 315 314 313 311 310 310 309 308 308 306 305 303 303 304 304 302 301 301 301 301 301 300 299 298 298 298 298 298 296 296 295 295
331 331 329 326 324 323 319 317 317 317 318 315 313 312 311 310 309 308 306 305 304 303 303 303 302 302 300 300 300 299 299 299 299 298 296 295 296 295 295 294 294 293 293
326 324 323 321 317 316 317 317 316 315 314 312 311 309 307 305 303 302 301 302 304 303 303 302 302 301 299 300 299 298 297 296 295 295 295 294 294 294 293 293 293 293 292
321 319 318 316 316 316 315 314 313 311 309 308 305 303 301 300 299 299 299 299 300 301 302 302 301 300 300 299 296 296 295 294 294 294 294 294 294 293 293 292 292 292 292

GFSSE_925_thetae_024.txt.gz
Theta_e
337 331 332 339 340 339 334 328 327 328 329 329 326 321 317 316 317 320 322 324 325 327 325 323 320 313 308 308 308 309 311 318 322 324 329 333 332 326 325 325 327 325 325
336 330 329 337 339 333 328 327 329 330 330 325 319 316 316 317 318 319 317 318 321 323 322 319 319 314 313 313 312 311 309 313 325 326 329 331 330 328 325 325 324 325 328
336 331 328 330 329 328 328 330 331 330 326 320 315 314 315 315 315 312 312 313 317 321 319 318 312 309 309 310 311 312 316 317 320 321 324 332 331 328 324 326 325 327 330
336 334 329 329 329 330 331 332 332 328 322 317 314 313 313 313 312 312 315 319 322 322 321 313 310 309 309 309 309 313 319 320 321 324 325 331 331 325 322 329 328 324 328
335 336 332 330 331 332 333 333 331 325 320 317 314 312 311 310 311 317 319 320 322 323 319 315 313 313 313 312 312 313 315 316 317 324 325 327 326 331 327 321 319 319 321
337 336 331 331 332 334 334 333 328 322 319 317 314 311 310 309 317 316 317 317 316 314 315 315 314 314 314 313 313 312 315 318 318 321 323 318 314 331 330 324 321 318 314
337 333 331 331 332 334 334 332 326 321 319 317 314 309 308 314 316 315 315 314 315 315 315 315 315 315 315 314 312 315 317 319 321 319 318 312 311 322 325 327 321 317 312
330 331 333 331 333 333 333 331 325 320 319 317 314 308 312 317 316 316 316 316 316 316 316 316 316 316 315 314 315 316 317 317 318 319 318 314 314 318 323 318 315 313 312
329 334 332 332 333 333 333 330 324 319 318 316 312 314 317 318 317 316 316 316 317 317 317 317 316 315 317 317 316 316 317 317 318 321 320 316 316 316 323 321 317 316 316
334 324 333 334 333 335 331 327 320 317 317 315 312 319 318 318 317 319 324 317 317 317 317 317 316 314 318 320 317 316 317 316 317 319 318 314 314 317 323 321 318 317 318
326 331 333 334 334 332 329 325 319 317 316 313 316 320 323 325 325 327 321 316 316 316 316 316 315 318 320 321 319 317 317 315 315 315 316 314 313 316 324 323 321 320 319
328 334 333 333 334 334 329 326 319 317 325 324 320 326 329 327 327 324 321 316 320 320 320 321 322 321 321 320 318 317 316 315 314 315 315 314 312 314 322 321 321 319 318
332 334 334 334 333 331 327 327 324 325 329 330 329 329 328 328 327 327 327 325 324 324 324 322 322 321 319 318 317 316 315 314 313 313 313 313 312 310 312 316 317 316 313
336 336 333 331 330 327 326 325 325 328 330 330 330 330 328 328 328 325 324 325 324 323 322 322 321 319 317 315 315 314 314 313 312 312 313 313 311 310 309 308 311 312 312
335 334 332 332 330 326 326 327 329 330 328 329 332 330 332 330 328 323 321 319 323 322 321 319 318 316 315 315 314 313 312 312 311 311 311 311 311 310 307 306 306 308 309
334 333 332 331 329 328 329 330 329 328 327 328 329 330 326 326 321 319 321 323 321 321 318 316 315 314 313 312 312 311 310 310 309 309 309 309 309 309 306 305 306 306 305
332 331 331 330 327 331 332 329 324 320 320 320 321 324 326 325 322 323 323 320 319 318 315 314 313 312 311 311 310 310 309 309 307 307 308 307 308 309 307 306 303 302 303
331 330 330 328 330 332 329 321 321 321 321 321 321 322 322 323 323 320 320 318 317 314 313 313 312 311 311 311 311 309 309 307 306 305 306 304 306 309 308 306 303 301 301
332 331 330 330 332 329 324 321 321 322 322 321 320 320 319 318 318 317 316 315 312 312 312 312 312 311 311 310 308 306 306 305 305 304 303 303 304 308 306 305 303 302 301
333 333 331 333 329 328 322 322 323 325 325 321 320 318 317 315 315 315 314 312 312 312 311 310 310 309 309 306 304 303 305 304 303 302 304 304 304 303 302 302 301 301 300
335 335 333 332 330 328 324 325 327 325 322 320 317 316 314 313 312 311 312 311 311 310 309 307 306 306 306 304 303 304 303 302 301 300 300 299 299 300 300 300 299 298 297
335 335 333 331 329 328 328 328 326 322 321 317 315 314 312 312 311 311 310 310 309 308 306 304 303 304 305 303 302 301 301 301 301 300 299 299 298 297 299 298 298 296 295
335 334 331 331 330 330 329 325 321 318 316 315 314 312 312 311 311 310 309 307 306 305 304 304 303 303 303 301 301 301 300 299 300 299 298 297 296 296 295 296 295 295 294
332 332 331 330 329 326 324 322 320 318 317 315 313 313 312 311 309 306 304 303 304 305 305 304 303 303 302 301 300 300 299 298 296 296 296 295 294 294 294 294 293 293 293
331 331 331 328 324 322 319 319 318 316 314 313 311 308 307 303 301 300 300 299 299 299 301 303 303 302 301 300 300 299 297 297 296 295 293 294 293 293 293 293 293 292 292
329 326 324 321 318 318 318 317 315 312 310 307 303 302 301 300 299 299 299 299 299 300 300 302 302 301 300 300 300 297 296 296 295 294 292 293 293 293 293 292 292 292 292

GFSSE_925_thetae_027.txt.gz
Theta_e
337 341 342 340 338 337 330 328 328 329 329 322 316 314 314 316 317 318 319 319 318 319 316 312 310 310 310 310 309 308 314 323 325 329 330 329 332 330 324 324 324 327 326
334 341 341 339 338 332 329 329 330 329 322 316 315 314 314 315 316 316 315 314 316 322 322 315 310 309 309 310 312 313 316 320 321 325 331 329 332 333 326 324 326 330 328
335 339 340 339 334 329 329 331 329 323 317 315 314 314 314 313 312 312 313 312 315 320 318 313 309 309 310 311 317 319 317 317 319 327 331 331 329 329 331 324 324 328 329
331 333 338 335 328 329 331 331 326 319 316 314 314 312 312 312 314 316 317 316 319 324 322 318 313 312 312 312 313 315 317 320 324 329 330 328 326 324 322 320 319 320 323
334 334 332 328 329 332 332 329 322 319 315 313 311 311 311 317 318 316 317 319 321 321 318 313 313 313 312 313 313 316 319 320 325 324 322 312 313 328 328 321 320 316 313
334 329 329 330 332 333 332 326 321 318 315 313 311 310 315 316 315 315 316 315 316 314 314 314 313 312 313 315 317 317 318 318 321 319 314 312 312 322 325 321 317 315 313
333 332 332 333 333 333 330 324 320 318 315 311 309 309 316 314 314 313 313 314 314 314 314 314 313 315 316 316 317 317 316 317 319 316 314 314 315 319 318 314 314 314 313
333 332 332 333 333 333 328 322 318 317 314 310 308 314 315 313 314 314 314 314 314 315 315 315 314 317 317 316 316 316 317 317 319 318 316 316 316 320 317 317 317 317 316
332 331 332 333 333 332 327 320 317 317 314 309 311 316 315 314 314 314 315 315 315 315 315 315 314 315 319 317 316 317 316 315 318 318 315 314 314 315 315 319 320 320 321
331 328 325 331 333 331 326 319 317 316 313 311 317 316 315 314 315 317 314 315 315 315 315 315 316 318 320 320 319 317 316 315 316 315 314 314 317 317 312 316 321 321 320
329 329 327 332 331 329 323 317 315 314 312 317 317 319 324 320 325 324 314 314 315 315 318 321 321 320 320 319 317 317 316 315 314 314 313 313 315 316 311 312 316 318 318
326 330 331 330 331 326 320 315 315 315 313 320 326 327 328 327 327 322 318 317 323 320 321 322 322 321 319 317 316 316 315 314 313 312 312 313 312 318 314 310 309 310 311
326 332 331 331 330 323 320 315 325 326 325 324 327 328 326 327 322 322 323 322 325 323 323 322 321 318 315 315 315 314 314 313 312 312 311 313 311 313 315 314 313 312 311
328 333 331 333 331 325 323 324 326 329 330 329 330 329 328 328 328 325 324 320 324 323 320 318 317 316 315 314 313 313 311 311 311 311 311 311 310 310 312 313 312 312 310
333 334 333 332 327 327 327 325 327 330 330 330 330 330 330 329 327 323 320 319 321 320 320 318 315 314 314 312 311 310 310 309 309 307 309 309 309 308 309 311 310 309 307
333 331 331 329 326 327 329 329 329 329 329 330 330 329 330 326 324 319 320 323 320 320 317 315 313 312 311 311 310 310 310 309 308 307 305 307 307 308 308 307 306 306 305
331 330 333 327 328 329 329 328 328 326 323 320 320 321 325 325 322 322 321 319 319 315 313 313 312 311 311 311 310 310 308 308 307 306 305 303 303 307 308 305 304 305 303
330 329 331 328 331 330 329 327 321 320 320 320 320 321 323 323 323 320 320 318 316 313 312 312 311 311 311 310 309 307 305 304 304 304 304 302 303 305 308 304 302 302 302
329 331 329 327 332 330 328 321 321 322 321 320 320 319 319 318 317 317 316 316 311 311 312 311 311 309 308 308 305 303 302 304 303 303 301 302 302 302 306 304 301 301 301
330 329 328 330 332 330 323 321 323 324 324 320 319 317 316 315 315 314 313 311 312 311 310 309 307 306 305 305 304 303 303 302 301 301 300 299 298 298 300 300 299 299 299
330 329 330 330 331 328 320 322 325 325 321 321 317 315 314 312 312 311 311 311 310 309 308 306 304 303 303 304 303 300 300 300 300 300 299 298 297 296 296 296 296 296 296
331 331 332 331 329 326 320 323 326 322 321 316 316 314 312 311 311 310 310 310 309 308 305 304 304 303 303 303 301 300 298 299 299 299 298 298 296 294 294 294 294 295 294
333 331 331 331 329 328 326 326 326 322 316 315 314 312 312 311 311 310 308 307 306 305 305 304 303 304 302 302 301 300 297 297 296 297 296 296 294 293 293 293 293 293 293
333 332 331 330 329 327 327 328 324 317 314 314 313 312 311 310 308 303 301 300 300 300 300 302 303 302 302 301 300 299 299 297 294 293 295 294 293 293 292 292 292 292 292
333 331 330 328 328 329 329 321 318 316 314 314 312 309 305 304 302 301 300 299 299 298 299 299 301 302 302 300 300 300 299 296 296 293 290 292 293 293 293 293 292 291 291
331 330 330 329 323 319 321 319 317 314 311 307 305 305 302 301 299 299 298 298 297 298 299 300 301 301 301 300 300 298 297 295 294 293 290 291 292 293 292 292 292 291 291

GFSSE_925_thetae_030.txt.gz
Theta_e
342 341 339 338 336 331 329 329 329 324 317 313 312 310 311 311 313 315 315 318 321 324 323 313 311 310 311 314 316 319 320 323 330 329 330 332 333 332 325 329 329 328 329
342 342 340 338 335 329 329 330 326 318 314 313 312 311 311 312 313 314 316 321 320 320 312 309 309 312 316 316 315 318 318 319 323 331 328 327 331 331 330 325 329 330 330
344 341 339 337 331 328 330 328 321 316 314 313 312 311 312 311 311 312 316 316 317 317 312 312 312 312 313 314 318 320 320 326 328 330 328 322 323 326 323 320 321 325 329
342 340 338 334 328 329 330 324 318 316 314 313 312 311 313 315 315 314 313 313 313 313 313 312 313 314 314 316 317 321 323 328 329 328 319 315 317 325 319 319 318 316 314
341 339 336 329 327 330 328 321 317 316 314 312 312 314 317 317 314 312 312 313 313 313 312 312 315 316 317 317 316 318 324 323 321 315 317 316 319 325 321 313 313 312 311
339 337 331 328 331 331 325 318 315 314 313 312 311 317 321 316 313 312 312 313 313 313 313 315 316 316 317 316 316 316 318 319 314 313 315 314 316 322 319 314 315 315 316
338 332 329 331 332 329 321 317 315 313 311 310 314 315 313 313 312 312 313 313 313 313 313 317 317 316 316 316 317 315 316 318 316 316 316 315 318 322 321 316 316 316 317
333 332 333 333 332 325 321 318 315 312 309 310 315 313 312 312 313 313 313 314 314 314 314 314 319 318 316 317 317 315 314 318 318 316 315 316 318 323 323 319 319 320 320
333 334 333 332 329 323 319 317 315 312 308 312 314 312 313 313 313 313 314 314 315 315 314 314 318 320 319 317 317 316 315 315 318 314 315 318 319 321 316 315 320 323 323
330 326 326 326 328 328 320 318 315 311 308 315 315 313 313 313 313 313 314 315 315 314 318 319 318 320 319 318 317 316 315 314 313 313 313 317 320 322 319 311 313 316 320
327 325 322 319 329 324 319 317 315 310 315 316 315 314 316 316 320 314 314 314 315 317 320 320 320 320 319 317 316 316 315 314 313 312 312 314 317 320 316 311 309 309 311
327 325 324 325 330 325 319 317 314 311 317 316 320 320 325 326 323 316 315 316 318 318 322 321 321 319 316 316 315 314 314 313 312 312 311 312 313 318 317 312 311 309 308
328 324 327 330 330 322 316 316 313 313 320 323 325 327 326 326 326 323 318 321 324 323 322 320 317 315 315 314 314 313 312 311 311 311 310 312 311 315 316 314 312 311 307
328 324 328 331 328 320 314 317 315 315 320 324 327 327 328 325 326 324 323 323 323 320 318 317 316 315 313 312 311 310 310 309 308 307 309 310 310 310 312 314 312 310 307
330 329 329 330 327 320 317 325 326 325 324 330 330 329 328 327 324 321 320 320 320 320 319 317 315 314 313 312 311 310 309 309 308 307 305 306 309 309 311 312 312 310 308
330 331 330 330 325 324 322 324 326 328 329 330 330 329 329 328 325 320 321 320 319 318 316 314 313 312 311 311 310 310 309 307 307 306 304 303 303 306 308 311 308 308 306
332 332 332 331 328 326 325 326 330 331 330 330 329 328 329 325 321 321 321 320 317 314 313 312 312 311 311 310 309 309 306 304 303 304 304 303 302 305 308 308 305 306 305
333 332 329 330 328 328 328 329 328 326 324 320 320 322 324 325 323 322 319 317 313 312 312 311 311 311 310 308 307 306 305 303 302 301 301 300 301 307 306 303 304 304 303
332 331 328 329 329 329 328 326 322 320 320 320 321 321 322 322 320 319 317 312 311 311 311 310 310 308 306 305 304 303 302 302 301 300 299 298 297 299 305 304 301 300 301
329 331 329 328 329 328 327 322 321 322 320 319 318 318 318 316 316 314 311 311 311 311 310 310 307 304 303 303 303 302 301 301 299 299 299 298 296 297 297 296 296 297 296
329 331 329 328 330 328 324 321 323 324 320 319 317 316 315 314 313 312 311 311 311 310 308 305 303 303 302 303 303 302 301 300 299 298 298 297 296 294 294 294 293 295 294
329 329 328 327 330 328 325 321 323 324 320 319 317 314 313 311 311 311 310 310 308 306 304 304 304 303 303 302 301 299 296 298 298 298 297 296 294 294 293 293 293 293 293
328 329 328 328 330 329 326 321 325 323 320 314 313 312 311 311 311 310 309 307 306 305 304 304 304 303 303 302 301 300 296 295 295 297 296 294 294 294 293 292 292 292 292
329 329 328 328 329 329 325 321 325 321 314 314 313 312 311 310 309 308 306 303 301 299 298 299 300 301 302 302 300 299 299 297 293 292 294 294 293 293 293 292 292 292 291
330 330 329 329 329 328 324 323 326 321 315 314 312 311 310 309 305 302 300 299 298 297 297 298 299 300 302 301 300 299 299 298 296 293 290 292 293 293 293 292 292 291 291
330 330 330 330 329 328 327 325 327 322 315 313 311 311 306 300 299 298 298 298 297 296 297 298 299 300 300 300 299 299 298 296 294 293 289 290 291 292 292 292 291 290 290

GFSSE_925_thetae_033.txt.gz
Theta_e
342 341 337 334 330 326 328 327 322 316 313 312 310 310 310 310 310 311 316 320 323 324 323 323 324 319 316 317 318 319 324 328 328 323 327 331 330 330 330 330 328 330 331
345 340 337 333 328 327 328 325 318 314 312 312 311 310 310 311 313 317 316 315 317 322 323 324 321 317 319 319 319 321 323 329 328 318 318 327 328 327 324 318 322 329 330
345 340 337 333 327 327 328 322 315 313 315 314 311 311 312 312 313 311 309 310 313 322 323 321 317 317 319 320 320 325 326 330 327 319 317 319 325 327 325 322 319 321 326
343 339 336 330 328 329 326 318 315 317 315 311 310 311 312 314 311 310 311 312 313 316 321 320 317 316 317 324 326 327 327 326 317 316 317 319 323 323 319 315 317 318 316
340 339 334 329 328 328 322 316 314 313 311 311 311 316 314 314 312 312 312 312 313 315 316 316 315 316 316 317 320 321 321 314 315 316 318 319 321 324 319 314 315 314 313
340 338 334 329 329 326 319 315 313 312 311 313 316 319 316 313 313 313 312 312 314 316 315 316 316 316 316 315 316 318 316 314 316 317 318 322 324 325 324 318 319 324 323
339 337 330 330 329 323 316 314 313 311 311 315 317 315 312 313 313 313 313 313 315 317 317 316 316 317 316 315 314 317 316 317 316 314 315 319 324 325 325 324 322 323 324
337 334 330 331 327 319 316 315 312 312 312 315 313 312 313 313 313 313 313 313 314 315 319 318 316 317 317 316 316 315 317 317 314 314 315 318 321 324 325 322 320 322 323
333 331 331 330 322 319 317 316 312 311 311 314 314 312 312 313 313 313 314 314 314 314 317 320 319 318 317 317 316 316 314 314 313 313 315 317 320 323 323 319 315 317 321
330 330 328 324 321 317 316 315 311 308 313 313 312 312 313 313 314 314 314 314 315 316 317 319 320 319 318 316 316 315 314 314 313 312 313 319 321 321 320 312 310 309 312
325 324 324 325 324 321 318 314 311 308 314 313 313 313 314 314 314 315 315 315 318 318 319 320 320 319 316 316 315 314 314 313 312 311 311 312 316 319 317 312 310 309 309
321 321 322 320 323 322 318 316 311 312 317 314 314 314 316 319 315 315 315 316 317 320 321 321 320 317 316 315 314 313 312 312 311 311 311 313 316 318 318 313 309 308 307
323 323 321 324 328 325 322 318 312 316 317 316 316 322 324 324 319 316 318 320 321 322 322 321 316 315 314 313 312 311 310 309 308 308 311 311 313 315 317 316 314 310 308
327 325 322 323 330 325 321 317 313 318 317 321 323 324 325 325 323 322 323 324 323 321 319 316 315 313 312 310 310 309 309 308 307 306 306 308 309 313 314 315 314 311 310
326 325 324 328 331 324 319 317 314 318 322 324 326 326 326 325 326 323 322 322 320 319 317 315 313 312 311 310 310 309 308 307 306 305 305 304 305 306 312 314 313 310 309
327 326 329 330 331 324 318 317 315 318 322 329 329 327 327 325 323 321 320 319 319 317 315 313 312 311 310 310 309 308 306 304 303 303 303 303 303 304 309 312 310 309 307
325 326 328 329 330 326 317 323 323 324 327 330 329 328 327 325 324 321 320 319 316 313 312 312 311 310 310 309 308 306 305 302 301 301 301 301 302 305 310 309 306 306 305
329 329 329 330 330 325 319 323 325 328 329 329 329 329 328 324 321 320 318 315 313 312 311 311 310 309 308 306 304 304 302 301 300 299 299 299 300 307 307 304 304 304 304
330 330 330 330 330 326 326 326 329 330 329 324 322 322 325 324 322 319 317 314 312 311 310 310 308 307 303 302 303 302 302 301 300 299 298 298 298 304 304 300 301 299 299
330 332 332 331 331 327 328 328 325 322 320 320 320 321 322 322 320 317 313 312 311 311 310 308 306 303 302 302 302 302 302 300 299 299 298 297 296 296 297 296 295 296 297
332 331 329 329 328 328 326 323 321 321 320 319 319 319 317 317 315 314 312 311 310 309 307 304 303 303 302 302 302 301 301 299 298 298 297 296 295 294 294 294 293 294 294
332 330 329 328 328 328 326 323 321 322 320 318 317 315 315 314 313 312 311 310 308 306 304 304 303 303 302 302 301 299 295 298 299 298 297 296 295 293 293 293 292 292 292
329 329 330 328 328 327 326 322 322 323 320 318 315 314 312 311 310 310 309 307 306 304 302 300 300 302 302 301 301 301 296 295 295 298 296 296 293 293 294 293 292 292 291
327 328 329 328 328 328 326 322 323 324 318 318 316 313 311 310 310 309 307 304 300 299 298 298 298 299 301 301 300 299 299 297 293 293 296 294 293 293 293 293 292 292 291
327 327 328 328 327 327 327 323 323 322 319 316 312 311 310 309 308 304 300 298 297 297 296 296 297 299 300 301 300 299 299 298 296 293 290 292 293 293 293 293 292 292 290
327 327 328 327 326 326 327 323 322 322 317 314 311 310 308 304 300 298 298 297 296 296 295 295 297 299 300 299 299 298 298 297 295 293 290 290 290 293 293 292 292 291 290

GFSSE_925_thetae_036.txt.gz
Theta_e
342 339 333 329 328 327 325 322 319 318 316 314 312 313 315 314 313 317 319 321 323 325 325 324 320 319 319 320 324 328 327 318 319 326 327 328 327 326 325 323 327 329 331
341 339 334 329 328 326 321 317 314 313 311 311 312 311 311 313 317 319 320 322 325 326 325 325 320 318 319 320 322 329 325 315 317 320 325 327 327 326 323 319 319 328 330
342 338 333 328 327 326 320 315 313 311 310 311 311 310 315 317 316 318 322 325 325 325 326 323 321 320 319 324 324 328 321 316 316 319 321 323 324 323 322 322 321 323 325
341 338 332 328 327 325 318 314 311 310 310 309 310 310 314 313 314 318 323 324 324 324 323 318 322 325 326 325 325 322 314 316 316 316 318 320 323 324 324 323 323 322 322
340 337 332 329 328 323 316 313 311 312 309 310 311 313 312 315 318 318 320 323 323 320 318 315 316 318 320 321 322 314 315 316 316 317 320 322 323 325 325 324 321 321 322
339 337 331 330 327 321 316 312 310 309 311 313 315 319 318 320 316 315 317 319 321 317 316 316 315 315 317 318 317 315 316 316 315 317 319 324 324 325 325 325 325 325 324
339 336 332 330 325 320 316 312 312 312 313 319 318 320 319 316 314 314 316 316 316 316 316 316 316 315 314 317 317 317 315 314 314 315 319 323 325 324 324 323 323 323 324
338 336 332 330 325 321 319 312 313 314 318 319 319 316 316 314 313 313 316 317 317 317 317 316 316 316 316 316 315 316 314 313 312 312 313 318 322 323 322 322 322 322 322
336 334 332 327 322 317 314 314 314 316 319 315 314 313 314 313 313 313 314 314 317 319 319 318 317 317 317 316 315 314 314 313 312 312 312 313 317 321 320 317 314 315 319
332 332 330 324 317 320 318 314 316 314 318 315 312 314 313 313 314 314 315 315 316 318 319 318 318 317 316 316 315 314 313 313 312 312 313 318 321 320 318 311 309 311 313
327 324 320 319 319 319 316 315 315 316 312 311 313 313 313 314 315 315 315 316 318 318 320 320 318 316 316 314 314 313 313 312 311 311 314 317 318 319 318 316 310 309 310
324 322 321 321 321 319 316 316 314 313 312 313 314 314 314 314 315 315 316 317 319 320 320 320 317 316 314 314 313 312 311 310 310 310 313 314 317 318 318 316 313 313 313
321 322 322 321 318 317 318 313 309 316 314 314 314 314 316 315 315 316 317 318 321 322 321 317 315 315 314 312 310 309 308 307 307 308 311 311 312 314 317 316 314 313 312
321 321 322 321 320 325 320 314 311 316 315 315 316 317 323 320 317 317 321 323 322 318 318 316 315 312 311 310 309 309 308 307 306 306 306 306 308 311 313 315 314 312 311
324 322 321 323 327 325 319 317 313 317 317 316 319 323 325 325 322 322 324 322 320 317 316 314 312 311 311 310 309 308 307 306 305 304 304 304 304 305 311 314 313 311 309
325 321 321 324 328 327 322 319 315 318 318 321 324 326 326 324 324 323 322 320 318 316 314 313 312 311 310 309 308 306 304 303 302 302 302 302 302 304 308 312 311 309 308
326 325 323 322 329 329 323 319 315 318 321 326 327 326 326 324 323 320 319 318 317 315 314 312 311 310 310 308 306 303 302 301 300 300 300 301 301 306 310 308 308 306 306
325 323 323 327 330 330 324 318 315 318 324 329 328 327 325 324 321 320 319 318 315 313 312 311 310 309 307 304 302 301 301 300 299 299 299 299 301 307 307 305 305 305 304
325 325 326 328 329 329 326 319 323 324 327 329 328 327 326 324 321 320 319 316 313 312 310 309 308 306 303 301 301 302 301 300 298 298 298 298 299 305 304 302 303 301 299
325 328 328 329 329 329 326 320 324 328 329 329 327 325 325 324 321 318 315 313 311 310 309 308 304 302 301 301 301 302 301 299 298 297 297 297 296 296 296 297 296 295 297
325 329 329 329 329 330 326 326 328 328 325 322 320 320 321 322 320 316 313 310 309 309 306 303 303 302 301 301 301 300 299 298 298 297 296 296 295 294 294 294 293 293 295
326 328 331 330 330 330 327 327 326 325 322 320 320 319 319 319 316 312 311 309 308 305 304 303 302 302 301 301 300 298 295 297 298 298 297 296 296 295 293 293 293 292 292
327 328 331 331 329 329 327 326 324 321 320 319 318 316 315 314 311 310 309 308 305 303 299 298 298 299 300 300 300 300 296 296 295 297 298 296 296 293 293 293 292 292 292
328 329 330 330 329 327 326 326 323 322 320 318 317 314 312 311 310 309 308 304 300 298 296 296 296 297 298 300 300 300 299 297 295 294 296 296 295 293 293 292 292 292 291
329 329 329 330 330 326 326 326 322 322 320 318 316 312 310 309 308 306 302 299 297 296 296 295 295 295 297 299 300 299 299 298 297 293 292 292 294 294 294 293 293 292 290
329 328 328 328 328 327 326 325 323 322 320 318 314 310 308 307 303 300 298 297 299 297 295 294 294 295 298 299 298 298 298 297 296 294 289 290 291 293 294 294 293 291 290

GFSSE_925_thetae_039.txt.gz
Theta_e
340 338 328 327 327 330 335 335 334 330 327 326 319 313 312 316 318 317 316 316 321 327 328 327 325 327 331 332 323 314 317 322 327 328 328 327 326 324 321 321 329 330 331
340 338 333 327 327 327 326 326 326 324 320 314 310 311 316 317 318 318 318 323 326 328 327 321 321 322 326 326 316 314 314 314 314 317 324 324 324 323 323 321 324 328 330
340 338 336 328 326 324 321 319 316 314 311 310 312 316 319 319 320 323 326 325 326 327 326 321 320 322 323 323 316 316 317 316 316 316 321 320 323 324 324 324 323 325 326
339 338 335 328 325 321 318 319 319 322 313 311 310 316 317 320 325 325 324 323 322 322 322 322 324 323 324 322 315 316 316 316 317 321 321 322 323 326 325 325 324 323 323
339 338 336 328 327 324 321 318 315 311 310 319 310 316 316 321 323 323 320 318 318 319 322 323 324 322 322 316 315 316 315 315 316 322 322 322 323 325 325 325 325 325 325
338 337 333 329 324 318 316 318 318 311 313 318 316 318 320 323 325 323 318 318 317 316 316 317 318 320 318 315 316 315 315 315 320 321 322 323 323 324 324 324 324 324 325
338 335 332 329 321 318 316 312 313 312 316 315 317 318 320 321 322 321 318 317 317 315 315 315 316 318 316 317 316 314 314 313 320 319 320 321 322 323 322 322 322 322 322
337 334 333 329 330 325 315 312 311 314 319 314 320 319 316 317 317 317 317 316 316 316 316 316 315 315 315 316 315 313 313 312 318 318 318 319 321 321 320 319 319 320 320
336 334 331 327 324 326 316 314 315 322 316 320 321 315 314 316 317 317 317 317 317 317 316 317 317 316 315 315 314 313 313 312 318 317 317 318 320 319 318 317 317 317 318
332 332 328 324 317 315 319 318 316 316 319 318 314 314 313 313 314 315 316 318 319 318 318 318 317 316 315 314 314 313 312 312 318 318 318 318 320 319 317 315 315 316 316
324 321 320 316 319 320 324 318 319 317 320 316 314 314 313 315 315 315 316 317 318 319 318 318 317 316 315 314 313 313 312 312 315 317 317 318 319 319 317 316 315 315 314
319 319 316 318 316 312 316 319 319 321 319 314 313 313 314 315 316 316 317 318 318 320 319 317 316 315 314 313 312 311 310 310 310 311 316 315 317 319 318 316 315 313 313
320 319 319 320 319 320 315 313 313 317 316 313 313 314 315 315 316 316 317 319 320 321 318 316 315 314 313 311 310 310 309 308 307 308 310 310 313 315 318 316 314 313 312
320 320 319 316 314 317 318 314 319 317 313 313 314 314 315 315 316 317 319 321 322 320 318 315 313 311 310 310 310 309 308 306 305 305 305 305 307 310 313 316 314 312 311
321 321 319 319 319 321 323 316 317 315 314 314 314 318 318 317 316 318 322 321 318 317 315 314 312 311 311 310 308 307 307 305 302 302 303 303 303 304 307 314 314 311 310
321 321 322 320 319 325 323 318 314 317 315 315 319 322 324 323 321 322 323 320 318 315 314 314 313 312 310 309 308 306 303 300 300 300 301 302 301 302 305 311 313 311 309
323 322 321 321 326 328 324 320 313 317 317 317 321 325 326 323 323 323 321 318 316 315 314 313 311 310 309 307 304 301 300 300 301 301 301 301 305 303 309 311 310 308 308
325 323 322 324 325 329 326 319 315 316 318 321 324 325 326 324 323 321 318 317 316 314 313 311 310 308 306 304 302 301 301 301 300 299 299 301 303 305 307 307 307 305 305
327 325 324 325 323 329 328 320 317 315 321 327 328 327 324 322 321 319 318 317 314 312 311 310 308 306 303 303 302 301 301 300 298 298 298 298 302 304 303 303 304 304 302
326 326 326 324 325 329 329 322 319 317 323 328 328 326 324 323 321 320 317 315 313 311 309 308 305 301 301 301 301 301 300 299 298 297 297 297 296 296 296 296 296 297 296
325 326 327 328 328 329 328 322 323 324 326 328 327 326 325 323 322 318 315 313 310 309 308 303 302 301 301 299 302 302 301 299 298 297 296 296 295 296 295 294 295 295 295
325 326 328 328 328 329 328 324 323 324 326 327 324 321 321 322 320 316 314 311 309 308 304 303 300 301 302 300 301 301 302 300 299 298 297 296 296 296 294 293 293 294 293
326 326 328 329 328 328 328 325 324 325 325 320 319 319 319 319 316 313 311 310 308 305 302 299 297 298 301 300 300 301 301 301 300 299 298 296 296 296 294 293 293 293 292
326 326 326 328 330 329 328 326 325 324 323 319 317 316 315 314 312 311 310 308 306 301 298 295 296 298 299 301 300 300 300 300 300 300 298 297 297 295 295 294 293 293 292
327 327 327 327 328 328 329 326 324 323 321 319 318 314 313 311 310 310 308 306 302 298 297 296 296 297 297 296 299 300 300 299 298 298 298 297 295 295 295 294 294 293 291
329 328 328 328 327 327 326 325 325 323 321 319 317 312 311 310 309 307 305 302 299 299 296 297 301 296 296 298 299 299 298 298 298 297 297 296 296 295 294 293 293 293 291

GFSSE_925_thetae_042.txt.gz
Theta_e
341 337 338 341 342 342 340 336 335 334 332 329 329 327 324 321 320 319 319 323 328 332 333 334 336 335 328 323 316 317 320 324 323 320 323 325 325 325 325 327 329 331 331
340 336 338 342 342 341 337 336 336 332 329 328 322 318 316 316 315 316 321 323 326 331 331 331 334 332 323 316 316 316 316 317 321 323 322 323 325 325 324 323 325 327 329
340 335 336 340 341 340 337 337 332 329 326 317 315 314 313 315 320 321 321 325 325 327 330 331 333 332 321 316 315 315 314 316 320 321 321 321 322 326 326 325 324 325 326
340 336 334 332 335 336 334 331 328 324 316 314 313 316 316 321 321 321 321 323 328 331 332 332 332 326 316 316 315 315 315 319 321 321 321 322 322 325 326 326 326 325 324
340 337 335 331 329 329 327 324 321 316 316 315 318 321 321 322 320 320 322 327 332 334 335 330 325 318 316 316 315 314 315 320 321 321 321 322 322 323 325 325 325 325 324
339 337 335 329 326 321 318 319 321 323 318 319 323 321 322 321 320 320 322 324 326 327 326 323 321 315 316 315 314 314 316 320 320 320 321 321 321 323 323 323 323 323 323
338 337 334 330 324 323 326 327 324 320 318 319 324 325 322 320 319 319 319 317 318 318 319 320 316 316 316 314 314 313 315 318 318 318 320 320 321 321 320 320 319 320 321
337 336 334 331 329 330 329 325 321 321 316 322 324 323 320 320 319 318 317 315 315 316 317 317 316 317 315 314 313 312 313 317 317 317 319 319 320 320 319 318 319 319 319
336 334 331 329 328 328 328 324 318 321 321 322 321 321 319 319 317 317 316 316 316 316 316 316 316 316 314 314 313 312 312 316 318 319 318 318 319 318 317 317 317 317 318
334 331 329 326 324 325 325 321 320 320 321 317 317 319 318 317 317 316 317 316 316 316 316 316 316 315 314 314 314 313 313 317 318 318 318 317 320 318 316 316 316 316 316
328 327 324 320 314 315 321 328 323 321 319 316 316 317 318 321 321 321 321 318 318 317 317 317 316 315 314 314 313 313 315 315 316 316 317 318 320 319 317 316 315 315 315
321 320 320 317 318 320 325 326 328 326 323 319 314 318 321 322 321 321 320 319 318 318 317 316 315 314 317 317 314 313 314 314 314 314 315 316 318 320 318 316 315 314 314
317 316 317 314 314 316 321 324 327 326 321 320 320 322 324 323 322 322 321 322 321 319 318 317 316 317 316 315 314 313 312 311 311 310 310 310 313 317 318 316 314 314 313
318 319 314 313 312 315 315 316 317 317 319 321 322 323 323 322 322 322 323 325 322 321 319 318 317 316 315 314 313 312 311 310 309 308 307 305 307 310 315 317 314 313 312
321 320 318 319 317 312 312 315 320 322 321 321 322 322 322 321 322 323 323 323 321 320 318 317 316 315 314 313 312 311 310 307 305 304 305 303 302 304 307 313 315 312 311
319 317 317 316 315 317 320 319 319 320 320 323 321 323 324 322 323 325 324 322 320 319 318 317 316 316 314 312 311 309 306 304 304 304 304 307 302 301 303 310 315 312 310
318 317 317 320 322 322 324 322 319 321 321 321 321 327 326 326 325 325 323 321 319 318 317 317 315 314 312 310 309 306 304 304 303 304 304 305 305 304 308 312 312 310 310
322 323 323 321 323 326 327 324 319 322 321 321 325 328 328 327 326 324 322 320 318 318 317 317 315 313 312 309 306 305 304 303 303 303 304 304 304 305 306 309 308 307 306
324 324 324 324 324 329 328 324 323 322 322 323 327 328 327 325 324 323 321 320 318 318 317 315 313 312 309 307 305 304 304 303 302 301 302 303 303 303 303 303 305 305 305
326 325 324 325 328 329 329 326 322 320 322 327 329 329 327 325 322 322 321 319 318 316 315 313 311 308 307 305 302 303 304 303 302 302 301 300 300 299 299 299 299 299 297
328 326 326 327 328 329 330 327 323 321 324 328 329 330 327 326 323 322 321 318 316 315 314 312 309 308 307 304 305 307 306 304 303 302 301 300 300 299 299 298 298 298 298
328 329 328 327 328 330 330 329 323 324 323 325 327 329 328 326 322 321 319 317 315 314 312 310 308 307 305 304 307 307 311 306 303 302 301 301 300 299 298 297 297 297 297
328 328 328 328 330 330 329 328 325 326 328 328 327 326 325 323 321 319 317 316 314 312 311 309 307 304 307 306 304 305 307 308 304 303 302 301 299 299 298 297 297 297 296
327 327 327 329 330 330 330 329 327 325 325 326 326 324 323 321 319 317 316 314 313 311 309 307 304 305 304 305 303 303 302 302 304 305 302 301 300 299 298 298 297 297 296
327 327 328 328 331 330 330 329 329 328 327 327 326 322 320 318 317 315 314 312 311 309 307 304 304 304 303 302 303 303 303 302 302 302 302 301 299 299 298 297 297 296 296
329 328 328 329 329 331 331 330 330 330 330 327 323 320 318 316 314 312 311 310 309 306 305 304 305 304 305 300 301 301 301 302 301 300 301 300 299 298 297 296 296 296 295

GFSSE_925_thetae_045.txt.gz
Theta_e
341 340 342 344 344 340 337 335 336 336 334 330 327 325 325 324 324 323 322 328 334 335 337 335 330 330 330 329 320 317 319 321 319 316 322 326 326 325 325 327 328 331 329
341 339 342 343 343 341 337 336 337 338 331 328 326 325 324 322 320 319 327 332 334 336 337 333 329 328 326 315 313 316 320 321 323 324 322 326 327 326 325 323 324 327 330
340 339 342 343 342 341 339 337 337 334 329 327 323 320 320 317 316 323 327 330 332 334 335 331 329 327 319 314 313 317 320 321 321 322 322 322 324 327 327 327 327 326 326
339 338 343 342 342 341 339 338 337 330 327 319 315 317 317 316 321 324 326 329 332 333 333 331 328 319 315 314 314 319 321 321 321 322 322 322 322 328 328 326 326 326 324
337 337 341 341 340 340 339 337 331 327 317 314 317 317 321 320 322 326 329 332 333 333 334 331 320 316 315 314 315 320 320 321 322 322 321 322 321 323 323 321 323 324 324
336 335 337 340 339 339 335 331 328 318 314 318 320 320 324 323 325 329 333 334 334 333 334 325 316 316 314 314 314 318 319 319 321 321 322 321 320 321 321 321 322 322 322
337 336 335 337 336 333 330 327 321 315 319 324 324 325 323 323 324 327 330 332 330 328 323 316 316 315 314 313 312 314 317 317 319 321 320 320 320 320 319 319 320 320 321
338 337 335 333 331 329 327 325 319 323 325 327 324 323 323 322 321 321 322 322 322 321 316 316 316 314 314 313 312 313 317 318 319 320 320 319 319 319 318 318 318 319 319
337 335 333 330 331 330 328 328 325 327 329 326 325 322 320 320 318 316 316 316 318 318 316 316 315 314 315 314 313 313 317 319 320 320 319 317 318 317 317 317 317 317 317
335 332 331 330 328 329 327 324 324 328 327 325 321 319 319 318 316 315 315 316 316 316 316 316 315 315 315 315 314 316 317 318 319 319 319 317 319 317 317 316 316 316 316
330 330 326 324 327 326 323 323 326 328 322 320 320 318 318 317 319 321 320 316 316 316 317 316 315 315 315 314 314 315 316 316 316 316 318 319 320 319 317 316 315 315 316
325 325 325 325 324 323 322 326 327 328 324 323 320 320 321 321 323 323 318 317 317 317 317 316 316 317 319 318 316 315 315 315 314 314 314 316 319 320 318 316 315 315 315
321 321 320 318 314 313 312 316 325 325 323 322 319 322 322 323 322 323 322 321 320 317 318 317 317 319 320 318 318 316 314 313 312 311 309 307 314 318 319 317 315 315 314
318 318 319 319 319 321 322 322 324 325 323 321 321 324 324 324 323 323 323 324 323 323 321 321 321 320 319 318 317 314 314 312 309 308 308 304 306 311 316 317 315 314 313
316 315 315 316 317 317 316 316 321 321 318 317 320 324 324 323 323 324 325 326 325 324 323 321 320 319 318 317 315 313 311 308 307 306 309 307 300 303 307 315 316 314 312
315 314 313 315 317 316 316 316 319 317 318 322 323 324 323 323 324 324 325 325 324 323 322 321 320 319 318 315 314 311 308 306 307 306 306 309 307 301 301 306 317 314 312
318 317 317 313 313 313 313 315 316 319 322 323 322 323 325 324 324 326 326 325 324 323 322 321 320 319 316 314 312 309 307 306 306 306 306 307 308 307 300 308 314 314 312
317 315 315 313 312 317 318 318 318 320 321 320 322 325 327 326 326 327 326 325 324 323 322 321 320 319 315 313 310 309 308 307 306 305 306 306 306 307 308 305 310 309 307
319 317 318 318 319 321 321 323 321 320 322 320 321 325 328 329 329 328 326 325 323 322 322 321 319 317 314 311 310 308 308 308 306 304 305 305 305 304 305 305 303 305 306
322 321 320 322 323 325 327 325 323 320 322 321 322 325 328 329 328 327 326 325 323 322 321 320 318 315 312 310 308 307 309 309 307 306 305 304 303 302 302 302 301 302 300
324 325 325 324 323 327 328 325 322 321 321 322 325 326 328 328 327 326 325 325 323 322 321 318 316 313 311 309 309 312 312 310 307 306 305 304 303 302 301 301 300 300 300
326 326 325 325 325 328 328 328 324 322 320 322 325 328 329 329 328 326 326 324 323 321 319 317 314 312 311 309 312 313 315 311 308 307 305 304 304 303 301 301 300 299 299
327 326 326 326 328 328 328 328 327 323 322 322 325 327 329 328 328 326 326 323 322 320 318 316 314 312 310 310 310 310 311 313 308 308 306 305 304 303 302 301 300 299 299
328 328 328 328 328 328 328 329 327 324 325 327 327 328 328 328 328 326 324 322 320 319 317 315 313 311 310 311 309 307 307 307 308 308 307 305 304 303 302 300 300 299 299
329 329 329 329 329 329 330 329 329 327 326 327 327 328 328 327 326 324 322 321 319 318 316 314 310 309 309 309 309 309 307 307 306 306 307 305 304 302 301 300 299 299 298
326 328 330 329 329 329 330 330 330 329 329 328 328 328 327 326 324 322 320 319 317 315 313 312 308 308 307 307 305 305 306 305 306 305 305 304 303 302 301 300 299 298 297

GFSSE_925_thetae_048.txt.gz
Theta_e
341 343 343 344 338 335 333 332 332 331 330 329 328 327 325 324 324 325 330 334 335 334 332 332 331 329 326 323 321 321 321 320 319 319 326 326 326 326 325 328 330 331 331
336 345 343 343 338 335 334 334 333 332 330 327 325 324 323 323 322 326 333 334 336 332 330 329 329 325 314 318 320 321 323 324 324 323 325 327 327 327 327 324 326 329 330
333 342 344 344 339 339 337 336 334 332 328 326 324 322 321 320 323 331 333 334 335 330 330 329 328 321 314 318 320 321 321 322 324 325 323 327 327 326 327 328 325 325 327
338 342 343 343 341 339 339 337 335 330 327 325 322 320 317 321 327 330 332 334 332 330 330 329 324 313 314 319 320 320 321 322 323 323 322 322 324 326 325 325 326 326 324
340 341 340 342 341 339 339 338 333 329 326 321 318 316 318 324 327 329 331 331 332 331 329 327 316 313 315 320 320 321 321 322 321 321 321 321 321 322 322 323 323 323 322
339 339 339 340 340 339 338 336 330 327 320 317 317 317 323 326 327 328 329 331 331 331 328 317 314 313 313 318 318 317 318 321 322 321 320 320 320 320 320 321 321 321 321
339 338 338 330 338 338 337 332 327 321 319 318 323 322 324 328 331 331 332 332 331 325 318 315 314 313 311 312 316 317 318 321 321 320 319 319 320 319 319 320 320 320 320
338 336 339 338 338 337 333 329 322 321 321 322 323 323 326 331 333 333 332 330 327 316 316 314 314 313 312 312 316 318 320 321 321 320 318 318 319 318 318 318 318 318 318
338 337 337 336 335 333 331 327 323 321 322 326 325 324 324 327 328 329 327 323 318 316 316 314 315 315 315 314 317 318 319 320 320 319 317 317 318 318 317 317 317 317 317
336 335 333 332 330 329 328 329 329 329 328 326 323 322 320 319 319 319 320 320 316 316 316 315 316 316 316 315 316 317 317 318 319 319 315 318 318 317 316 316 316 316 316
331 330 328 327 324 323 320 325 326 327 326 325 322 320 317 315 316 317 318 317 316 316 316 316 316 316 317 314 315 316 316 316 317 318 311 318 319 318 317 315 316 316 315
328 328 326 324 321 317 315 318 320 324 326 323 320 318 317 317 323 318 316 316 316 317 316 316 317 317 318 317 316 315 314 314 313 315 309 309 320 319 318 316 315 315 315
322 325 324 320 318 318 318 317 318 318 325 322 319 321 321 323 323 317 316 316 317 316 316 316 318 319 320 318 317 315 314 313 311 311 308 305 315 320 319 316 315 315 314
321 320 321 319 318 320 321 319 318 324 322 320 323 324 324 322 322 319 320 322 318 319 318 319 319 321 319 318 315 315 313 310 307 309 308 306 303 313 319 317 316 315 314
318 319 318 319 315 315 313 315 319 323 321 321 324 322 324 323 324 323 323 324 323 322 321 322 321 320 319 317 314 313 310 307 307 308 309 307 306 302 310 318 316 315 313
316 317 316 317 313 312 318 320 319 319 316 319 318 321 324 323 323 324 326 326 325 325 324 322 320 320 319 316 314 311 308 307 307 306 308 309 307 305 300 308 316 315 313
315 317 318 318 317 318 316 314 317 319 318 319 321 324 323 324 323 325 325 326 325 324 323 322 321 320 318 315 313 309 308 307 307 306 306 308 308 306 302 301 313 315 314
315 316 315 316 316 315 315 317 317 318 319 322 321 323 323 324 324 324 326 326 324 323 322 322 321 320 318 314 312 309 308 308 307 306 306 306 308 308 307 303 307 312 311
316 316 315 316 315 314 316 314 314 315 316 314 315 323 324 323 327 325 327 326 324 323 323 322 321 320 317 314 311 310 308 309 308 307 305 306 305 304 307 305 302 304 306
318 317 315 314 314 315 316 313 314 319 321 322 322 323 326 327 327 328 327 326 324 323 323 322 321 319 316 314 311 308 308 309 309 307 306 305 304 303 303 303 302 302 302
317 317 315 314 316 318 320 319 322 321 322 322 322 321 326 327 328 329 327 326 324 324 323 322 319 317 313 311 309 309 311 310 310 308 306 305 304 303 302 302 301 301 301
320 319 321 320 319 321 321 322 325 323 321 323 323 323 328 327 328 328 327 326 325 324 323 321 319 315 313 311 310 313 313 311 310 309 307 305 304 304 303 302 301 300 300
324 323 323 324 323 324 326 326 327 323 321 320 322 326 327 328 328 328 327 327 325 324 322 320 318 315 313 310 310 312 311 311 308 309 307 306 305 304 304 302 302 300 300
326 326 326 326 325 324 327 328 328 325 324 322 322 327 327 326 328 328 327 326 324 323 322 319 317 314 313 312 311 311 309 308 306 305 308 306 306 305 303 303 301 300 300
328 328 327 326 326 327 327 329 328 327 323 323 322 324 326 328 327 327 327 325 324 322 320 319 316 314 312 311 310 309 309 309 308 307 304 306 306 305 303 303 301 300 299
329 329 328 328 327 329 328 326 329 328 326 326 328 328 328 328 327 327 326 324 322 321 319 318 315 311 310 310 309 308 306 306 306 307 306 305 304 303 302 302 301 300 299

GFSSE_925_thetae_051.txt.gz
Theta_e
340 342 341 339 337 332 329 330 328 328 328 328 325 324 323 322 323 331 333 331 332 332 331 329 324 326 327 327 326 324 323 320 318 326 327 327 326 327 329 330 330 331 331
336 336 342 340 339 334 332 331 329 329 329 327 324 322 322 324 331 334 333 330 331 330 329 325 325 326 323 323 324 324 326 325 324 323 325 326 327 327 326 327 327 329 330
330 332 339 340 339 338 335 332 330 330 327 324 322 322 322 329 333 334 331 328 329 329 327 323 322 320 320 321 322 323 326 325 326 324 325 325 325 326 327 325 325 327 328
327 332 327 340 338 338 335 333 330 328 325 322 321 320 323 330 333 334 329 325 327 327 325 321 317 320 320 321 321 322 322 323 321 321 321 322 324 324 324 324 323 324 324
328 329 337 339 337 338 337 333 330 327 324 321 319 319 326 330 333 333 325 325 327 327 324 315 318 320 320 321 320 320 321 320 320 318 319 319 322 322 321 321 321 322 323
338 338 338 337 338 338 337 333 329 326 321 318 318 322 328 328 330 330 327 326 326 323 315 313 315 319 319 317 318 321 321 320 313 311 317 319 320 321 320 320 321 320 320
342 340 340 339 338 338 337 333 328 322 319 318 320 323 326 328 328 330 330 325 321 314 313 312 312 316 317 317 319 321 320 320 319 310 316 319 319 320 319 319 319 318 318
340 339 338 336 333 330 334 330 323 321 322 321 323 325 327 328 329 330 330 320 316 314 314 313 312 311 315 318 320 319 320 319 319 313 313 318 319 318 318 318 318 317 317
338 337 334 335 334 333 333 327 325 323 322 323 326 327 328 330 330 329 327 317 316 314 314 315 315 313 313 318 319 318 319 318 318 312 312 317 318 317 317 317 317 316 316
337 336 336 335 333 330 326 323 326 326 323 322 325 329 331 332 330 327 322 316 315 315 315 317 316 314 317 317 317 316 318 318 318 312 311 316 318 317 316 316 316 316 315
332 333 333 331 327 326 323 322 329 328 325 324 324 326 329 330 329 324 318 316 316 315 316 317 317 314 315 315 315 315 315 318 317 313 310 316 319 318 316 316 316 315 315
329 328 328 326 323 321 320 317 324 328 325 323 320 320 320 320 321 321 316 316 316 316 316 317 317 315 316 316 315 314 313 314 313 311 308 309 319 319 317 316 316 315 314
327 327 326 323 320 318 326 328 326 325 322 321 317 317 321 318 318 317 316 316 316 316 317 317 317 318 319 316 315 314 310 310 310 309 307 305 316 320 318 316 316 315 314
323 324 322 321 321 323 320 318 318 321 320 319 324 320 323 321 317 316 316 317 317 317 318 317 318 320 318 317 313 312 311 308 308 308 308 305 308 317 319 317 316 315 314
319 320 319 319 319 316 311 312 317 322 320 322 324 322 323 323 319 317 317 318 318 319 319 319 321 319 318 315 314 312 308 307 307 308 307 307 307 303 312 319 317 316 314
319 319 319 318 317 318 320 320 320 321 321 322 323 323 323 323 322 320 322 322 321 321 321 321 320 319 318 315 314 311 307 307 306 306 306 308 307 306 302 309 317 316 314
318 318 318 318 319 318 314 313 313 315 320 321 319 321 324 323 323 325 323 324 324 324 323 322 321 320 318 315 314 310 307 307 307 306 306 307 308 307 305 300 307 317 315
317 315 315 314 315 314 313 315 317 319 317 316 316 320 323 323 324 324 325 325 324 324 323 322 320 320 318 315 313 309 308 307 307 307 306 306 308 307 307 304 305 315 314
317 316 314 313 313 313 316 317 316 317 317 314 319 322 322 323 325 323 325 325 324 324 323 322 321 320 319 316 312 310 308 308 308 307 305 306 306 304 307 306 303 305 309
317 316 316 315 314 316 318 316 314 314 318 317 318 315 321 319 322 326 325 326 326 324 323 322 321 320 319 315 312 311 309 308 309 308 306 305 305 304 303 302 302 301 301
316 316 317 316 316 315 315 315 315 317 317 317 314 316 318 321 322 325 326 326 326 324 323 322 322 320 318 314 312 309 308 308 309 309 307 306 305 303 303 302 302 301 301
317 316 315 315 315 315 318 313 313 315 318 322 320 322 322 323 324 326 325 326 326 324 323 323 322 319 317 312 310 310 309 312 311 310 308 306 305 304 303 303 302 301 300
317 316 314 314 315 314 319 318 315 316 322 321 322 321 322 321 325 325 326 326 326 325 324 323 322 320 316 313 311 312 308 308 307 309 309 308 305 304 304 303 302 301 300
317 318 315 314 314 316 317 319 318 321 323 322 321 322 322 324 327 326 326 326 326 325 324 323 321 319 316 312 309 310 311 309 305 304 308 308 306 305 304 304 303 302 301
319 318 319 317 316 317 318 318 321 324 325 322 321 319 322 326 325 325 325 324 326 326 324 322 320 319 316 314 310 310 310 309 308 306 303 305 306 306 306 305 304 302 301
322 321 321 321 321 321 321 323 326 327 327 323 323 321 323 325 326 325 323 325 326 325 323 322 319 318 316 313 311 309 309 307 307 307 305 304 303 303 303 304 303 303 301

GFSSE_925_thetae_054.txt.gz
Theta_e
344 341 338 336 332 330 329 329 326 323 321 322 325 326 330 334 330 328 328 328 330 329 328 330 330 330 329 329 327 324 322 324 326 327 327 327 329 331 331 330 330 331 331
343 340 335 336 332 332 330 329 327 324 321 324 325 326 331 329 326 325 323 328 328 328 329 331 331 330 330 330 327 325 324 323 324 326 328 327 326 326 329 329 328 330 330
340 338 332 336 338 335 331 330 328 324 321 321 322 325 331 328 324 322 325 327 326 327 329 329 329 328 328 328 329 329 325 324 324 325 325 325 325 325 325 325 326 328 328
334 339 338 331 333 337 332 331 329 325 323 321 323 330 333 329 323 323 323 323 321 325 328 328 328 324 321 325 324 324 321 319 316 319 322 323 323 323 323 324 324 323 323
333 339 339 337 334 334 334 332 329 325 323 322 328 334 333 329 323 323 322 319 318 323 327 327 321 319 317 321 322 322 319 311 311 315 319 321 321 321 321 322 322 322 321
334 333 335 327 327 333 334 331 326 324 324 326 333 333 334 328 322 322 319 315 315 321 322 320 319 317 320 321 320 317 310 309 310 315 319 320 321 321 320 320 319 319 319
331 331 331 332 335 335 335 335 327 325 325 329 332 333 333 325 322 320 316 314 313 314 319 319 317 317 320 321 321 319 316 310 309 313 318 319 320 319 319 319 318 318 317
336 335 336 335 333 335 334 329 330 323 324 328 329 333 332 325 322 320 316 314 313 311 313 315 315 317 318 321 320 319 317 312 311 311 316 318 319 319 318 317 317 317 317
335 337 336 335 336 333 331 328 323 329 328 329 330 330 328 328 323 320 315 314 313 312 312 312 313 318 316 316 318 320 318 314 311 311 313 317 318 318 318 317 317 316 315
335 335 334 330 331 332 330 324 319 327 328 329 330 329 329 329 326 318 315 314 314 316 315 313 315 317 316 315 316 319 318 315 313 311 313 317 318 317 317 316 316 315 314
334 333 333 331 332 328 325 321 316 324 326 329 330 329 330 330 327 317 315 315 315 317 316 314 316 316 315 314 315 318 318 315 312 311 313 317 318 317 317 316 316 315 314
329 330 329 328 325 325 319 321 321 323 326 331 333 331 330 328 324 316 316 315 315 317 317 314 315 315 315 314 313 315 314 312 311 310 311 317 319 318 317 316 315 314 314
328 327 326 325 325 323 319 315 327 325 328 330 332 331 328 326 320 316 316 316 317 316 317 316 316 318 316 314 313 312 311 311 309 307 307 309 318 319 317 316 316 315 314
326 325 324 323 323 323 325 330 327 325 323 323 323 324 323 322 317 316 317 316 318 318 317 317 319 318 316 314 313 312 309 309 308 307 307 306 313 319 318 316 316 315 314
324 323 323 323 328 326 330 328 325 322 318 318 320 317 317 316 316 316 317 318 318 317 317 318 320 318 317 314 313 309 307 307 307 308 307 306 305 311 318 318 317 316 314
322 322 321 322 325 328 327 326 322 320 321 319 322 320 319 317 317 317 317 318 318 318 318 319 320 319 317 314 313 310 307 307 306 306 307 307 305 304 303 313 318 317 315
320 320 321 321 318 319 319 323 323 320 323 321 322 322 320 320 318 317 317 318 319 320 320 320 321 319 318 316 313 310 307 306 306 305 306 307 307 307 306 303 307 316 316
319 318 318 318 316 314 316 322 321 321 324 323 324 324 324 323 323 322 322 323 322 321 321 321 320 319 319 316 314 310 307 307 307 307 306 306 307 307 307 307 303 314 316
318 318 317 317 317 317 316 320 319 320 321 322 319 319 323 324 324 324 325 324 325 324 323 322 320 320 319 316 314 310 308 307 307 307 307 306 306 306 305 307 305 305 310
316 316 316 317 316 316 314 314 314 317 318 319 317 317 322 323 323 324 324 325 324 324 323 322 321 320 319 319 315 310 308 308 308 308 307 306 305 305 304 304 303 302 302
317 315 316 316 315 315 315 316 316 318 317 318 316 317 318 319 321 323 324 324 324 324 323 322 321 321 320 319 313 310 309 308 308 308 307 306 305 305 304 303 303 302 302
316 315 315 315 314 315 316 316 316 314 316 315 316 316 316 313 314 316 320 324 324 324 324 323 322 321 320 316 312 309 310 310 309 308 308 307 306 305 304 303 303 302 301
315 316 315 315 314 316 318 316 315 314 316 316 317 318 315 317 319 320 323 323 325 325 325 323 322 322 320 315 311 312 309 310 307 309 309 308 306 305 305 303 303 302 301
316 315 316 316 314 315 316 316 313 314 315 317 320 321 320 320 321 321 323 324 324 324 326 325 323 322 321 316 311 310 311 310 307 307 307 308 308 307 305 304 303 303 302
317 315 315 316 315 315 315 318 315 314 315 317 321 323 320 320 320 322 323 325 325 323 324 325 323 322 321 319 315 309 308 309 309 306 305 306 307 308 306 305 304 303 303
317 316 314 314 315 315 314 317 318 316 316 319 322 323 322 320 321 323 324 325 325 324 324 325 323 322 320 317 314 311 311 309 308 308 304 305 304 305 305 304 304 303 303

GFSSE_925_thetae_057.txt.gz
Theta_e
342 335 338 340 340 338 337 329 325 333 336 335 332 330 331 330 329 328 328 329 327 330 331 331 330 328 328 328 329 329 327 325 325 327 329 329 330 331 331 330 330 331 331
341 334 337 335 333 333 332 329 325 324 328 328 327 327 326 325 326 327 327 327 330 331 331 331 330 330 329 328 328 327 327 327 327 327 326 326 328 329 330 329 328 329 329
341 340 335 329 329 332 333 330 325 324 324 334 334 329 327 328 328 328 326 329 331 331 331 331 331 331 330 329 326 325 322 323 324 325 324 324 325 325 327 327 325 326 328
340 335 330 327 328 328 328 333 327 329 334 334 333 332 331 328 326 324 325 329 331 330 330 330 329 329 328 327 322 320 322 322 322 322 322 323 323 324 323 323 322 322 322
339 335 331 330 326 325 326 330 328 328 332 334 332 332 331 326 324 322 325 329 330 330 329 327 325 323 324 323 319 312 311 313 316 318 320 321 322 322 323 321 321 321 319
333 337 333 331 325 326 332 333 324 323 331 334 332 331 327 322 320 319 325 328 329 328 327 323 318 321 323 320 311 309 309 311 314 318 320 321 320 321 320 319 319 318 318
333 335 337 330 331 333 332 329 324 329 331 332 333 329 324 322 317 316 323 326 327 326 319 319 320 321 319 313 313 309 310 310 314 317 319 319 320 320 319 318 318 317 317
331 336 337 335 334 333 333 332 329 330 329 332 333 330 326 321 316 316 319 322 321 318 316 319 321 320 320 318 315 312 312 310 312 316 319 319 319 319 318 317 317 316 316
333 333 333 332 332 331 327 325 321 326 329 331 332 329 325 321 317 314 314 316 317 315 316 317 319 321 320 319 318 315 313 312 312 315 318 319 319 318 318 317 316 315 314
334 333 334 335 334 329 326 323 317 326 330 330 331 327 325 320 315 313 312 311 311 312 315 315 315 316 317 319 318 316 314 312 311 313 316 318 318 318 317 316 315 314 314
334 334 333 332 329 328 326 322 317 326 329 330 331 327 324 321 315 313 313 314 313 313 315 314 314 315 317 318 318 316 314 311 311 313 316 318 318 317 317 316 315 314 313
332 331 331 330 329 326 323 319 318 323 327 331 331 331 325 320 315 314 315 316 315 314 315 314 315 314 315 316 317 315 312 311 310 312 315 317 318 318 316 316 314 313 312
330 329 328 329 327 322 316 322 321 321 322 325 328 329 328 320 316 315 315 317 316 314 315 315 316 315 314 314 315 313 311 310 309 309 313 317 319 318 317 316 315 315 314
327 327 326 326 323 320 316 313 319 326 324 325 326 329 328 319 316 315 316 317 317 315 315 317 319 316 314 312 311 311 310 309 307 307 309 311 317 318 317 317 315 315 314
325 325 325 324 322 322 321 320 326 325 314 325 328 329 325 317 316 316 316 317 317 317 318 319 318 316 315 312 311 310 308 308 307 307 306 307 313 319 317 316 316 316 315
323 324 325 324 323 320 319 323 327 326 327 329 329 327 321 316 316 317 317 317 317 318 319 319 320 318 317 313 311 308 307 307 306 307 306 307 306 306 316 318 318 317 316
323 322 324 323 323 323 327 327 325 325 326 327 326 323 317 316 316 318 317 317 317 318 318 319 320 318 316 314 312 310 307 307 306 305 306 307 307 306 304 306 317 318 316
321 321 322 323 322 324 324 325 322 320 319 320 318 318 316 316 316 317 317 317 318 318 318 319 320 319 317 316 314 311 308 307 307 307 307 306 307 307 306 306 306 309 317
320 320 320 322 318 325 322 323 321 323 321 322 320 318 318 317 317 316 318 320 319 320 319 319 320 319 319 317 315 313 308 307 307 307 307 307 307 306 306 306 305 304 308
319 319 319 318 316 318 322 321 321 322 322 322 321 321 323 322 324 323 324 324 324 323 322 321 321 319 319 319 316 314 309 307 306 307 307 307 306 306 306 305 304 304 303
317 318 318 318 316 316 319 320 321 320 321 320 319 320 322 322 323 324 324 323 324 324 324 324 322 320 319 318 316 313 311 307 307 307 307 306 307 306 306 305 304 303 303
316 316 317 317 316 316 315 317 316 318 319 319 318 317 319 320 321 322 323 324 324 324 323 323 322 320 319 319 316 309 306 308 307 307 307 306 306 306 305 305 304 303 303
317 316 316 316 316 315 315 315 315 316 317 317 317 317 317 317 316 314 316 319 321 324 323 323 322 320 320 319 316 314 310 311 308 309 308 307 306 305 305 305 304 303 302
316 316 315 315 316 315 315 316 315 315 315 315 316 316 316 316 316 315 319 320 321 323 324 324 324 323 321 319 311 310 311 311 309 310 308 310 308 307 307 305 304 303 303
316 316 315 315 315 315 315 316 316 315 314 314 315 315 314 315 316 316 317 320 321 322 323 324 324 323 321 319 316 311 309 308 309 309 306 307 309 309 307 307 305 303 303
316 315 315 316 315 315 314 315 317 316 315 314 314 316 316 317 318 317 318 319 320 322 324 324 324 324 323 322 318 317 314 311 309 308 306 306 305 306 306 306 305 305 304

GFSSE_925_thetae_060.txt.gz
Theta_e
340 336 330 330 331 332 332 340 338 336 336 336 334 331 327 333 335 335 334 333 332 331 332 331 330 330 330 329 328 328 329 329 328 328 330 331 331 331 331 329 328 331 331
340 339 338 337 334 331 331 336 335 330 336 334 333 332 335 334 333 332 331 330 330 330 330 329 329 328 328 328 329 328 324 325 326 327 327 330 330 329 330 328 327 327 328
340 339 339 336 335 331 332 338 336 333 336 335 335 333 330 329 330 330 331 332 331 331 331 330 329 328 327 327 327 327 326 324 323 324 324 325 326 327 325 324 327 327 327
339 339 336 333 332 330 325 332 335 336 336 332 331 329 329 330 330 332 332 331 331 330 331 330 331 329 327 322 321 322 322 323 323 322 324 323 323 323 321 322 322 322 322
339 337 333 331 329 327 326 324 331 334 333 326 327 330 331 331 332 332 331 330 330 331 331 331 331 328 320 317 319 319 318 318 318 319 321 321 322 322 322 320 320 321 320
339 335 329 329 329 327 326 327 331 328 328 326 329 329 330 331 332 331 330 330 330 329 330 329 328 322 314 310 311 312 314 316 319 321 320 320 320 320 320 319 319 318 318
337 333 329 327 326 325 324 328 327 333 334 332 329 329 330 330 332 331 330 329 326 324 322 325 322 315 310 310 310 311 312 315 318 319 320 320 320 320 319 318 318 317 317
333 336 334 330 328 326 330 331 329 328 331 330 328 328 329 330 331 331 329 326 319 318 319 321 319 313 311 312 311 310 310 313 315 319 319 319 319 319 318 317 317 316 316
330 333 335 335 328 333 332 326 324 325 326 329 326 328 328 328 329 329 325 318 318 320 320 320 318 317 314 314 313 312 312 313 316 318 319 319 319 318 317 316 315 315 314
331 332 336 333 333 332 331 325 322 328 329 330 326 327 326 326 326 325 320 316 318 321 321 320 319 318 317 315 314 312 312 313 316 317 318 319 319 318 317 316 315 314 313
333 333 334 331 330 325 325 323 319 318 325 329 324 325 323 321 322 320 315 315 316 316 318 320 320 319 318 316 314 312 311 312 314 317 318 318 319 318 317 315 315 314 313
332 333 332 329 325 323 323 322 319 319 319 323 323 324 321 318 314 312 312 314 315 315 315 316 316 318 318 316 314 312 311 311 313 316 318 318 318 318 317 316 315 314 313
330 329 330 327 325 326 323 320 321 325 325 323 325 323 319 316 313 314 314 315 314 315 315 315 316 317 317 316 314 312 310 309 312 315 317 318 319 318 317 315 315 314 312
328 328 328 328 328 325 321 324 323 320 321 324 321 323 319 315 315 315 314 314 314 315 316 314 314 314 315 314 313 311 310 308 309 312 317 318 318 318 317 317 316 315 313
327 326 326 325 325 322 318 319 321 324 321 322 322 323 318 314 315 316 316 314 314 315 317 317 314 313 313 312 311 310 309 308 308 309 310 314 317 318 317 318 315 316 315
325 325 323 322 321 319 319 320 322 322 322 321 321 321 318 315 315 316 317 316 314 316 318 319 316 316 314 312 310 309 308 307 307 306 307 311 313 317 318 318 317 317 316
324 324 323 322 319 318 316 321 325 319 317 324 320 322 319 316 315 316 317 317 317 317 319 320 318 317 315 312 309 308 307 306 306 306 306 306 306 306 312 318 318 318 317
324 323 323 323 321 320 318 323 326 325 322 323 324 324 321 316 316 317 317 318 317 316 318 320 319 317 316 314 312 309 307 306 306 306 306 307 307 307 306 305 311 317 317
322 322 322 323 322 321 320 323 325 325 321 322 323 320 322 316 317 317 317 318 317 316 317 319 320 319 317 316 314 312 309 307 307 307 307 307 307 307 307 306 306 305 311
321 321 321 322 321 322 323 320 322 323 324 325 324 322 320 316 316 317 317 317 317 318 318 319 319 319 318 317 315 313 311 309 307 307 307 307 308 307 306 306 305 305 305
319 319 320 321 319 322 318 321 321 322 321 321 319 319 317 317 316 316 317 321 321 320 320 321 321 320 319 318 317 314 313 309 307 307 306 306 307 307 306 306 305 304 303
318 318 318 318 318 319 320 320 321 322 321 323 322 322 322 321 322 321 322 322 323 322 323 323 323 322 320 318 316 310 308 310 310 308 307 306 306 306 306 305 305 305 303
317 317 318 318 317 319 319 319 319 320 319 321 319 319 315 316 321 321 321 322 323 324 323 323 323 323 321 319 317 316 309 310 308 309 307 307 307 306 306 305 305 305 304
317 317 317 317 317 317 317 317 316 317 318 317 318 319 318 316 318 317 316 316 317 319 321 323 323 322 321 319 315 313 313 311 310 310 307 309 307 307 306 307 306 305 304
317 316 316 316 316 316 315 315 316 315 316 316 317 317 317 317 316 316 317 316 317 320 320 322 323 323 321 320 318 312 309 310 311 310 311 309 307 308 309 310 309 306 304
316 316 315 315 316 315 315 315 314 315 315 315 315 315 316 315 316 315 316 317 317 318 320 321 322 323 322 322 320 318 315 312 309 309 308 308 307 308 307 306 307 306 305

GFSSE_925_thetae_063.txt.gz
Theta_e
340 343 334 333 334 336 341 340 338 338 335 336 334 329 330 335 335 334 335 335 335 335 335 335 333 331 330 331 332 331 329 330 330 331 331 332 332 332 331 331 331 332 331
340 340 335 336 339 338 337 340 339 337 333 333 331 325 333 335 335 334 334 334 333 333 332 331 331 329 328 330 330 328 328 328 329 330 330 331 331 331 330 329 330 330 330
341 340 337 334 335 339 340 340 338 336 335 336 332 324 334 335 334 333 332 331 331 331 330 330 329 329 331 328 326 327 327 326 326 326 327 327 327 328 328 327 327 328 328
340 339 337 332 334 338 339 339 338 336 333 332 329 332 333 333 333 332 331 331 329 329 329 328 328 328 328 327 325 323 323 323 324 323 323 324 323 324 325 324 324 324 324
339 339 339 335 332 332 333 331 338 335 333 331 331 333 331 332 332 332 331 330 329 329 330 329 327 326 325 323 322 321 321 322 322 322 322 322 322 321 322 322 321 321 321
339 338 337 335 331 331 329 339 339 337 334 332 331 330 329 331 330 330 330 330 330 330 330 328 325 320 318 317 317 318 318 320 320 320 321 321 320 321 320 320 320 319 319
338 336 335 334 329 328 331 339 339 336 333 333 330 328 330 330 329 329 330 330 330 330 329 327 317 311 311 311 313 314 317 318 319 320 320 320 320 320 320 319 318 318 317
337 334 334 333 330 331 327 331 335 334 331 329 329 327 329 330 329 329 329 329 329 329 326 315 310 310 309 311 313 314 317 319 319 319 320 320 320 320 319 318 317 317 316
335 334 330 329 328 327 327 328 329 332 332 330 329 328 327 328 329 329 328 325 324 325 318 312 312 312 311 311 312 314 315 318 318 319 319 319 319 319 318 317 316 316 315
331 332 333 329 329 329 330 329 330 330 331 330 329 329 329 327 329 328 323 320 321 322 316 314 314 314 313 312 313 314 315 317 318 319 319 319 319 318 317 317 316 315 314
331 331 332 333 331 331 332 331 331 331 330 330 329 328 329 330 328 325 322 320 321 321 317 316 315 315 314 313 312 312 314 317 318 319 319 319 319 318 317 316 315 314 313
331 332 332 332 330 331 328 324 324 321 320 324 328 328 329 328 325 321 320 321 321 320 319 318 317 315 316 317 313 312 316 317 318 319 319 318 319 318 317 316 315 314 313
328 328 329 325 325 324 323 327 324 326 325 324 328 325 326 326 321 317 317 319 321 320 323 320 317 318 316 316 315 315 313 317 317 318 318 318 319 318 317 316 315 314 312
328 327 325 324 326 326 325 321 321 324 323 325 326 321 323 322 317 316 316 316 316 318 321 322 318 317 314 313 311 310 312 316 317 318 318 318 318 318 317 316 315 314 313
327 326 325 324 325 323 323 322 320 322 322 323 323 322 317 315 313 315 315 315 315 316 316 317 317 316 314 313 311 310 308 310 315 318 318 318 318 318 318 318 317 315 314
327 326 327 325 325 322 322 321 321 322 319 319 322 320 314 312 313 314 314 315 315 314 314 315 314 315 314 312 311 310 308 308 309 311 317 318 318 318 318 318 318 317 316
325 324 324 325 323 320 321 321 323 322 322 322 323 320 314 314 315 314 314 314 315 317 316 314 314 313 312 311 310 309 308 307 307 307 308 313 315 316 317 318 318 319 318
324 323 323 322 320 319 320 321 323 323 322 321 323 321 314 315 316 315 314 314 315 318 317 315 314 314 313 311 309 308 307 306 306 306 306 307 307 309 309 316 317 317 316
323 323 323 321 320 319 318 319 322 322 321 320 319 319 318 315 316 316 316 315 316 318 319 317 318 319 316 312 310 309 307 307 306 306 307 307 307 307 306 306 306 313 316
322 322 322 321 319 320 319 323 321 323 320 322 317 315 320 317 315 316 316 316 317 317 318 319 318 317 316 315 311 311 310 308 307 306 307 307 307 307 307 306 306 307 305
321 321 321 322 321 319 319 321 319 322 320 321 321 316 322 318 316 316 316 317 316 317 317 318 318 318 318 317 315 313 312 310 308 307 307 306 306 307 307 306 307 310 310
319 319 320 321 321 321 320 321 319 320 321 321 321 322 320 320 316 317 317 317 317 317 319 318 318 319 319 318 318 315 319 315 313 311 308 307 306 306 306 307 306 306 305
318 319 319 319 320 321 320 319 320 321 321 322 322 318 316 320 316 316 317 317 318 320 321 320 320 321 321 319 318 320 318 322 315 310 310 308 307 306 306 306 307 306 305
319 319 319 318 318 319 319 318 320 320 319 320 320 320 319 317 318 320 318 318 321 320 322 322 320 322 322 321 316 316 316 316 320 321 311 309 308 307 306 306 308 305 305
317 318 319 318 318 318 320 318 318 320 319 319 320 320 321 319 318 316 316 318 319 318 317 319 321 322 322 321 319 316 314 314 314 316 319 313 312 309 308 307 307 307 305
317 318 318 318 318 317 318 318 317 317 318 318 318 319 318 317 315 315 315 317 317 316 318 319 320 321 322 321 320 318 317 314 314 312 314 315 310 312 312 309 308 309 307

GFSSE_925_thetae_066.txt.gz
Theta_e
343 345 338 336 337 339 338 335 334 332 332 338 339 332 327 326 335 333 332 334 335 335 336 336 335 335 335 335 334 333 332 332 332 332 333 334 334 334 332 332 333 334 332
343 344 337 343 345 345 340 337 335 332 335 339 334 327 326 332 335 334 335 335 335 335 335 333 332 333 333 332 331 331 331 331 331 330 331 333 333 332 331 331 331 332 331
342 342 340 341 344 345 343 338 334 339 338 338 335 333 333 334 334 336 335 334 334 334 334 331 331 332 332 331 329 330 330 330 329 329 328 329 330 330 329 328 328 329 328
342 342 340 340 342 344 342 339 340 340 339 337 333 334 335 336 335 335 333 332 331 331 331 331 329 330 330 328 327 327 327 326 324 325 324 325 327 327 327 326 326 326 325
341 341 340 336 337 343 342 341 340 338 339 335 332 335 335 334 333 333 332 330 330 330 330 329 330 329 327 326 326 325 326 322 323 322 322 322 324 324 324 323 323 323 323
342 339 340 333 333 339 342 341 340 339 337 332 334 335 334 333 332 330 329 329 329 329 329 329 329 326 324 321 321 321 320 321 322 322 321 321 322 322 322 321 321 321 320
343 339 340 334 330 328 335 341 341 339 337 335 334 334 334 333 332 329 329 329 329 329 328 327 325 322 320 319 320 320 320 321 321 321 321 321 321 321 320 319 319 319 318
340 339 338 333 327 325 331 335 339 338 335 333 332 332 332 332 330 329 329 331 331 327 323 321 317 316 315 315 317 318 319 320 321 321 321 321 320 320 320 319 318 318 317
337 338 335 333 331 332 331 333 336 337 334 333 331 331 331 330 329 331 331 332 330 323 311 313 312 312 313 314 315 317 319 320 320 320 320 320 320 320 319 318 317 316 316
335 335 336 335 334 333 332 333 332 335 333 332 332 332 331 328 329 329 329 329 327 315 311 311 311 311 311 312 314 317 318 320 320 320 320 319 320 319 318 317 316 316 315
336 335 335 332 333 334 332 330 330 331 331 331 332 332 329 331 329 328 328 327 321 313 313 313 313 312 312 313 313 315 319 320 321 320 319 319 319 319 318 316 316 315 314
332 332 334 333 331 331 331 332 330 329 329 329 332 328 330 330 329 325 326 324 319 313 314 314 313 313 317 317 316 317 319 320 321 320 320 319 319 318 317 316 315 315 314
331 332 332 332 332 331 331 330 330 331 330 328 327 326 330 328 325 325 326 326 324 317 320 318 317 319 318 317 316 317 319 320 320 320 319 318 318 318 317 316 315 314 313
330 328 327 329 327 328 329 329 329 329 327 325 324 327 329 325 324 325 326 325 324 323 322 321 321 320 319 318 317 317 319 319 320 320 319 318 319 319 317 316 315 314 313
329 327 325 324 325 324 325 325 322 322 321 319 318 322 327 324 323 323 324 325 324 324 324 322 321 320 319 318 317 317 318 319 320 319 319 318 318 318 318 317 316 315 314
328 326 325 324 323 324 324 324 323 322 321 319 319 323 325 322 321 321 322 322 322 324 324 322 320 319 318 318 318 316 316 318 319 320 319 318 318 318 319 319 318 316 315
327 327 325 325 324 323 325 323 323 324 322 324 323 324 323 321 320 321 320 320 320 321 321 320 319 318 317 317 317 316 315 316 316 317 318 319 318 318 318 318 319 319 317
325 326 325 324 324 322 322 322 322 322 323 320 323 322 322 321 320 319 319 319 320 319 319 319 319 319 318 317 315 314 313 313 313 314 314 316 317 317 317 318 318 318 318
327 325 324 322 323 322 321 323 323 320 321 319 320 322 320 318 315 317 318 319 321 320 319 318 318 318 317 316 315 313 312 311 311 310 311 311 312 312 314 314 317 317 317
323 324 323 322 321 322 322 322 323 322 320 319 321 322 320 318 318 318 319 320 320 322 321 320 320 320 319 318 315 314 313 312 312 311 310 311 311 311 311 311 310 312 315
322 323 322 321 319 322 322 322 322 322 322 319 322 322 321 321 320 320 320 320 320 322 323 322 322 321 320 319 318 317 315 313 312 312 311 311 311 311 312 312 312 312 311
322 322 322 321 322 321 320 320 321 322 322 320 319 318 320 321 316 317 321 319 320 321 322 323 323 322 322 320 322 322 324 320 316 314 313 312 311 311 311 311 311 312 312
322 322 322 321 321 322 321 322 320 321 319 321 320 318 318 321 316 315 318 320 322 322 322 322 323 323 323 323 322 322 324 324 323 320 317 315 312 311 310 310 310 308 307
321 322 323 321 321 321 320 321 319 319 318 322 321 319 320 320 319 316 319 322 323 320 323 323 324 323 323 323 322 322 323 322 322 322 318 317 315 311 309 307 308 307 308
322 321 323 322 320 320 320 320 319 318 318 320 322 321 320 321 319 317 317 319 318 319 320 322 323 324 324 321 322 322 322 322 322 322 323 321 315 312 309 315 314 308 307
321 322 322 322 321 319 320 320 319 320 320 321 321 322 320 320 318 317 317 318 318 318 319 321 319 320 322 324 322 324 323 323 322 322 321 322 320 312 315 315 312 310 308

GFSSE_925_thetae_069.txt.gz
Theta_e
342 347 337 342 344 340 337 333 332 333 333 334 336 331 335 336 333 332 332 334 335 336 339 338 337 337 337 336 333 331 332 333 333 334 334 335 335 335 333 333 333 335 333
342 347 335 339 345 344 341 338 335 333 334 337 336 332 335 336 333 331 333 336 336 337 337 337 337 336 335 334 333 332 332 332 332 332 332 334 335 333 332 332 332 332 331
343 347 339 338 343 345 343 341 340 334 336 336 336 334 335 335 334 335 335 336 335 335 335 335 335 335 334 332 331 331 330 330 330 331 331 332 332 332 331 329 329 330 329
343 345 342 340 342 345 343 342 341 340 339 336 333 334 335 335 335 336 335 335 334 333 334 334 334 333 331 330 330 329 326 326 327 327 327 329 329 329 329 328 327 326 326
343 343 342 340 343 344 343 342 341 340 338 336 331 332 335 335 336 335 334 333 333 331 331 332 333 331 329 328 327 325 325 325 324 325 325 326 327 326 326 326 325 324 324
343 343 341 340 340 340 343 342 340 340 338 335 331 333 335 335 335 333 332 331 331 331 332 330 330 328 327 326 326 321 322 323 323 323 324 324 324 324 324 323 322 322 321
345 341 341 339 338 337 336 338 338 340 338 334 333 335 336 335 333 332 330 330 329 330 330 329 328 325 326 325 323 321 322 322 322 322 323 322 322 322 321 321 320 320 319
343 343 341 339 334 333 333 326 324 337 337 335 335 335 334 333 331 329 329 329 329 327 327 327 324 321 320 319 319 321 321 322 322 322 322 321 321 321 320 320 319 319 318
340 343 341 341 336 332 328 324 324 330 336 336 335 334 333 331 328 328 329 329 326 325 325 320 319 318 317 318 319 320 321 322 322 321 321 321 321 320 319 319 318 317 317
340 339 342 340 336 332 328 325 329 334 334 334 335 334 333 330 328 331 332 328 320 318 314 314 314 314 315 316 319 320 321 321 321 321 321 320 320 319 319 318 317 316 316
338 337 339 339 337 335 334 334 332 328 334 333 334 332 331 332 331 331 331 326 311 311 311 312 312 314 315 315 318 320 321 321 321 320 320 320 320 319 318 317 316 316 315
336 337 336 336 337 337 334 334 332 332 332 333 332 330 331 330 331 331 331 323 311 311 311 311 311 312 315 316 319 319 322 322 321 321 320 320 320 319 317 317 316 315 314
332 333 335 335 336 334 334 333 332 332 332 331 329 330 331 329 328 330 329 319 316 314 319 317 313 319 317 316 320 321 322 322 322 321 319 319 320 319 317 316 316 314 313
332 332 333 333 333 333 334 332 332 331 331 330 327 324 326 325 327 328 328 322 320 321 320 319 320 320 319 317 319 321 322 321 321 321 319 318 318 319 318 317 316 314 314
331 331 330 327 329 329 328 330 331 330 329 324 324 323 320 323 325 327 327 324 322 323 322 320 322 321 320 319 319 321 321 322 322 321 320 319 318 318 318 317 316 315 314
331 330 327 325 325 327 327 327 329 329 328 325 321 320 322 324 325 326 326 326 323 324 323 322 322 321 319 319 318 319 320 321 321 321 320 319 318 318 319 318 317 316 315
330 329 326 324 324 324 325 325 326 326 324 322 323 323 323 322 325 325 326 325 324 324 323 323 322 320 319 319 318 318 319 320 320 321 320 319 319 318 318 319 319 318 317
329 328 326 324 323 324 324 323 323 323 322 322 319 320 322 324 323 324 324 324 324 325 324 322 321 319 319 319 318 317 316 317 318 319 320 321 319 319 318 318 318 318 318
327 326 325 324 324 324 323 323 323 322 321 319 318 321 323 324 323 322 322 322 323 323 322 321 320 319 320 319 317 316 315 315 315 315 316 318 319 319 318 317 317 318 318
327 325 324 323 323 323 323 323 323 322 323 322 318 322 323 323 323 322 322 322 322 321 321 320 320 321 321 320 318 316 315 315 314 313 313 313 314 314 315 317 316 316 317
324 324 324 323 322 322 323 324 322 322 321 322 320 321 319 322 321 320 320 319 321 321 321 321 322 322 322 320 318 318 318 316 316 315 314 314 314 314 313 314 313 314 314
325 324 324 323 322 322 324 324 323 321 321 319 315 320 321 320 320 318 319 320 320 323 324 323 323 324 323 322 321 321 323 320 318 317 317 315 314 314 314 314 314 313 314
324 325 325 324 323 323 324 323 322 322 321 320 320 321 322 322 322 320 321 322 321 322 325 325 325 325 324 324 323 323 325 325 324 321 318 317 316 315 314 313 313 312 313
324 325 325 324 324 322 323 323 322 323 323 321 319 321 321 323 321 321 323 320 322 322 324 325 325 325 323 322 324 324 324 325 326 324 322 320 319 316 315 314 312 312 311
324 324 324 324 324 324 324 323 322 321 322 322 320 320 320 320 322 320 321 319 318 324 324 324 324 324 324 321 321 324 324 323 323 324 324 321 320 319 317 315 312 310 309
326 324 325 323 323 323 324 323 321 321 322 320 322 321 321 321 322 321 317 316 318 320 323 320 321 321 321 321 321 322 323 323 322 323 325 324 324 320 318 315 311 310 316

GFSSE_925_thetae_072.txt.gz
Theta_e
348 344 339 342 342 340 339 336 335 334 334 334 331 329 330 331 332 331 328 327 331 335 338 338 337 338 337 337 333 331 331 332 333 334 335 335 336 335 334 333 333 333 333
348 345 337 341 343 341 341 341 338 336 335 334 331 332 332 333 333 330 331 333 336 338 338 338 338 337 336 334 331 331 332 332 333 334 334 334 335 335 333 332 332 332 332
349 347 337 338 344 342 340 341 341 335 335 335 332 333 334 333 332 335 335 336 336 337 338 337 337 335 334 331 331 331 330 331 332 332 331 331 332 332 331 330 330 331 330
345 347 342 338 343 345 341 340 340 339 339 336 333 333 331 332 333 335 336 336 335 336 337 336 336 334 331 330 329 329 328 328 329 329 330 330 330 330 330 330 329 329 328
343 344 344 339 341 345 344 341 340 339 339 337 333 333 332 332 335 335 335 334 333 334 335 334 333 331 330 328 325 326 327 328 327 328 327 326 327 328 327 326 326 324 324
344 343 344 342 339 342 344 343 340 338 338 337 331 334 333 334 336 335 334 333 332 333 333 333 332 330 329 325 325 325 325 326 325 325 325 325 325 326 325 324 323 322 322
344 342 343 341 340 341 343 342 340 338 336 335 333 336 335 334 335 334 333 331 330 331 332 330 328 327 326 323 322 323 322 323 323 323 323 323 323 323 322 322 321 321 320
343 345 342 341 339 337 338 337 334 333 333 335 334 336 336 335 334 332 331 330 331 329 328 329 327 326 325 320 322 322 322 323 323 322 322 321 322 321 321 320 319 319 319
341 344 342 341 336 336 336 330 329 326 324 333 335 336 335 334 332 331 330 330 330 328 326 324 325 324 319 320 321 321 322 323 322 321 321 321 321 321 320 319 318 318 318
340 340 341 340 339 335 333 330 325 325 324 327 334 336 334 332 330 330 329 328 328 326 323 319 318 316 317 320 321 321 322 321 321 321 321 320 321 320 319 318 317 317 317
336 338 339 338 338 336 333 327 324 324 324 329 336 335 333 330 329 330 328 326 324 322 317 317 314 315 317 320 320 321 322 322 321 320 320 320 320 319 318 318 317 316 316
334 337 337 336 336 335 333 331 326 325 324 329 334 333 333 330 331 330 327 322 319 316 314 312 312 312 316 320 320 321 322 321 320 320 319 320 320 319 318 317 316 316 316
333 333 333 334 335 335 333 333 331 329 324 326 332 331 332 332 330 330 323 316 315 312 312 311 312 314 318 319 320 322 323 321 320 320 319 319 319 319 318 317 316 315 314
332 332 334 333 334 334 333 332 333 331 329 333 331 331 331 330 330 329 321 315 314 314 313 311 316 317 316 320 321 322 323 322 320 319 319 318 319 318 318 317 316 315 314
332 332 332 331 333 334 334 332 333 332 332 331 330 330 329 328 328 326 321 314 319 317 315 315 321 318 317 317 321 322 322 321 321 319 318 318 318 318 318 317 316 315 314
332 331 329 325 326 330 331 332 332 332 330 328 328 326 327 326 321 323 322 319 323 319 317 320 323 320 319 319 321 321 322 321 321 320 319 318 318 318 318 318 317 316 315
332 330 327 325 325 327 328 327 329 328 328 325 323 322 324 321 321 322 323 320 324 321 321 321 321 321 320 319 319 320 321 322 321 321 318 318 318 318 318 318 318 317 317
331 329 326 324 323 325 327 328 327 326 325 324 323 324 320 320 321 322 323 323 324 322 323 324 321 321 320 319 318 319 320 320 322 321 320 318 318 318 319 318 318 318 318
329 328 325 325 323 324 324 325 326 326 324 323 322 319 318 322 323 324 325 325 325 323 325 322 321 320 320 320 318 318 318 318 319 320 321 320 319 318 317 319 318 318 318
328 326 325 324 325 323 324 323 323 323 322 322 322 322 320 319 323 320 324 324 324 325 323 322 321 319 319 319 318 317 316 316 317 317 317 320 320 319 319 318 315 317 318
328 326 325 324 324 324 324 323 323 323 321 321 321 321 318 319 321 324 323 323 323 323 322 321 320 321 322 321 319 316 315 315 315 314 314 314 315 316 318 318 319 315 314
325 325 324 324 324 323 324 323 323 323 322 320 319 319 321 323 323 323 322 323 322 321 320 321 321 322 322 320 319 318 319 318 316 316 315 313 313 313 313 313 316 314 313
324 325 323 324 323 323 324 323 323 322 322 321 319 321 322 322 322 321 321 321 321 321 320 321 322 323 322 322 320 321 322 322 320 318 316 316 315 314 314 314 313 314 313
325 325 325 324 323 323 324 323 322 322 321 319 318 319 317 319 321 321 320 320 318 321 324 324 323 323 324 322 322 323 323 324 322 323 320 318 318 316 315 315 314 313 313
326 325 325 324 324 324 324 323 322 322 321 319 316 316 321 321 322 321 321 322 320 321 323 324 323 323 323 322 321 320 321 321 322 321 320 321 319 319 317 315 315 314 313
326 325 326 325 325 323 324 323 323 323 322 321 318 318 320 322 322 322 322 323 320 320 322 323 322 322 323 321 320 321 320 321 323 323 321 322 321 320 320 318 317 316 314

GFSSE_925_thetae_075.txt.gz
Theta_e
344 343 342 339 336 335 336 334 333 334 333 333 332 333 335 335 335 334 331 326 328 332 338 339 338 338 338 335 331 331 331 333 334 334 335 336 336 335 334 333 333 333 333
345 342 342 340 337 335 335 335 335 334 334 333 332 332 334 333 331 327 325 325 329 335 337 338 337 337 336 330 329 329 330 333 333 334 333 334 335 335 333 332 332 331 331
346 342 341 341 338 336 335 339 338 335 334 331 330 330 332 330 327 328 331 335 336 337 337 336 336 337 334 331 331 332 333 333 333 332 332 333 333 333 332 330 330 331 331
347 344 338 342 341 339 339 338 339 337 335 333 330 329 330 329 329 333 335 336 336 336 337 337 336 335 331 330 330 331 331 331 331 330 331 331 330 331 330 329 329 328 327
346 345 342 338 344 341 339 339 339 339 337 335 330 330 330 330 332 334 335 335 335 336 336 336 335 330 329 330 331 329 329 329 329 328 328 329 329 330 328 328 327 326 325
343 345 344 340 340 345 342 339 338 337 336 334 331 329 330 332 334 334 334 334 334 334 335 334 331 328 327 328 329 330 330 327 326 326 326 326 326 327 326 324 323 322 323
343 343 343 343 339 339 344 341 340 337 336 335 332 330 328 332 335 334 333 332 333 333 332 330 329 326 326 327 328 325 325 326 324 324 324 324 323 324 323 323 322 321 321
343 344 343 342 341 339 339 340 340 336 330 328 332 332 335 336 335 333 332 331 332 331 331 329 327 324 324 322 322 323 323 323 323 322 322 322 322 322 321 321 320 320 320
339 344 343 341 340 339 340 339 338 331 327 326 324 334 334 336 334 331 330 330 330 329 329 328 326 323 322 322 322 322 322 322 321 320 321 321 322 321 320 320 319 319 318
339 338 343 341 339 339 338 338 332 331 328 327 325 330 332 334 332 331 331 329 328 327 327 326 325 320 321 321 321 322 322 321 320 320 320 320 321 320 319 319 319 318 318
338 337 336 340 339 337 335 333 328 326 326 327 324 324 332 333 331 331 330 329 327 325 326 325 320 319 321 321 322 321 320 320 320 319 320 320 320 320 319 318 318 318 318
336 334 337 337 336 337 334 331 325 324 325 324 325 324 333 332 331 329 329 328 325 320 320 321 315 319 320 321 321 322 321 320 320 318 319 320 320 319 319 318 318 317 317
334 335 335 333 333 335 332 328 327 324 323 326 325 327 333 331 330 328 328 326 322 315 315 315 316 319 320 321 321 321 321 320 318 318 319 319 320 319 318 318 317 317 316
331 331 333 333 332 333 334 332 328 325 326 325 332 332 331 330 329 327 325 321 319 314 312 312 313 319 320 321 322 322 320 320 318 318 319 319 319 319 318 317 317 316 315
332 333 333 333 333 334 334 333 331 329 327 326 331 331 330 329 328 325 320 316 314 312 311 311 313 319 320 321 322 322 321 320 319 317 319 318 318 319 318 317 316 316 315
332 331 330 328 331 332 333 332 332 332 329 328 330 330 330 330 327 317 314 312 313 311 311 315 316 318 318 320 321 322 321 320 318 317 318 318 318 318 318 318 317 316 315
331 329 328 324 324 329 331 332 332 331 330 330 330 329 328 329 327 319 313 313 314 311 316 320 318 316 317 320 320 322 321 321 319 316 317 318 318 318 317 318 318 317 316
330 329 326 324 324 326 327 329 330 330 329 329 328 324 328 326 325 323 313 318 319 313 317 321 322 318 319 319 320 321 321 321 321 319 316 318 317 317 317 317 317 317 317
330 327 324 324 324 324 327 327 329 328 328 327 327 327 325 323 322 318 315 322 323 316 318 321 321 320 319 318 319 320 321 322 321 320 318 316 316 317 317 317 317 317 317
329 327 324 323 324 324 324 326 326 326 325 325 325 325 324 320 321 317 322 322 324 321 322 322 321 320 319 318 318 319 319 320 321 320 320 320 318 316 317 317 318 318 318
328 326 325 324 322 324 324 324 324 323 323 323 322 323 322 320 320 321 323 322 324 323 323 322 321 320 319 319 318 317 317 317 318 318 318 320 320 319 319 318 316 316 317
326 326 325 324 323 324 324 324 323 323 322 323 322 322 320 321 322 323 324 322 324 324 323 321 321 321 320 319 317 316 317 316 316 316 316 316 317 319 319 319 319 318 316
326 325 324 323 323 324 323 323 323 322 321 321 322 321 320 321 322 322 320 322 323 321 322 321 320 321 321 320 318 318 319 318 317 316 315 314 313 313 314 315 316 315 317
324 324 323 323 323 324 324 323 323 322 321 320 321 320 320 320 321 323 323 324 323 322 322 320 321 321 321 321 320 318 321 321 319 319 319 317 316 314 313 313 313 313 313
323 324 323 324 323 324 324 323 322 322 321 320 319 320 320 322 322 322 322 322 322 321 320 320 321 320 321 321 321 321 321 322 321 319 319 320 319 317 317 315 314 314 314
324 324 324 323 323 324 324 323 322 322 321 320 319 319 320 321 322 322 321 321 321 321 320 319 320 322 323 322 321 320 320 320 320 320 318 319 319 320 319 318 316 315 315

GFSSE_925_thetae_078.txt.gz
Theta_e
343 341 339 339 336 333 332 333 335 336 335 334 337 339 340 340 338 338 336 334 334 338 340 340 336 338 340 339 337 336 335 334 334 335 336 336 337 336 335 334 334 334 334
343 342 340 339 335 333 333 332 334 334 333 333 335 337 337 337 337 336 335 332 334 337 339 339 338 340 339 337 335 334 334 334 334 335 334 335 335 336 334 332 332 332 332
343 342 341 339 336 334 333 333 333 334 333 331 332 335 335 335 332 329 329 334 336 337 338 337 337 338 337 333 333 333 333 334 334 333 333 333 334 335 332 331 330 329 329
344 342 341 339 337 336 334 334 333 333 332 331 333 333 332 329 328 332 333 333 334 335 335 336 336 337 332 331 332 332 332 332 332 332 332 332 332 332 330 329 328 328 327
346 342 340 339 339 339 338 335 335 333 332 330 332 332 329 328 330 333 334 336 335 334 334 335 336 334 331 332 332 331 331 331 330 329 330 331 331 330 329 327 327 326 326
345 343 341 339 341 339 339 338 335 334 333 328 328 330 327 327 331 333 335 335 335 335 335 334 333 330 331 330 330 330 330 329 328 328 328 329 328 329 327 326 326 326 324
344 344 342 340 340 341 339 339 339 338 336 335 331 333 330 331 333 333 335 335 335 334 334 333 330 331 329 329 328 327 327 327 327 326 325 325 325 326 324 323 323 322 322
342 343 343 342 340 339 342 339 338 339 337 335 332 330 335 337 335 335 334 334 333 333 332 331 330 330 330 328 327 326 326 325 325 324 323 322 323 324 323 321 321 321 320
342 343 342 341 340 340 340 340 338 335 333 330 329 327 326 332 334 334 333 333 332 331 329 329 329 328 323 323 325 326 324 323 323 322 321 322 322 322 321 320 320 320 319
338 342 342 340 340 340 340 337 337 335 335 326 329 325 324 330 329 331 333 332 330 327 329 328 325 322 321 323 323 323 322 321 320 320 320 321 322 321 320 320 319 319 319
337 337 341 338 337 338 339 339 335 333 332 329 328 324 325 329 331 331 332 331 329 327 327 325 322 321 320 322 322 321 320 317 319 320 320 320 321 320 320 319 319 319 319
338 336 334 337 339 337 336 336 332 331 329 325 324 325 328 330 331 331 330 329 328 327 327 324 321 320 322 322 321 321 319 317 318 319 319 320 321 320 320 319 319 319 318
335 335 335 337 338 336 335 332 327 326 328 328 326 326 326 325 331 331 329 327 326 326 325 323 320 320 321 321 320 320 319 318 317 319 319 320 320 320 319 319 318 318 317
333 334 335 333 333 334 334 331 325 324 324 326 325 325 327 329 331 330 329 326 324 325 324 321 319 320 320 321 321 320 320 319 317 318 319 319 320 320 319 319 318 317 316
331 331 332 332 332 334 333 330 325 325 324 325 325 325 325 330 329 329 327 325 319 321 321 317 319 320 320 321 321 320 320 318 317 318 319 319 319 319 319 318 318 317 316
331 331 332 332 332 334 333 330 327 325 325 325 329 328 325 329 328 327 326 321 316 315 315 316 319 319 320 321 321 320 320 318 317 318 318 318 318 318 318 318 317 317 316
331 330 329 327 330 332 333 332 329 326 326 326 329 329 329 328 327 325 322 316 313 312 313 314 318 320 320 321 322 320 320 318 316 317 318 317 317 318 318 318 318 317 316
330 330 327 326 324 329 331 332 332 329 327 327 330 329 328 326 326 321 316 313 311 311 311 313 319 318 320 320 321 320 320 319 317 317 317 317 317 317 317 317 317 317 317
330 329 327 324 323 325 327 330 330 330 329 328 329 329 327 327 324 315 313 311 310 310 314 316 316 316 318 320 321 321 320 318 317 316 316 316 316 317 317 317 317 316 317
329 327 326 323 326 324 327 328 328 329 328 328 328 327 327 326 319 312 312 314 310 312 318 319 317 317 319 319 320 321 321 320 319 318 317 316 316 317 317 317 317 317 317
327 326 325 323 323 323 324 326 326 326 326 326 326 326 327 326 322 314 313 318 314 314 319 320 321 318 319 318 319 317 320 321 321 320 319 318 317 317 316 317 317 317 317
325 325 324 323 323 322 324 324 324 325 325 325 325 324 326 324 323 319 315 322 320 316 318 319 321 319 318 318 318 317 314 316 320 320 320 320 319 319 317 317 317 317 317
325 324 324 323 322 323 322 324 324 323 323 323 323 323 323 322 322 321 321 322 323 319 321 321 321 320 319 318 318 317 317 316 315 316 317 317 318 319 319 319 319 319 318
324 324 324 323 323 324 323 322 322 322 322 322 323 323 322 321 321 321 323 322 324 324 322 322 321 320 320 318 317 317 317 317 316 318 316 315 314 315 316 316 317 318 318
324 324 324 323 324 324 323 323 322 322 322 322 322 322 321 321 321 322 322 323 323 323 323 322 321 321 321 319 317 320 321 321 320 317 316 318 316 315 314 313 313 313 313
323 323 323 323 323 324 323 322 323 321 321 321 321 320 320 320 321 322 323 321 322 321 321 319 321 321 321 320 319 318 321 321 320 319 316 317 318 319 319 318 316 315 314

GFSSE_925_thetae_081.txt.gz
Theta_e
341 340 336 337 338 338 338 338 336 335 338 341 340 339 337 337 337 338 337 336 336 335 341 341 334 334 340 342 339 338 337 337 337 337 338 338 337 337 335 334 334 334 334
340 339 337 337 337 336 337 337 336 335 336 339 340 341 339 338 338 338 336 337 337 338 341 341 337 340 340 338 336 335 335 335 335 335 335 336 335 337 334 334 333 333 333
341 340 339 337 335 335 336 337 336 334 336 337 339 341 340 338 337 336 335 336 337 339 340 339 338 338 339 335 334 334 334 334 334 334 333 333 333 335 333 331 332 332 332
341 339 339 338 336 334 335 336 336 334 333 336 339 340 339 337 336 334 334 336 337 337 338 339 338 338 336 334 334 334 334 334 333 332 331 332 333 333 332 329 329 329 329
342 339 338 338 337 335 334 335 335 334 333 335 336 337 337 336 335 333 333 335 335 336 337 338 336 336 334 334 333 333 333 332 332 332 332 332 332 330 328 328 327 327 326
343 341 339 338 339 339 337 335 335 334 333 334 335 335 334 332 328 327 334 335 335 335 334 334 336 333 332 332 332 332 331 331 331 331 331 330 328 329 327 326 325 325 324
344 342 341 340 339 342 342 336 335 337 336 335 333 333 334 334 334 332 333 333 333 333 334 334 333 332 332 331 331 330 330 329 329 328 328 327 327 326 327 325 324 323 323
342 342 341 340 340 340 341 337 336 337 336 335 335 334 332 331 333 334 335 334 334 334 334 333 332 331 331 330 330 329 328 328 327 327 326 325 325 325 324 323 322 322 321
342 342 341 341 342 340 339 338 337 338 335 335 330 331 330 328 331 331 335 334 334 334 333 332 332 329 328 328 327 327 327 327 326 324 323 323 323 322 323 321 321 321 320
341 342 342 341 340 342 341 340 338 337 335 332 328 328 328 329 327 327 332 333 332 332 332 332 330 329 329 327 326 326 325 325 323 321 321 322 322 322 321 321 321 320 319
341 341 342 341 337 338 341 340 339 336 332 331 329 329 325 326 327 331 330 331 331 331 331 331 328 324 325 326 325 324 323 322 321 321 321 321 322 322 321 320 320 319 318
340 341 341 338 336 336 336 339 337 334 332 330 328 325 325 326 326 329 329 331 331 330 329 327 321 321 324 325 323 322 321 321 320 320 320 321 322 321 320 319 319 319 319
337 336 336 338 338 337 336 335 335 334 333 331 329 326 327 325 328 326 329 329 330 329 327 323 320 321 323 322 321 320 319 319 319 319 320 320 321 321 320 319 319 319 318
336 336 335 336 336 337 335 335 334 334 331 329 327 326 326 329 329 329 330 331 328 329 325 321 320 322 322 321 321 319 317 318 318 319 319 320 320 321 320 320 319 318 317
333 334 334 336 335 335 333 333 331 330 329 328 325 324 328 328 327 330 330 329 328 328 325 320 321 322 322 321 320 319 317 317 318 319 319 319 319 320 320 319 319 318 317
332 333 333 331 331 331 331 331 330 327 326 328 326 325 327 327 328 329 328 328 326 327 325 321 320 319 320 320 320 320 319 318 318 318 319 319 319 319 320 319 319 318 317
331 330 330 331 331 332 332 330 328 325 324 325 327 326 327 327 329 328 326 327 325 326 324 320 319 319 321 320 320 320 319 318 318 318 318 318 318 318 319 318 318 318 317
330 330 330 330 331 333 332 331 329 327 325 324 325 326 325 328 328 327 326 325 322 324 323 318 318 319 320 320 320 319 319 318 317 318 318 318 318 318 318 318 317 317 317
329 329 326 325 324 329 329 331 330 328 326 325 328 328 326 326 327 326 325 323 318 320 319 317 318 318 321 320 320 319 319 318 317 318 317 318 317 317 318 317 317 317 317
329 327 326 325 323 325 325 328 330 329 326 326 329 328 326 326 326 324 323 319 316 315 315 316 318 316 320 321 320 319 319 318 317 317 317 317 317 317 317 317 317 317 316
327 325 324 323 322 323 324 325 327 328 328 328 329 328 327 326 324 322 319 315 313 312 313 314 318 316 319 320 319 318 318 318 317 317 316 316 317 316 316 316 316 316 316
325 324 323 324 321 323 325 325 326 327 327 328 328 328 326 324 321 318 316 313 312 312 313 316 317 316 318 319 319 317 314 317 318 317 317 317 317 316 316 316 316 316 316
323 322 322 323 322 323 324 324 324 326 325 325 327 326 326 325 322 316 316 314 314 314 317 317 317 317 318 317 318 317 314 316 316 318 318 318 318 318 318 317 317 317 317
323 323 322 323 322 322 323 324 324 324 324 324 324 324 325 324 322 317 315 318 314 316 318 319 320 319 318 317 317 317 317 315 315 316 316 318 319 319 319 318 319 318 318
323 323 323 322 322 322 322 323 324 323 323 323 323 323 323 323 323 321 317 319 320 317 319 320 320 321 319 318 317 317 317 317 317 317 318 317 315 317 316 316 317 317 317
322 322 322 322 323 322 322 322 322 322 322 322 323 322 322 323 323 322 322 322 321 322 317 318 320 321 319 319 318 317 317 319 319 318 316 315 316 316 315 314 314 314 314

GFSSE_925_thetae_084.txt.gz
Theta_e
341 341 341 339 344 339 338 336 336 338 341 342 341 340 337 337 338 338 338 336 338 340 340 338 334 335 339 340 338 338 338 337 337 337 338 338 339 337 336 335 335 335 334
338 339 339 340 345 338 337 336 336 338 341 341 341 339 338 337 338 337 335 336 339 340 341 336 333 338 339 339 337 337 337 336 337 337 336 337 337 337 335 334 334 333 333
338 338 337 339 345 338 337 336 336 339 342 341 340 338 337 337 337 336 334 335 339 339 340 336 334 338 338 337 337 336 336 336 335 335 335 336 335 336 333 333 333 332 332
338 337 337 339 343 337 337 336 336 337 341 340 339 337 336 337 337 336 335 336 338 340 338 338 339 337 337 336 335 335 335 335 334 334 333 333 334 334 333 333 332 332 332
339 336 337 339 342 343 336 336 335 336 337 341 341 340 339 338 337 337 336 337 337 338 338 338 337 336 335 334 334 334 334 333 332 331 331 332 333 333 332 331 330 330 330
340 337 336 338 342 345 339 337 335 336 340 344 342 342 340 339 338 337 336 336 335 335 337 338 336 335 334 333 334 333 332 332 331 331 331 332 332 331 327 326 326 326 326
341 339 337 338 341 343 344 340 337 334 337 340 341 339 339 337 337 336 334 333 333 334 335 335 335 335 334 333 333 332 331 331 331 331 331 329 329 327 326 326 325 324 324
341 341 339 338 339 343 341 339 339 337 335 336 336 334 334 334 333 331 331 333 332 333 334 335 334 333 333 332 332 331 330 330 330 329 328 327 326 325 326 324 323 323 322
342 341 341 340 340 342 341 340 338 337 336 336 334 331 330 330 327 328 331 330 331 333 334 334 333 332 332 331 330 330 329 329 328 326 325 325 325 325 324 323 322 321 321
342 341 341 342 345 340 341 340 339 337 336 331 330 330 332 331 332 331 330 330 332 332 333 333 332 331 330 330 329 328 328 327 326 325 324 323 323 323 323 321 321 320 319
341 341 341 342 346 339 339 340 339 338 335 333 332 330 328 327 326 326 328 329 330 331 332 332 331 330 330 328 327 327 327 326 325 323 322 322 322 321 321 320 319 319 319
340 341 341 341 342 339 339 339 339 337 332 332 329 327 327 326 326 326 327 329 329 329 332 331 328 327 327 326 326 326 325 324 322 321 321 321 322 322 321 320 319 319 319
338 339 341 341 340 338 338 340 337 334 332 328 327 328 327 327 326 327 326 328 328 328 332 330 328 327 326 325 324 324 323 321 320 320 321 321 321 322 320 319 319 319 319
336 338 339 340 338 336 336 339 337 334 332 330 328 328 328 326 325 327 328 327 327 328 330 324 323 324 325 324 323 322 321 320 319 320 320 320 321 321 320 320 320 319 318
335 336 336 337 337 336 336 336 336 332 331 330 329 328 327 325 326 327 327 327 327 329 329 321 321 323 324 323 321 320 319 319 318 319 319 320 320 321 321 321 320 319 318
332 335 335 334 335 333 333 333 333 332 331 328 328 328 327 326 327 327 329 328 327 328 327 321 321 322 323 321 320 319 318 318 318 319 319 319 319 320 320 320 319 318 318
330 332 334 334 335 335 330 329 330 330 330 327 327 326 327 328 329 328 329 328 328 328 325 320 321 322 322 320 319 318 317 318 318 319 319 319 319 319 319 319 319 318 318
329 331 332 333 331 330 327 327 328 330 328 327 327 325 327 328 328 328 328 328 328 328 323 319 321 321 321 320 319 318 318 318 318 319 319 319 319 319 319 318 318 318 318
329 331 331 330 330 329 328 328 328 330 326 327 326 325 327 328 327 327 327 325 327 327 324 319 319 320 319 319 319 319 318 318 318 318 318 318 318 318 318 318 317 317 317
329 330 329 328 328 328 328 329 329 329 328 325 325 325 325 326 327 327 326 324 326 325 323 319 318 319 320 319 318 318 318 318 318 318 318 318 318 318 317 317 317 317 317
327 328 327 325 324 326 326 328 329 328 327 326 326 327 326 325 326 326 324 325 324 323 321 318 318 318 319 319 318 317 317 318 318 318 318 317 317 317 317 317 317 317 316
323 324 324 323 322 323 324 324 326 328 327 327 326 327 326 324 326 324 323 323 322 319 319 317 317 317 318 319 318 317 315 316 317 317 317 317 317 317 317 316 316 316 316
322 322 323 322 321 322 323 324 324 325 326 326 328 326 325 324 324 321 323 322 318 317 318 316 317 317 318 319 319 318 315 318 316 317 317 317 317 317 316 316 316 316 316
323 322 322 323 321 321 322 324 324 325 325 324 326 325 324 325 322 320 321 319 316 314 315 316 317 316 319 317 318 317 319 317 317 315 317 318 317 317 317 317 317 317 317
323 322 321 323 321 322 323 323 324 324 324 325 325 325 324 323 321 317 317 315 314 313 314 315 317 316 318 318 318 317 316 315 316 315 316 315 317 318 319 318 318 318 318
322 320 321 321 321 321 322 322 324 324 324 324 323 323 323 322 321 319 316 313 313 314 316 314 316 318 316 318 318 318 317 317 317 317 315 315 315 315 316 317 318 317 316

GFSSE_925_thetae_087.txt.gz
Theta_e
340 336 335 336 338 339 339 338 337 338 340 340 340 338 338 338 338 339 341 341 340 340 341 341 339 339 340 340 336 337 338 338 338 339 338 339 340 338 337 336 337 338 335
337 338 337 335 335 338 338 337 336 338 342 341 341 339 337 338 338 339 340 340 340 340 341 341 337 338 339 338 337 336 337 337 337 337 337 338 338 337 336 336 336 335 334
336 338 337 336 336 339 337 336 337 341 343 342 341 339 337 338 338 340 339 339 340 340 340 338 335 339 339 337 337 337 336 337 337 337 336 338 338 337 335 334 333 333 333
334 335 337 336 341 338 337 336 336 341 343 342 341 339 338 338 338 338 338 339 339 339 339 339 340 339 338 337 337 336 337 336 336 336 336 336 336 336 334 333 333 332 332
336 335 336 336 344 338 337 336 337 343 343 342 341 339 338 338 338 337 338 339 338 337 337 338 339 338 337 336 336 336 335 335 335 335 335 336 335 334 334 333 332 331 332
336 336 336 336 344 342 338 336 337 341 344 342 340 339 338 338 337 335 336 337 337 337 337 336 336 336 336 335 335 335 334 334 333 333 334 334 334 333 331 330 330 330 330
337 336 336 337 342 341 339 336 337 337 341 342 340 339 339 339 336 335 335 334 335 336 336 336 335 336 335 335 334 334 333 331 333 333 333 333 332 329 327 327 327 327 326
336 336 336 338 342 340 340 337 336 336 336 342 341 340 338 338 336 335 333 334 332 334 337 336 334 335 335 334 333 333 331 330 332 332 332 332 328 326 326 325 324 324 323
338 337 337 338 341 340 340 339 337 335 337 339 336 340 337 338 336 334 333 330 331 333 335 335 335 335 334 333 332 331 331 331 331 331 330 329 326 326 325 323 322 322 322
341 341 339 340 344 339 338 339 339 337 336 337 337 337 336 335 334 332 329 326 331 332 333 333 334 334 333 332 332 331 330 329 329 328 327 328 325 324 325 322 321 321 320
342 341 341 340 341 340 339 340 338 337 335 335 336 333 333 331 328 328 328 330 330 333 333 332 332 332 332 331 331 330 329 327 326 326 325 324 324 325 323 321 320 320 319
340 341 341 344 341 340 339 339 338 338 337 335 333 331 329 328 327 326 326 325 328 330 333 332 331 331 331 329 329 328 326 325 326 325 324 323 323 323 322 321 320 320 320
338 339 340 342 342 338 339 337 337 338 337 334 330 330 330 328 326 325 328 328 329 330 329 329 330 330 329 328 326 325 325 325 324 323 322 321 322 322 322 320 319 319 319
337 338 339 340 343 342 337 335 336 336 334 333 332 331 329 326 326 326 326 326 328 328 327 329 330 328 327 326 325 325 324 323 322 321 321 321 321 322 322 320 320 319 319
336 337 337 339 340 341 337 335 334 333 332 331 331 329 327 326 327 326 327 328 328 328 328 328 327 326 326 325 324 323 322 322 321 321 320 321 321 321 320 321 321 320 319
334 335 336 338 339 339 338 334 334 332 332 331 329 328 327 327 327 327 328 327 328 327 326 327 326 326 325 324 323 322 321 321 320 321 321 321 320 320 320 321 321 320 319
332 334 335 337 338 336 335 334 333 331 331 330 330 328 327 327 328 327 327 328 327 327 325 325 325 324 323 322 322 321 320 320 320 321 321 321 320 319 320 320 320 319 319
331 332 333 334 335 335 332 332 330 330 330 330 329 328 328 328 328 327 328 327 327 326 323 322 322 322 322 321 320 320 320 319 320 320 321 321 321 320 319 319 319 318 318
329 330 331 332 333 333 332 330 328 328 328 329 328 327 327 328 327 328 327 327 326 326 321 322 321 322 322 321 320 320 319 319 320 320 320 320 320 320 319 318 318 317 317
328 329 330 330 332 330 329 328 327 327 326 327 327 324 325 326 327 328 326 326 326 325 320 321 320 321 321 321 320 320 320 320 320 319 320 320 320 320 319 319 318 317 317
327 328 328 328 329 328 328 328 328 327 326 326 326 326 325 326 327 328 327 327 325 323 321 319 320 320 321 320 320 319 319 319 319 319 319 319 319 319 319 319 318 318 317
326 327 327 327 327 327 327 328 328 328 327 326 326 325 325 325 327 327 326 325 323 323 320 318 319 320 320 320 321 320 320 319 319 319 319 319 319 319 319 318 318 318 318
325 326 325 326 325 324 325 325 326 326 327 327 326 327 326 326 326 326 326 324 322 321 320 318 318 320 319 319 320 322 323 324 320 319 319 318 318 318 318 318 317 316 317
325 324 325 324 325 324 324 324 324 325 326 326 326 326 326 326 325 325 324 323 321 320 320 319 317 319 320 320 320 318 321 322 324 323 318 318 318 318 318 317 317 316 316
324 322 323 323 322 322 322 323 324 324 325 325 326 325 323 323 320 320 322 321 320 319 319 319 317 318 319 320 320 319 319 319 320 321 323 319 318 318 317 317 318 318 317
323 322 321 321 322 321 321 322 323 324 324 325 324 322 320 320 320 321 322 321 318 317 318 318 317 317 318 320 320 319 320 319 319 320 321 320 321 319 319 318 318 318 318

GFSSE_925_thetae_090.txt.gz
Theta_e
341 342 332 333 334 335 340 341 339 339 341 340 337 336 337 339 339 340 341 342 343 343 342 342 342 340 339 337 335 337 338 339 339 338 338 339 339 338 337 338 338 339 337
341 344 331 333 334 336 338 339 339 338 339 340 338 337 338 339 340 341 342 342 343 342 343 341 340 341 341 338 337 337 338 338 338 338 338 339 339 338 337 337 337 337 335
343 345 335 335 334 338 338 338 337 338 340 341 340 338 339 339 341 342 342 341 341 341 342 341 341 341 339 337 337 338 338 338 337 336 337 338 338 337 336 336 334 334 334
342 345 344 338 334 339 338 337 337 338 341 342 341 339 340 340 341 342 342 340 340 340 341 341 341 340 338 337 337 337 337 337 336 336 337 338 337 336 334 334 333 334 334
342 343 345 338 336 339 338 337 337 340 342 343 342 340 340 342 340 341 340 339 340 340 339 340 340 339 337 338 337 337 337 336 336 337 337 337 336 335 334 333 332 332 334
340 342 344 336 337 339 337 337 337 349 344 344 343 341 341 342 340 339 339 339 339 338 338 338 338 338 337 337 336 336 336 336 336 336 336 336 335 334 334 333 333 332 331
341 342 340 336 339 339 338 337 337 346 347 343 343 341 343 342 339 337 338 338 337 337 336 335 338 338 337 336 336 335 335 334 335 335 335 334 334 332 331 331 330 329 328
343 343 343 337 340 340 339 337 337 340 346 345 342 341 341 341 338 335 336 336 335 334 335 335 335 337 336 336 335 334 334 334 334 334 333 333 330 330 328 328 327 327 326
345 344 341 340 340 340 340 338 338 337 339 344 341 340 338 337 337 335 334 334 333 334 335 336 335 336 335 335 334 334 333 333 332 332 332 331 327 328 327 325 325 324 324
345 345 342 340 342 341 341 339 337 338 337 336 337 338 338 337 336 335 334 333 333 333 335 336 334 335 334 334 333 332 331 332 332 332 331 331 326 325 325 323 322 322 321
345 344 344 343 343 342 342 342 339 337 338 338 337 337 338 337 336 335 334 332 331 330 335 334 334 335 334 333 332 331 331 331 331 330 330 327 325 326 325 322 322 321 321
344 345 345 343 342 342 342 342 341 341 339 339 339 339 335 337 337 334 331 327 327 326 331 332 331 333 333 332 331 331 330 330 329 328 328 325 325 326 323 322 321 320 320
341 343 340 343 343 343 342 341 341 342 341 339 338 338 337 337 334 332 327 326 326 329 327 330 330 330 331 331 330 330 329 329 328 327 326 324 323 325 323 321 320 320 319
338 341 341 343 342 341 340 339 340 339 339 338 337 335 334 333 330 331 329 326 328 328 329 331 330 330 330 330 330 329 329 327 326 324 324 322 322 324 323 321 320 320 319
336 341 341 340 341 340 338 339 338 337 337 337 335 335 332 331 331 328 327 327 329 328 330 330 329 329 330 329 329 328 327 326 324 322 322 321 322 323 322 321 322 320 319
332 337 342 340 340 339 338 337 336 336 336 335 334 333 332 330 328 329 326 329 329 329 329 327 328 329 329 328 328 327 326 324 323 321 321 322 321 321 320 323 323 322 320
329 334 340 340 339 339 337 336 335 334 334 333 333 332 330 329 328 328 327 329 329 327 327 327 329 328 328 327 327 326 325 322 321 321 321 321 321 320 321 321 321 321 319
327 331 337 339 338 338 337 335 334 333 333 333 332 331 329 328 328 330 329 328 329 327 327 327 327 327 327 327 326 325 323 321 321 321 321 321 321 321 321 320 320 319 319
325 330 335 339 337 336 335 334 333 333 332 332 331 330 329 328 327 328 328 328 328 327 326 325 326 326 326 326 325 324 322 322 321 320 320 321 321 321 321 319 319 318 318
325 329 333 337 337 335 335 334 334 330 330 329 330 329 329 327 327 328 328 328 327 325 325 325 326 326 326 325 324 323 323 322 321 320 320 320 320 320 320 320 319 318 317
324 329 332 336 334 334 333 333 333 330 329 327 327 328 328 327 328 328 328 327 326 325 324 325 325 325 325 324 323 323 323 322 322 320 319 320 320 320 320 320 319 318 318
325 329 331 334 332 334 334 334 331 329 329 327 327 327 327 326 327 327 327 326 325 324 324 325 325 325 325 324 323 323 323 322 322 321 320 320 320 320 320 320 319 319 319
327 329 331 333 332 334 333 332 331 329 328 327 327 326 326 326 327 328 326 326 324 323 324 324 325 325 324 323 323 323 325 325 323 322 321 320 320 320 319 319 319 319 319
327 329 330 332 333 332 331 331 330 329 328 328 327 326 326 326 326 327 326 325 324 324 323 324 325 325 324 324 324 323 322 321 325 325 322 321 320 320 320 319 319 320 320
327 329 330 332 331 330 330 329 328 327 327 329 328 327 326 326 325 326 325 325 324 324 324 323 324 324 324 324 324 324 324 325 323 323 324 322 322 321 321 321 320 320 320
328 327 328 331 331 330 329 327 327 327 326 327 326 325 325 325 325 325 325 325 324 323 323 323 323 324 324 323 323 323 323 323 324 323 322 322 323 322 322 321 321 321 321

GFSSE_925_thetae_093.txt.gz
Theta_e
339 339 335 337 342 343 341 341 342 342 342 340 337 335 336 338 341 342 342 342 342 343 345 344 342 340 338 336 334 336 338 338 338 338 340 340 339 337 337 338 339 339 337
340 340 332 332 334 338 343 341 339 342 342 341 337 335 336 338 341 341 342 342 342 343 345 342 343 342 338 336 338 338 338 338 338 338 339 340 340 338 337 338 338 337 337
341 344 332 332 333 334 337 340 340 339 341 341 339 337 337 339 341 341 342 342 343 343 343 342 342 342 339 338 338 338 338 338 337 337 338 338 339 337 336 337 336 336 335
340 344 344 332 333 335 336 338 339 339 340 342 340 338 338 340 341 342 342 343 343 343 342 342 342 341 339 337 337 338 338 337 336 336 338 338 338 336 335 334 335 334 334
337 342 346 332 333 336 338 338 338 338 342 343 342 340 339 340 342 343 342 342 342 341 341 342 342 340 338 337 337 337 337 336 336 337 337 337 337 336 333 332 333 333 334
338 340 343 334 332 336 338 337 337 339 342 347 344 341 340 341 342 342 341 340 340 340 340 340 339 338 338 337 337 337 336 335 336 337 336 335 336 334 333 333 334 333 332
338 341 343 335 332 335 337 337 338 343 345 347 345 342 341 342 341 338 340 339 339 339 338 338 338 338 338 337 336 336 335 335 337 335 336 336 336 334 333 333 332 331 330
339 342 345 337 333 334 337 337 337 346 347 347 346 344 343 341 339 338 339 339 340 338 337 335 337 338 337 336 336 336 335 335 334 334 335 335 333 333 332 330 329 328 326
342 344 346 342 340 337 339 337 337 339 346 345 346 344 342 341 339 337 338 338 337 338 336 334 335 337 337 335 336 335 334 334 335 333 333 332 330 331 330 327 327 326 325
345 346 346 345 343 343 342 338 338 337 341 346 344 340 338 338 338 337 336 337 336 337 335 334 335 336 335 334 335 334 334 333 332 333 332 331 329 329 328 326 325 324 323
346 347 346 345 344 344 343 342 338 338 338 339 343 341 339 338 338 337 335 336 335 334 333 332 333 334 332 333 334 333 332 332 332 331 332 327 327 328 326 323 323 322 322
346 346 346 345 344 344 342 343 341 341 340 341 341 341 338 338 338 337 335 334 333 332 330 329 330 333 332 333 332 332 331 331 331 330 330 326 327 327 325 323 321 322 321
343 344 346 345 345 344 341 342 341 341 341 341 341 340 337 337 337 336 335 333 331 328 327 326 326 330 330 333 332 332 331 330 328 328 327 325 326 326 324 322 322 321 320
338 341 347 344 345 344 342 341 341 340 341 341 340 340 339 338 337 335 335 332 328 327 326 329 325 326 329 332 331 331 330 330 328 328 326 324 325 324 323 322 321 321 320
331 337 344 344 344 344 345 343 342 341 340 341 340 339 338 338 337 336 333 332 331 328 329 327 325 327 328 330 329 330 329 329 327 327 325 323 323 322 323 321 321 320 319
325 332 342 345 344 343 343 342 342 341 340 341 339 338 338 336 336 334 332 331 330 328 328 327 328 327 328 327 329 329 328 326 325 323 324 322 322 322 321 322 322 321 319
323 325 338 345 342 343 343 341 340 339 339 339 339 339 337 336 334 333 331 330 330 328 327 328 328 328 328 327 329 328 326 324 323 322 323 323 323 322 320 321 323 321 321
322 325 331 341 342 341 341 341 339 339 338 338 335 336 336 335 333 332 330 330 330 329 330 329 327 328 327 327 328 326 324 324 322 322 322 322 322 321 320 321 321 320 319
321 323 330 337 343 340 340 340 339 337 337 337 337 335 333 332 332 330 331 329 329 328 329 328 326 326 326 327 326 325 323 321 321 321 323 322 322 321 322 321 320 319 319
319 323 328 335 343 339 338 337 336 336 336 335 333 333 332 331 330 331 330 329 329 328 328 327 327 326 326 326 326 324 323 321 320 320 321 323 322 321 321 322 321 320 318
320 323 329 333 343 339 337 335 335 336 334 333 331 330 332 331 329 329 329 329 328 328 327 327 326 326 326 327 325 324 324 323 322 320 321 321 321 323 321 322 321 320 319
321 322 328 332 338 338 336 336 337 335 334 332 331 329 329 330 329 329 328 328 328 327 326 325 326 326 325 326 325 324 325 323 323 322 320 320 321 321 321 322 321 320 320
321 324 328 331 336 337 337 337 336 335 331 330 329 329 328 328 328 328 327 328 327 326 326 325 326 325 325 325 324 323 326 325 324 322 322 320 321 321 320 320 321 320 320
321 325 328 331 336 335 336 336 336 332 331 331 330 329 327 327 327 327 328 328 325 325 325 325 325 325 325 325 324 324 322 321 326 325 322 321 321 321 321 320 320 320 320
320 325 329 331 334 335 337 335 335 334 333 331 329 330 327 327 327 327 328 326 326 325 325 325 325 325 325 325 325 324 324 323 323 325 325 323 321 321 321 321 321 320 320
320 328 331 332 333 334 335 335 334 333 332 329 330 330 329 327 327 327 327 325 325 324 324 325 324 324 325 325 325 324 324 324 324 324 324 324 324 322 321 321 322 321 321

GFSSE_925_thetae_096.txt.gz
Theta_e
344 333 337 339 340 341 342 343 342 342 340 339 338 336 335 334 336 337 339 341 341 341 343 341 340 340 341 341 339 339 339 339 339 339 339 339 339 337 337 339 338 338 337
337 329 333 335 337 339 341 342 342 342 341 340 338 336 335 336 339 340 340 341 342 344 344 341 340 339 337 334 335 337 338 338 338 338 339 339 338 338 338 338 337 338 337
337 328 331 333 334 336 341 341 341 342 342 341 339 336 335 337 340 341 341 342 343 344 344 342 339 337 334 335 336 337 337 337 337 337 338 339 338 338 337 336 337 336 336
341 328 330 331 331 332 336 340 340 341 341 341 340 337 336 337 339 340 341 342 343 343 342 342 343 340 335 336 336 337 337 336 335 337 338 337 338 336 336 336 336 336 335
342 336 330 329 331 332 334 337 339 340 341 342 341 339 337 338 338 339 341 342 343 343 341 342 341 340 336 336 336 337 336 335 337 337 337 336 337 334 334 334 334 334 333
341 343 329 328 329 332 334 337 338 339 340 342 342 341 338 338 339 339 340 342 343 341 340 341 341 339 336 336 336 336 335 336 336 336 335 335 333 335 334 334 334 332 332
340 343 337 329 329 332 336 337 337 338 341 347 344 342 340 339 339 339 339 341 340 339 340 340 339 337 336 336 336 335 335 335 335 335 335 335 334 336 334 333 332 331 330
343 344 340 336 331 332 335 336 337 338 341 344 345 343 340 340 339 339 339 340 340 338 339 337 337 337 336 336 335 335 335 334 335 334 335 333 334 336 334 331 331 330 328
342 347 344 338 335 332 336 337 338 337 345 344 344 344 342 341 340 338 338 339 338 338 337 337 336 337 336 335 334 335 335 333 334 334 333 333 334 334 331 329 327 326 325
342 345 346 341 338 334 336 338 337 337 345 343 344 344 344 342 340 339 337 337 337 338 337 335 333 332 335 335 334 334 334 333 333 333 332 331 331 332 330 328 326 325 324
346 346 348 345 343 342 340 338 337 338 340 344 343 344 341 341 340 339 337 336 336 335 334 333 331 330 332 332 333 334 333 332 332 332 332 329 329 330 329 325 324 323 323
347 348 348 346 345 344 344 343 337 339 339 341 343 342 341 340 338 338 336 335 335 333 334 332 327 325 330 330 332 332 331 332 331 331 330 327 328 328 326 323 322 321 322
347 348 348 346 345 345 343 343 341 341 340 340 341 341 340 339 338 339 337 335 334 333 332 330 326 325 326 330 330 330 331 331 330 330 328 326 327 327 325 323 322 322 321
344 348 346 347 346 345 343 344 342 342 340 341 340 341 340 338 339 337 336 334 334 332 331 328 328 327 326 330 329 330 331 330 329 329 326 326 326 326 324 323 322 323 319
327 345 347 346 346 347 343 342 343 342 341 342 342 341 340 339 339 337 336 334 332 331 328 328 326 326 326 327 328 328 330 329 328 328 326 326 324 322 323 323 322 321 321
322 329 348 346 345 346 343 344 341 342 343 342 340 341 339 339 338 337 335 334 332 329 329 327 327 325 325 327 328 328 329 328 328 328 325 325 323 322 321 321 322 320 320
320 323 349 346 344 346 344 345 343 341 341 342 341 339 338 338 337 335 334 333 333 331 329 329 329 326 326 327 326 327 329 328 327 326 323 323 322 321 320 321 321 322 320
320 322 342 347 344 345 345 344 341 343 340 339 339 340 338 338 336 335 334 333 332 331 329 329 328 328 327 327 325 327 328 325 323 323 323 320 322 321 320 320 322 319 319
319 321 325 347 346 344 344 342 340 339 340 338 337 337 339 338 336 334 332 332 331 329 328 328 328 328 328 326 323 326 326 324 323 323 322 322 322 322 320 320 321 320 319
320 319 325 346 345 343 342 340 340 339 338 339 338 335 336 336 335 333 332 331 330 329 329 329 328 328 327 326 326 326 324 323 322 322 322 323 322 321 320 321 321 320 319
321 320 324 340 345 343 342 340 339 338 337 336 337 337 335 333 332 331 331 330 330 329 329 328 327 327 327 325 326 324 323 321 321 322 323 322 322 321 322 322 320 320 319
321 321 326 335 345 342 340 339 337 336 336 335 333 334 334 333 331 330 331 330 329 329 328 328 327 326 326 326 325 323 323 323 322 320 323 323 321 321 321 322 320 319 320
323 322 325 330 344 342 340 337 336 335 335 335 334 332 331 331 329 328 330 330 329 328 327 327 327 325 326 325 325 323 323 323 322 323 321 320 322 323 321 321 322 320 320
324 323 323 327 332 342 338 337 337 338 335 333 332 331 329 328 328 328 329 329 329 328 327 327 327 325 325 325 325 323 321 322 321 322 323 321 321 321 321 321 323 321 320
321 325 324 326 330 341 338 337 337 337 333 331 331 330 329 328 329 329 328 328 328 327 327 326 326 325 325 325 325 324 321 323 322 321 321 322 322 321 320 321 321 320 320
320 324 327 329 332 339 338 337 339 335 334 333 331 332 330 328 327 326 327 328 327 327 326 326 326 325 324 324 324 324 322 324 323 322 321 320 322 322 321 321 320 322 320

GFSSE_925_thetae_099.txt.gz
Theta_e
342 341 341 338 338 340 342 342 342 341 340 338 336 335 333 333 335 338 341 342 341 341 340 339 340 340 341 339 339 339 338 338 338 338 341 340 339 339 338 337 337 337 337
337 340 338 334 333 337 341 342 342 341 340 339 337 335 333 333 335 337 340 341 342 342 340 340 340 340 340 339 339 338 338 338 338 338 339 339 339 339 337 337 337 337 337
333 336 335 331 331 336 340 341 341 341 340 339 338 335 334 335 336 338 340 341 342 342 340 340 340 338 335 334 336 337 337 337 337 337 337 338 339 338 336 337 337 336 336
327 330 332 332 332 335 339 340 341 341 341 340 339 336 335 336 337 339 340 341 342 343 341 341 341 335 334 335 336 336 336 336 337 336 337 338 338 338 337 336 336 336 336
327 328 330 330 332 335 337 339 340 340 340 340 340 337 336 336 338 339 340 341 342 342 343 342 341 335 335 335 336 336 335 336 338 336 336 337 337 337 336 336 336 335 334
329 328 328 328 330 332 335 336 338 339 340 340 340 339 337 337 338 339 340 341 342 341 341 341 340 335 334 335 336 335 335 337 337 336 336 335 334 335 335 335 334 332 333
334 331 327 329 329 331 333 334 337 338 339 341 340 340 338 338 338 338 339 341 342 340 340 339 338 336 334 335 336 335 336 335 336 335 335 333 334 335 334 333 332 330 329
339 340 328 329 329 332 335 335 336 337 338 340 341 341 340 338 339 338 338 339 341 339 338 337 336 336 335 335 335 335 334 335 335 335 333 333 334 336 336 332 331 329 326
341 341 335 331 331 333 336 335 336 337 340 341 342 343 341 340 339 339 339 338 339 338 337 337 337 335 335 335 334 335 334 334 334 333 333 333 333 334 334 330 329 327 324
342 343 340 333 333 334 336 336 337 336 338 342 343 343 342 341 340 339 338 337 337 338 337 335 334 332 332 332 333 335 333 334 333 333 333 333 333 333 332 327 326 324 324
344 344 343 334 334 335 336 336 337 335 341 342 343 342 343 342 340 340 338 337 337 337 336 335 332 331 331 331 330 333 333 333 333 332 332 332 332 332 330 327 326 324 323
346 345 345 342 335 336 337 336 335 337 339 342 342 342 343 342 341 340 338 337 336 337 336 333 331 327 326 329 328 330 332 332 332 332 331 330 331 330 329 326 324 323 322
345 347 347 346 342 340 342 337 335 337 338 341 343 342 342 340 340 339 338 337 336 336 333 333 330 327 327 326 326 328 330 332 331 332 329 328 328 328 328 324 323 322 321
347 347 347 347 345 343 344 343 336 336 337 337 338 340 340 340 338 337 337 336 336 334 333 331 326 325 327 326 326 329 329 330 331 330 327 327 327 327 325 323 322 322 321
343 348 347 347 345 344 344 343 341 338 338 337 338 339 339 339 338 337 338 336 335 333 333 330 327 326 326 325 327 327 329 330 330 329 327 326 325 325 324 323 323 323 322
323 345 347 347 346 342 344 344 342 340 340 339 338 339 340 339 338 338 337 336 334 333 332 331 327 327 327 325 327 327 328 329 329 328 326 326 325 323 323 322 324 322 321
318 321 345 346 346 343 343 343 342 341 342 340 341 339 340 339 338 338 336 335 334 333 331 329 328 326 326 325 326 326 326 328 328 327 326 326 324 321 321 322 321 321 320
319 318 331 345 345 345 344 343 342 342 343 341 341 340 339 339 338 337 336 335 333 332 330 328 327 326 325 326 327 327 326 327 328 327 326 324 323 321 321 321 320 320 320
318 319 327 344 345 346 345 343 343 341 341 342 341 340 339 339 338 337 335 334 333 332 330 328 328 328 326 326 326 327 325 326 327 326 324 323 322 321 320 321 320 320 319
319 319 321 342 345 345 344 344 343 341 340 340 340 340 338 338 337 336 335 334 333 332 330 329 328 328 328 328 327 325 325 324 324 324 322 321 322 320 319 320 320 319 318
319 319 319 343 344 344 343 342 340 339 339 339 337 337 337 337 337 336 334 333 332 331 330 329 328 328 328 327 326 326 325 324 322 322 322 321 321 321 320 319 321 320 319
319 320 321 344 344 343 343 341 340 339 338 337 338 336 335 334 334 333 332 331 331 330 329 328 327 327 327 326 324 324 324 322 321 322 323 322 321 321 320 319 320 320 319
319 320 330 344 343 342 341 339 338 338 337 336 336 337 336 334 332 331 331 330 330 330 329 328 328 327 327 326 325 323 322 323 321 322 322 322 321 321 321 321 321 320 319
319 320 331 344 343 341 340 338 338 336 335 335 335 334 334 333 332 331 330 330 330 330 329 328 327 327 326 325 325 324 322 321 321 322 322 322 322 321 320 321 321 320 319
323 322 332 343 342 340 339 338 336 335 334 334 334 333 332 331 331 330 330 329 328 329 328 327 327 326 326 325 325 324 323 321 320 320 320 321 321 321 322 321 321 321 321
324 321 324 341 342 340 339 337 336 335 335 332 332 331 331 329 328 328 327 327 328 328 328 327 326 326 326 325 325 324 322 321 320 320 319 320 320 321 322 322 321 321 321

GFSSE_925_thetae_105.txt.gz
Theta_e
342 342 341 341 340 339 338 338 336 334 333 332 334 340 341 342 341 342 340 340 339 338 337 340 341 341 340 340 340 340 340 338 338 340 340 340 340 339 339 338 338 338 337
341 342 341 341 340 339 339 339 338 336 333 332 333 337 341 343 343 342 340 340 340 339 338 340 340 340 339 338 339 339 338 338 338 339 339 340 340 340 337 337 337 337 337
341 342 341 341 341 340 339 339 339 337 335 333 333 334 337 341 341 340 340 340 340 338 339 340 339 339 338 338 337 337 337 338 338 338 340 340 340 340 337 336 336 336 336
340 341 341 341 340 340 340 340 339 339 337 335 333 333 335 337 339 339 340 340 340 339 340 340 339 338 338 338 337 337 337 338 338 339 339 340 338 340 336 336 336 336 336
340 341 340 340 339 340 340 340 339 339 338 336 334 334 335 337 338 339 340 340 340 340 342 344 339 337 336 337 337 337 337 338 339 338 339 337 337 339 336 336 336 336 335
340 340 338 336 337 338 339 339 339 339 339 338 335 334 336 337 339 339 340 341 342 342 343 343 335 334 336 337 337 336 337 337 337 338 338 336 337 338 337 336 335 334 333
338 337 335 333 334 336 338 338 338 339 339 338 337 335 336 337 339 340 339 341 342 342 342 338 333 334 336 336 336 336 336 336 337 337 337 337 338 338 336 335 334 333 333
332 334 334 335 334 336 336 337 337 338 338 339 338 336 336 337 338 339 339 339 341 341 340 336 334 335 335 336 336 336 336 335 335 336 335 336 336 335 335 334 333 332 331
334 334 334 335 336 336 335 337 336 337 337 338 338 337 336 337 338 339 339 339 340 339 339 337 334 334 335 335 336 336 336 335 334 335 334 335 334 335 333 333 331 330 329
335 333 333 336 337 337 337 336 336 337 337 338 339 338 337 337 337 339 339 339 339 337 336 337 334 334 335 335 335 335 335 335 334 334 333 334 334 334 333 332 328 326 325
336 336 334 333 334 335 335 336 336 337 338 338 339 339 338 338 338 339 339 338 338 337 335 335 335 334 335 335 334 333 334 334 333 333 332 333 333 334 331 332 327 326 325
337 334 332 332 334 334 334 335 336 338 338 338 339 341 340 338 338 339 339 338 337 337 335 335 335 333 334 334 334 333 333 333 333 333 332 332 332 333 331 328 325 325 324
337 335 332 332 333 333 333 335 336 338 339 340 339 339 339 340 339 339 339 339 338 337 336 335 334 332 333 333 333 332 332 332 329 331 332 331 332 333 332 328 327 323 323
341 339 334 333 333 333 333 334 335 338 341 339 341 339 339 341 340 339 339 339 338 337 336 334 333 330 331 331 331 330 331 330 328 330 330 331 330 332 332 329 327 323 321
342 342 340 338 335 333 332 332 334 336 339 338 338 338 339 341 341 339 339 339 338 337 336 335 332 330 330 329 328 329 328 327 326 325 329 330 328 329 331 329 327 325 322
335 342 342 341 338 334 332 331 331 335 336 338 339 338 338 341 341 340 339 339 338 337 336 335 332 330 331 329 328 327 328 326 325 325 328 329 328 329 329 326 327 324 323
315 323 343 342 341 338 336 333 331 332 336 338 337 337 340 341 340 340 339 338 337 336 336 334 331 329 327 327 328 325 325 325 325 327 328 328 328 329 327 326 325 323 322
314 315 333 343 342 342 341 338 335 333 333 334 336 334 337 340 339 339 338 337 336 335 335 333 332 330 329 327 327 328 329 328 328 328 327 329 328 327 325 324 323 321 321
314 314 316 339 343 343 342 341 340 337 336 335 334 335 335 338 339 338 337 336 335 334 334 332 331 330 327 327 327 327 327 326 326 328 327 328 327 326 324 323 322 321 320
313 314 314 321 342 343 343 342 341 339 339 339 337 334 335 336 339 339 336 335 335 335 331 330 330 328 326 326 326 327 326 327 328 328 327 328 327 325 324 322 322 321 320
311 312 313 323 338 342 342 341 339 339 339 340 339 337 336 337 339 339 337 335 334 335 332 330 330 329 327 327 327 327 326 326 326 327 327 327 327 325 324 322 319 320 319
309 311 313 319 332 341 341 342 340 339 339 339 339 339 338 338 338 339 337 334 333 332 331 330 330 328 328 327 327 325 325 323 325 326 326 326 326 325 324 321 321 319 318
310 310 310 317 330 338 340 341 340 339 338 337 337 338 339 339 339 339 337 336 334 332 331 331 329 329 328 328 327 326 325 325 322 323 325 325 325 324 322 321 320 319 319
320 323 319 312 329 336 340 340 338 338 337 338 337 339 338 339 339 338 337 335 334 333 332 330 329 328 328 327 327 326 324 322 324 323 322 322 323 323 322 321 320 320 319
315 320 324 315 325 335 340 339 338 337 337 336 336 337 337 337 337 337 337 335 333 332 332 331 329 328 328 327 327 326 325 322 322 322 323 321 321 321 321 321 320 319 319
311 313 321 328 327 336 339 339 337 337 336 335 335 335 335 334 336 336 335 333 334 333 331 330 329 329 328 327 327 326 325 323 321 322 322 322 321 320 320 321 320 319 319

GFSSE_925_thetae_108.txt.gz
Theta_e
340 340 342 341 338 337 335 333 333 335 335 336 339 342 342 340 336 335 336 338 339 341 340 340 341 339 339 339 338 339 340 339 339 340 341 342 341 339 338 338 337 338 338
339 340 341 340 338 337 336 334 333 333 333 335 337 340 341 340 338 338 337 339 339 339 340 341 341 339 339 339 339 339 339 338 340 340 340 340 340 339 338 337 337 337 337
338 341 341 340 339 338 337 335 333 333 333 334 335 338 341 340 342 339 339 339 339 338 339 340 339 339 338 339 339 338 338 338 339 339 340 340 339 341 337 336 336 336 336
337 341 341 340 339 338 338 336 335 333 332 333 335 339 341 342 342 340 340 340 339 340 340 339 338 337 337 337 337 337 337 338 339 340 338 337 338 339 337 336 336 335 335
339 341 340 340 339 339 338 338 336 335 333 332 333 336 339 340 340 340 340 339 339 339 339 338 338 337 337 337 336 337 337 338 339 339 337 337 336 338 337 336 335 335 335
341 341 340 340 340 339 339 339 338 336 335 333 333 334 335 336 337 339 339 339 339 340 342 344 338 337 337 337 337 337 337 338 339 338 336 336 335 337 336 336 335 334 334
341 341 340 340 340 340 339 339 338 338 336 334 333 334 335 336 337 338 339 340 341 341 343 339 335 334 336 336 336 336 337 337 338 337 336 335 336 338 336 335 333 333 333
339 340 340 340 340 340 339 339 339 338 337 336 334 335 335 336 337 338 339 340 342 341 341 334 333 335 336 336 335 336 336 336 337 337 336 335 336 337 337 333 333 332 332
340 340 340 339 339 339 338 338 338 338 338 337 335 335 336 336 337 338 338 339 340 340 339 334 334 335 335 335 335 334 335 335 335 336 335 334 335 336 335 333 332 331 331
340 340 341 340 339 339 338 338 338 338 338 338 337 336 336 337 337 338 338 338 339 338 337 334 334 334 335 335 335 335 335 335 335 335 334 333 334 335 334 334 331 331 329
338 339 340 342 340 338 338 338 337 337 338 338 338 337 337 338 338 338 338 338 339 338 336 335 334 334 335 335 335 334 334 334 334 334 333 334 333 335 333 332 330 327 326
338 339 338 340 339 338 338 338 339 339 339 339 339 338 337 338 338 338 338 338 339 337 335 335 334 334 335 334 334 334 334 334 333 333 333 333 332 334 332 331 328 326 325
337 336 339 338 338 337 337 337 339 340 340 339 338 338 338 338 339 339 339 339 338 337 336 335 335 334 334 334 334 334 333 334 333 333 332 332 331 333 332 332 328 327 324
341 338 335 337 337 333 333 336 341 345 341 338 338 339 339 339 339 340 339 339 338 338 336 335 335 333 333 333 333 333 332 332 332 331 332 332 331 332 332 330 329 327 323
326 339 339 335 336 336 334 335 337 342 340 337 337 338 339 339 339 339 340 339 338 337 336 335 334 333 333 333 333 333 332 330 330 329 331 330 331 330 331 330 329 327 323
316 324 337 341 335 336 335 335 333 335 336 338 338 339 338 337 339 340 339 340 338 338 336 335 334 333 332 332 332 332 330 329 328 328 326 327 330 330 331 330 329 327 325
313 314 322 334 341 338 336 335 334 333 336 337 336 337 336 338 339 341 339 339 339 338 337 336 334 332 330 331 330 330 329 329 327 326 325 324 326 328 328 329 327 325 324
313 313 314 318 333 341 339 335 334 335 335 334 334 335 337 338 337 338 340 337 337 337 337 336 334 331 331 330 329 328 328 328 326 326 326 325 326 328 327 328 326 325 323
312 313 313 314 325 336 340 338 335 334 333 333 335 336 336 338 336 339 340 337 336 335 335 335 333 331 329 327 328 328 327 326 325 326 326 327 327 328 327 327 325 324 322
310 311 311 312 315 328 339 338 336 335 334 333 334 336 336 338 336 335 338 338 335 331 333 332 332 331 329 327 328 328 327 328 327 327 327 327 326 327 328 325 324 323 321
307 309 310 311 313 328 339 339 338 337 336 335 334 333 335 333 339 336 338 336 336 331 330 331 330 330 328 328 327 327 327 327 327 326 326 326 327 326 327 325 323 322 322
305 305 308 309 311 322 335 339 338 338 338 337 336 336 335 334 334 338 337 335 334 333 330 329 330 328 328 327 326 326 326 325 326 326 327 327 327 327 327 325 323 322 321
314 317 317 309 310 317 334 339 339 339 338 336 336 336 336 335 334 335 335 335 334 333 332 331 331 329 328 327 327 326 325 326 322 323 326 326 326 326 326 325 323 321 321
310 311 315 321 314 318 333 338 338 337 337 336 336 337 338 336 336 335 335 335 333 334 331 331 331 330 328 327 326 326 326 323 324 323 323 325 326 325 326 325 324 322 320
307 307 309 316 321 318 334 337 338 338 336 335 336 335 336 338 336 336 336 335 334 333 332 332 330 330 329 328 327 327 326 324 323 322 323 322 322 324 325 324 324 321 321
303 304 305 312 325 318 333 337 338 337 336 335 336 335 334 335 335 335 335 336 335 334 332 332 331 330 329 328 327 326 326 325 322 323 322 322 322 321 322 323 322 322 320

GFSSE_925_thetae_114.txt.gz
Theta_e
345 351 344 342 339 338 339 340 342 343 344 341 336 335 337 339 338 338 339 340 340 342 345 344 341 339 338 337 336 340 341 340 340 341 341 341 341 341 339 338 340 341 338
344 351 344 342 339 337 339 341 343 343 343 342 338 337 338 339 338 338 339 338 342 341 342 340 340 340 339 337 337 340 340 339 340 341 341 341 341 340 338 340 340 340 338
345 350 343 341 338 336 338 341 343 343 343 343 341 338 340 338 337 337 338 340 340 339 338 340 341 340 338 337 338 340 340 340 341 341 340 341 342 341 339 339 338 338 338
346 348 347 340 337 336 336 339 342 343 343 344 342 340 340 338 336 337 338 339 339 337 339 339 339 338 338 339 339 339 340 340 340 339 342 341 341 339 337 337 337 337 337
346 347 348 340 337 336 335 336 338 341 343 343 343 342 339 337 336 338 338 339 338 338 339 340 339 338 339 339 338 338 339 339 339 341 341 341 340 338 336 336 336 336 337
346 347 348 340 337 336 334 334 335 336 338 340 341 341 339 337 337 338 339 339 338 338 339 340 338 337 338 338 337 337 338 338 339 339 340 340 339 337 336 337 336 336 335
346 347 348 341 338 336 335 334 334 335 336 338 340 341 339 339 339 339 339 339 338 339 339 338 337 337 337 336 336 337 337 337 339 338 339 340 340 337 334 335 335 335 334
347 348 349 342 338 337 336 335 334 334 335 337 339 340 340 341 340 340 339 339 338 339 340 338 337 336 336 336 336 336 336 337 338 338 339 339 339 336 334 334 333 333 333
348 348 349 344 342 338 337 336 335 334 335 336 339 340 341 341 340 340 339 339 339 340 339 336 337 336 335 335 336 336 336 336 337 338 338 338 337 336 335 333 333 333 331
347 348 349 347 345 345 343 337 337 335 334 335 337 339 339 339 339 339 339 339 339 340 339 336 336 335 335 335 336 335 336 336 337 336 337 337 336 336 336 333 333 331 331
345 347 346 346 345 347 346 343 338 337 336 335 335 336 338 342 342 342 342 341 341 341 340 336 335 334 335 335 335 335 336 336 336 335 336 337 335 334 334 333 332 331 330
345 345 345 345 343 343 345 345 344 343 341 341 341 342 342 343 344 343 343 343 341 341 340 336 334 335 335 337 336 335 336 335 335 335 336 336 334 333 333 333 332 331 330
338 343 342 343 344 344 344 345 344 343 342 343 343 343 342 343 344 343 343 342 342 341 341 337 336 337 336 336 336 336 335 336 334 334 335 335 333 332 333 333 332 330 330
329 341 342 342 342 342 343 343 344 344 344 343 343 343 342 343 344 343 343 342 342 341 341 339 338 337 337 337 337 336 336 335 334 335 336 334 334 331 333 334 332 329 326
318 328 340 342 341 341 341 341 341 341 341 343 343 344 343 344 343 343 341 342 342 341 341 340 339 338 338 338 337 337 336 335 335 335 335 333 333 332 331 334 331 330 327
314 315 320 337 341 341 340 340 340 340 340 341 342 342 344 341 341 342 341 341 341 342 341 341 340 339 339 337 337 336 335 335 334 334 334 334 332 331 331 331 332 330 328
312 313 314 320 333 341 340 340 339 339 339 339 340 340 341 341 341 341 341 340 340 341 341 340 339 339 338 337 337 336 336 335 334 333 334 333 332 329 329 329 332 328 329
311 312 313 314 320 335 339 339 339 338 338 337 338 340 342 342 341 340 339 340 341 341 340 340 339 339 338 337 337 336 335 334 334 333 333 332 330 330 327 327 327 328 328
310 311 311 312 315 324 336 338 340 339 339 337 338 338 340 341 341 341 340 338 338 340 339 340 339 338 338 337 336 336 335 334 333 333 332 331 330 327 327 325 323 323 327
314 315 314 312 312 315 326 335 335 338 339 339 338 338 339 340 340 340 339 339 336 337 337 338 338 338 338 337 336 335 335 334 333 332 332 331 330 327 326 325 325 324 326
314 315 317 318 319 313 315 327 330 336 336 338 339 339 339 340 340 339 338 338 335 336 337 337 338 337 337 337 336 335 335 334 333 332 331 331 331 329 326 324 326 326 326
311 313 314 314 315 317 316 315 327 331 334 334 336 339 340 339 339 339 337 337 336 336 336 335 335 335 335 334 333 333 335 333 332 332 331 331 331 329 327 326 326 326 327
307 308 309 310 312 313 316 319 316 328 331 333 336 339 340 338 338 338 337 336 336 335 335 334 334 334 333 332 334 333 335 334 331 331 331 331 330 328 327 326 326 326 326
303 304 305 307 308 310 313 317 319 321 330 333 334 336 336 338 338 338 337 335 335 335 334 334 333 334 333 331 332 334 331 331 332 332 329 330 330 329 327 326 326 326 326
301 301 301 303 304 307 311 314 319 319 327 331 334 334 335 336 337 336 335 336 334 334 334 334 333 333 333 332 331 331 333 332 330 330 333 330 327 329 329 327 326 325 325
299 298 298 299 301 303 306 310 316 323 324 330 331 335 335 336 335 335 335 335 334 334 333 333 333 333 332 333 331 333 332 332 332 330 331 329 329 328 327 326 326 325 325

GFSSE_925_thetae_117.txt.gz
Theta_e
342 348 342 343 340 340 339 339 340 342 343 340 335 334 335 336 336 338 339 342 344 340 341 341 340 338 338 336 335 339 340 340 340 339 339 341 341 339 337 339 340 341 339
341 350 342 342 340 339 337 338 340 342 344 342 337 334 336 338 337 338 339 340 341 342 345 344 341 340 339 336 338 340 340 339 340 340 340 340 340 338 338 340 340 340 339
343 354 344 342 340 338 337 339 341 342 344 342 336 335 337 339 338 339 340 340 342 344 342 340 340 340 339 338 338 340 339 339 340 340 341 343 342 339 339 339 338 338 338
345 352 349 342 340 337 337 339 342 343 344 342 338 336 339 339 338 339 339 341 341 341 340 341 342 340 337 337 339 340 339 340 340 340 342 341 341 338 338 337 337 338 337
347 350 350 343 339 336 338 339 342 343 343 343 340 338 340 339 338 338 339 341 339 339 340 341 343 339 337 339 339 339 339 340 338 341 340 341 341 339 337 336 336 336 338
347 348 350 343 338 336 337 339 342 343 343 343 343 339 340 339 337 338 339 340 339 339 341 341 339 338 338 338 338 339 339 338 338 340 341 340 340 337 335 336 336 337 336
347 348 349 344 338 336 336 337 339 341 343 343 343 341 341 338 337 338 339 339 338 339 341 341 339 338 338 337 337 338 338 336 340 338 337 339 340 335 335 336 336 337 335
348 349 352 346 339 337 336 336 336 336 338 341 342 342 340 338 337 338 339 339 338 339 341 340 338 337 337 336 336 337 336 336 339 339 337 338 340 335 335 335 335 334 334
350 349 351 347 343 337 336 335 335 335 336 337 340 341 340 338 339 339 340 339 339 339 340 339 337 337 336 336 336 336 335 336 339 337 338 338 338 335 335 334 333 333 333
349 350 352 349 347 344 341 336 335 335 335 337 339 340 340 340 341 340 340 340 339 340 340 338 337 337 336 336 336 335 335 334 338 338 335 337 337 334 336 333 332 332 332
347 348 350 349 348 347 345 342 336 336 336 338 340 341 341 345 345 344 342 342 339 340 340 338 337 337 336 336 336 336 336 336 335 335 334 336 336 335 335 333 332 332 331
336 347 346 348 346 349 346 346 343 342 340 341 342 344 344 343 343 343 343 343 339 339 341 340 336 335 335 338 337 336 337 336 333 333 336 336 336 334 334 332 332 331 330
327 344 347 346 345 346 348 346 344 343 343 343 343 343 343 343 343 343 344 343 343 341 342 340 336 337 337 337 336 336 335 335 335 333 335 335 334 333 333 332 332 331 330
321 337 346 346 346 346 346 345 344 342 343 343 343 344 343 343 343 343 343 343 342 342 342 341 339 338 338 338 336 336 335 336 334 335 336 334 333 332 334 332 332 332 330
318 323 337 345 345 345 346 346 345 344 342 342 343 343 343 341 343 344 341 343 342 341 341 342 340 339 338 338 338 337 336 336 335 334 335 334 333 332 332 333 333 333 330
317 317 319 325 343 343 344 344 344 344 342 343 342 343 344 342 343 343 341 340 341 340 341 342 341 339 338 338 338 338 337 336 336 335 335 334 331 332 332 331 334 333 331
314 315 316 318 322 337 341 343 343 342 342 341 341 344 342 345 343 342 343 340 338 339 340 341 342 340 338 339 338 338 337 337 336 334 334 335 333 331 332 331 329 331 332
312 313 314 315 317 322 332 338 341 341 341 340 341 341 342 342 343 343 341 342 339 339 341 342 341 341 339 339 338 338 337 337 336 335 334 334 333 332 330 330 330 328 325
313 314 316 317 316 317 320 331 337 339 341 340 339 340 340 342 342 342 341 341 341 340 342 341 341 340 340 339 339 338 337 336 336 335 335 333 332 331 331 329 329 327 324
317 317 317 318 320 320 317 319 331 336 338 341 340 339 339 342 342 341 340 340 340 342 342 342 341 340 340 339 337 337 336 336 335 335 334 333 332 331 330 330 324 325 324
314 314 314 316 317 319 321 317 320 334 336 339 341 341 339 340 343 342 341 341 340 340 341 340 341 340 339 339 337 338 337 335 335 335 334 332 332 331 331 329 328 325 325
310 311 312 312 313 315 317 319 318 320 329 335 337 339 341 341 342 343 342 341 342 340 339 338 339 340 340 339 338 337 336 335 335 335 333 332 332 332 331 331 330 328 326
307 308 308 309 310 312 313 315 317 320 319 330 336 338 340 342 343 343 343 342 341 340 338 338 337 338 339 339 338 335 336 335 333 334 333 333 332 331 332 331 328 328 327
304 305 306 306 306 308 310 312 316 318 321 324 333 336 336 341 342 343 343 342 341 340 338 336 336 337 336 335 337 336 334 331 333 334 333 332 332 332 332 331 329 328 327
302 302 302 303 303 305 307 309 312 316 319 322 322 335 336 338 340 343 342 343 341 339 337 336 335 336 336 335 334 336 337 336 334 334 336 332 331 331 331 330 330 327 326
299 299 299 300 301 302 304 305 307 310 315 319 324 327 334 336 338 341 341 341 341 339 337 337 335 334 336 335 334 334 334 336 335 334 334 334 332 331 330 330 330 328 326

GFSSE_925_thetae_120.txt.gz
Theta_e
350 343 342 342 341 341 340 340 341 342 343 340 335 333 333 334 333 336 339 335 337 344 345 343 339 338 335 333 331 335 338 338 338 337 338 337 337 337 338 339 341 339 339
347 344 342 342 341 340 339 339 339 340 342 341 337 333 334 335 334 336 338 341 338 339 340 341 339 338 338 334 337 339 339 339 339 338 339 338 337 337 340 341 340 339 338
345 348 342 342 341 340 338 337 337 340 342 342 339 334 335 336 335 336 338 340 341 341 344 345 340 340 340 336 338 339 338 339 339 339 342 341 338 339 340 340 337 338 338
347 353 343 342 341 339 337 336 337 340 343 343 340 334 336 337 336 336 338 338 340 344 341 341 340 341 339 337 338 339 338 340 339 341 342 342 340 339 338 337 336 337 338
347 354 349 342 341 339 337 338 340 342 343 343 338 335 337 338 336 337 338 339 340 340 339 342 343 341 337 337 338 339 338 339 339 341 340 341 340 338 337 335 335 336 338
347 351 351 347 341 338 338 340 341 342 343 342 338 336 338 339 337 338 338 339 339 339 339 341 342 339 338 338 339 338 337 337 339 340 339 337 341 336 336 336 336 337 337
349 351 351 349 341 338 339 341 342 342 343 343 341 338 339 339 338 338 339 340 339 338 340 340 339 339 338 338 338 338 336 337 338 338 338 338 339 334 335 337 337 337 335
350 352 349 347 341 338 338 340 342 342 343 343 343 341 340 340 338 338 339 339 339 338 340 341 339 338 338 337 337 336 335 336 337 339 337 336 338 334 335 335 335 334 335
350 353 352 349 341 338 338 339 339 340 342 343 343 342 341 340 338 338 339 339 339 338 339 340 338 337 337 336 336 335 334 335 339 338 338 337 337 334 335 335 335 333 333
348 351 353 349 344 338 337 337 337 337 337 339 341 342 342 340 338 339 340 340 339 338 339 340 338 337 336 335 335 335 333 334 335 337 337 335 336 334 334 334 333 333 332
347 346 350 350 348 344 341 337 336 336 337 338 340 342 341 341 340 340 340 340 339 338 340 340 338 337 336 335 335 335 333 331 336 336 336 336 336 334 334 333 332 332 332
327 348 346 350 347 347 345 344 337 336 336 338 340 341 342 343 345 345 342 343 341 339 339 340 338 337 336 335 335 334 332 331 336 334 334 335 335 334 334 332 332 332 331
320 341 346 346 346 348 348 346 342 340 337 338 342 344 341 345 346 343 343 341 342 340 341 341 339 337 336 338 335 333 332 336 335 336 336 335 334 334 333 333 332 331 331
318 321 345 345 343 344 350 348 345 344 342 342 342 343 343 344 343 341 343 343 341 341 340 341 340 336 335 337 338 336 333 334 336 335 334 334 333 332 333 333 332 332 331
317 319 329 344 345 344 345 345 345 345 345 344 343 343 345 342 344 344 341 342 341 342 341 341 340 337 337 336 338 336 335 335 336 336 333 334 332 331 331 333 332 332 332
316 317 318 321 338 341 343 342 343 344 345 344 344 345 343 344 344 344 341 344 341 341 341 340 341 340 338 339 338 336 336 336 336 336 335 334 333 331 331 332 334 332 331
312 314 318 317 317 324 339 340 341 343 341 343 342 345 344 343 343 345 341 343 344 339 343 340 341 340 338 338 337 337 337 337 336 336 336 334 334 331 331 331 331 332 331
318 318 318 318 318 317 318 329 338 340 342 342 343 342 343 344 345 344 344 344 342 343 343 339 339 341 339 338 338 337 338 337 337 337 335 335 334 333 331 331 331 330 329
316 316 317 317 318 320 322 320 320 337 338 340 341 343 344 342 342 346 343 342 343 343 342 339 340 341 341 339 338 338 337 338 337 336 335 333 334 333 332 331 330 330 329
313 313 314 315 315 316 318 320 320 319 338 339 340 341 343 343 339 342 345 343 338 342 343 342 341 341 341 339 338 338 338 337 336 336 335 334 334 333 332 331 330 330 329
310 310 311 311 312 313 315 318 320 321 321 339 341 341 340 342 343 339 342 344 340 338 342 343 342 340 340 339 339 338 337 337 336 335 335 333 333 332 330 331 329 327 324
308 307 307 309 309 310 311 313 315 316 318 321 335 340 341 341 342 343 342 342 342 339 340 344 343 341 340 339 339 337 338 337 337 336 334 333 335 332 332 331 330 329 326
305 304 305 306 306 307 307 309 312 314 317 319 321 326 340 340 341 342 343 341 342 341 340 341 342 342 340 340 338 336 335 334 333 335 335 334 334 332 332 331 331 330 328
302 301 301 301 302 303 305 306 309 312 315 317 319 322 334 340 340 342 343 343 342 343 341 340 339 338 340 340 339 337 333 333 330 334 335 335 333 332 331 331 332 331 329
298 298 297 298 298 299 301 303 305 307 310 313 316 319 322 327 338 339 339 341 343 342 342 340 339 337 338 337 339 337 337 335 335 333 332 333 334 333 332 331 331 331 330
295 294 294 294 295 295 296 298 301 302 305 307 310 315 319 324 329 337 336 339 340 343 339 340 338 337 337 336 336 336 336 336 335 334 331 330 331 333 332 332 332 331 330

GFSSE_925_thetae_123.txt.gz
Theta_e
345 343 343 341 340 341 341 341 341 341 341 338 334 332 333 332 332 334 335 334 335 339 338 331 335 338 336 333 334 337 338 338 337 337 337 336 336 337 339 341 340 339 338
344 342 343 341 340 340 340 340 340 340 341 338 334 333 334 332 332 334 333 334 339 343 341 338 337 336 334 334 336 338 339 338 337 337 336 336 337 339 341 340 338 339 338
347 344 342 341 340 340 339 340 339 339 341 339 335 333 334 333 333 334 336 337 336 337 339 338 337 338 338 333 338 338 338 339 339 338 336 336 339 340 341 338 337 338 338
349 347 342 341 340 340 339 338 338 339 341 340 336 334 335 334 333 334 336 337 338 342 343 343 340 340 342 337 338 338 338 339 341 342 340 336 338 339 339 336 336 337 337
350 352 343 341 340 339 338 337 338 340 341 341 339 334 336 336 334 335 336 337 339 341 338 338 339 340 337 336 338 338 338 338 341 341 341 338 335 337 336 335 336 337 337
351 353 350 343 340 339 337 338 340 341 342 342 340 335 336 337 335 335 337 338 339 338 337 341 342 338 336 336 338 338 337 338 341 340 339 339 336 336 335 335 336 337 336
352 352 350 348 341 339 337 338 340 342 342 342 339 336 338 338 336 336 337 338 338 337 338 340 342 338 336 337 337 338 338 338 338 333 334 339 338 334 336 335 336 336 335
352 350 349 348 344 340 337 338 340 342 343 342 340 337 338 339 337 336 337 339 338 337 338 340 339 338 337 337 336 336 338 337 335 328 334 338 336 333 335 335 335 335 334
348 353 348 347 344 340 337 338 340 342 342 342 342 340 339 340 338 336 338 339 339 337 338 340 339 338 337 336 335 334 337 337 337 335 335 335 336 333 335 335 335 334 334
344 352 352 350 348 340 337 337 339 341 342 342 342 342 340 340 339 337 338 339 339 338 338 338 338 337 336 335 334 333 335 335 337 336 335 336 335 333 334 334 334 333 332
346 350 351 351 349 342 338 336 338 338 338 339 341 342 341 341 340 338 338 339 339 338 338 338 338 336 336 335 333 333 333 333 335 336 330 336 334 333 333 333 333 332 332
331 345 350 350 348 345 339 338 336 336 337 337 338 341 342 341 339 338 338 339 339 339 339 339 338 337 336 335 333 333 330 331 336 334 335 334 335 333 333 332 332 332 331
319 336 345 347 348 347 345 343 338 336 336 337 338 339 341 341 340 339 340 340 341 340 339 339 339 337 336 335 333 333 328 329 336 336 334 333 335 333 333 332 332 332 331
315 322 337 345 344 345 346 347 344 338 336 336 338 338 341 342 344 343 342 341 340 340 338 338 339 338 335 334 335 333 329 328 335 336 335 335 334 332 332 333 332 332 331
315 318 327 334 339 343 343 344 345 343 339 337 337 341 340 341 345 346 343 343 341 340 339 338 338 338 335 333 338 338 334 330 334 336 334 334 334 333 331 333 332 332 331
317 317 319 320 326 340 336 339 341 343 344 342 340 339 342 341 342 344 342 342 342 341 339 338 338 338 336 332 334 337 336 333 335 335 335 333 333 331 330 332 332 332 331
315 315 315 316 316 317 319 323 336 338 340 342 343 342 341 342 341 343 344 340 342 341 340 340 338 339 338 335 335 337 336 336 335 336 335 334 334 333 330 330 331 332 332
312 312 312 313 313 314 315 317 320 320 330 338 338 341 344 342 343 342 345 342 344 341 341 341 340 341 340 337 337 338 336 336 336 336 336 335 334 333 331 331 331 331 332
308 308 308 309 310 311 312 314 316 318 320 323 337 339 339 340 341 344 343 344 341 343 342 342 341 341 340 339 338 336 336 336 336 336 336 335 335 334 333 331 331 331 330
306 305 305 306 307 308 309 310 313 314 316 319 324 336 337 338 339 339 343 344 342 343 343 341 341 341 340 339 338 337 336 336 337 336 336 335 334 334 333 332 331 331 331
303 302 303 303 304 305 306 307 307 309 311 313 315 318 336 336 336 341 340 341 342 341 343 342 340 340 340 340 338 338 336 337 337 337 336 335 334 333 334 332 331 330 330
300 299 299 299 300 300 302 303 305 306 308 311 313 316 319 331 338 338 337 337 340 340 340 342 341 340 340 340 338 337 335 337 337 337 336 335 335 332 333 332 331 330 329
297 296 296 296 296 297 298 299 301 304 305 308 310 313 316 319 327 337 336 335 338 341 339 339 342 340 339 339 338 336 332 333 332 336 336 335 335 333 333 333 331 330 329
294 293 293 293 293 294 295 295 296 298 303 305 306 308 310 313 318 325 335 336 333 337 341 338 340 341 339 338 337 336 334 332 330 331 335 335 335 333 334 334 331 331 331
292 291 291 291 291 291 291 292 293 294 298 301 302 304 306 308 313 318 325 335 337 337 339 339 338 341 339 338 337 337 335 332 332 328 330 331 334 334 333 332 331 331 331
290 289 289 289 290 289 290 290 291 292 294 297 299 300 302 305 308 313 318 324 334 336 337 338 339 338 338 337 337 337 337 334 332 330 327 329 332 333 334 332 332 331 331